Date StartTime U_cm/s V_cm/s W_cm/s Ustd_cm/s Vstd_cm/s Wstd_cm/s Uvar_(cm/s)^2 Vvar_(cm/s)^2 Wvar_(cm/s)^2 KE_(m/s)^2 TurbulentKE_(m/s)^2 HorizWindSpeed_cm/s FrictionSpeec_cm/s DragCoef SpeedOfSound_m/s SonicTemperature_C Pressure_mb 
01/25/2015  00:00:00      -78.167      -42.349        6.901       37.286       33.040       23.178     1390.257     1091.669      537.207        0.548        0.151       88.902       20.151        0.051      333.982        3.655      872.270
01/25/2015  00:01:00      -90.016      -43.442        3.569       48.023       31.951       19.280     2306.183     1020.884      371.700        0.685        0.185       99.951       23.322        0.054      333.970        3.636      872.278
01/25/2015  00:02:00     -130.407      -59.226        3.101       33.018       27.260       19.328     1090.212      743.104      373.568        1.136        0.110      143.226       16.547        0.013      334.109        3.866      872.280
01/25/2015  00:03:00     -113.359      -67.158        1.622       44.459       31.284       23.129     1976.565      978.702      534.968        1.043        0.175      131.759       20.347        0.024      334.049        3.764      872.265
01/25/2015  00:04:00     -125.904      -76.873        4.472       49.257       37.673       25.927     2426.249     1419.221      672.212        1.315        0.226      147.517       26.099        0.031      334.128        3.897      872.253
01/25/2015  00:05:00     -100.162      -54.029        3.557       41.466       33.529       24.637     1719.394     1124.216      606.966        0.821        0.173      113.805       24.816        0.048      334.032        3.738      872.245
01/25/2015  00:06:00     -123.913      -44.877       -9.426       36.702       29.926       21.287     1347.052      895.536      453.122        1.008        0.135      131.789       21.403        0.026      333.910        3.535      872.228
01/25/2015  00:07:00     -130.296      -31.511      -13.532       28.737       25.918       17.900      825.826      671.753      320.420        0.999        0.091      134.052       11.905        0.008      333.874        3.475      872.221
01/25/2015  00:08:00     -116.888        1.367       -6.118       57.765       29.359       24.530     3336.762      861.975      601.734        0.925        0.240      116.896       26.794        0.053      333.906        3.527      872.214
01/25/2015  00:09:00     -150.771       -0.768      -11.452       34.805       24.612       16.092     1211.408      605.755      258.946        1.247        0.104      150.773       15.433        0.010      334.016        3.709      872.214
01/25/2015  00:10:00     -120.425      -11.028       -5.844       41.833       39.446       25.589     1749.994     1555.956      654.786        0.931        0.198      120.929       24.358        0.041      333.846        3.429      872.235
01/25/2015  00:11:00     -113.843      -20.850       -3.968       40.762       39.564       24.724     1661.549     1565.280      611.254        0.862        0.192      115.736       26.129        0.051      333.887        3.498      872.238
01/25/2015  00:12:00     -125.098      -42.178       -5.848       35.777       30.860       17.965     1280.012      952.368      322.727        1.001        0.128      132.017       18.307        0.019      333.864        3.459      872.238
01/25/2015  00:13:00     -157.438      -38.190      -13.104       31.738       33.977       23.243     1007.278     1154.463      540.258        1.456        0.135      162.004       18.233        0.013      333.863        3.457      872.247
01/25/2015  00:14:00     -115.122      -51.400        0.613       35.392       41.971       23.811     1252.604     1761.537      566.984        0.974        0.179      126.076       19.549        0.024      333.775        3.311      872.241
01/25/2015  00:15:00     -132.274      -44.787       -3.723       46.811       32.216       18.888     2191.268     1037.895      356.771        1.155        0.179      139.651       23.331        0.028      333.770        3.303      872.224
01/25/2015  00:16:00     -124.955      -47.835       -4.877       32.330       33.433       22.322     1045.243     1117.763      498.252        1.029        0.133      133.798       20.316        0.023      333.716        3.213      872.222
01/25/2015  00:17:00     -133.144      -21.401       -8.123       35.177       22.743       20.430     1237.403      517.246      417.402        1.021        0.109      134.853       21.976        0.027      333.845        3.427      872.213
01/25/2015  00:18:00     -122.219      -49.466       -5.008       26.285       16.619       14.149      690.913      276.203      200.202        0.929        0.058      131.850       15.463        0.014      333.918        3.548      872.194
01/25/2015  00:19:00     -109.796      -27.534      -10.623       21.879       22.780       15.747      478.690      518.916      247.980        0.709        0.062      113.196       11.760        0.011      333.907        3.530      872.192
01/25/2015  00:20:00     -107.254      -30.111       -5.283       28.082       24.291       17.122      788.585      590.065      293.174        0.705        0.084      111.401       13.007        0.014      333.841        3.420      872.173
01/25/2015  00:21:00     -124.059      -24.514       -6.056       28.960       29.021       18.027      838.665      842.192      324.983        0.902        0.100      126.458       15.891        0.016      333.832        3.406      872.158
01/25/2015  00:22:00     -125.698      -26.867      -13.810       28.598       25.097       16.256      817.844      629.852      264.252        0.921        0.086      128.538       14.388        0.013      333.811        3.371      872.148
01/25/2015  00:23:00     -116.258      -48.174      -23.627       22.292       22.295       14.083      496.949      497.050      198.322        0.879        0.060      125.844       10.153        0.007      333.828        3.399      872.148
01/25/2015  00:24:00     -116.435      -53.898      -15.703       21.028       25.470       14.906      442.172      648.731      222.197        0.901        0.066      128.304        6.984        0.003      333.814        3.375      872.157
01/25/2015  00:25:00     -114.676      -43.974      -17.101       23.558       25.290       15.425      554.997      639.560      237.926        0.840        0.072      122.818       11.244        0.008      333.766        3.297      872.177
01/25/2015  00:26:00     -112.961      -37.465      -17.506       16.615       20.545       12.241      276.068      422.093      149.836        0.766        0.042      119.012        7.699        0.004      333.761        3.287      872.179
01/25/2015  00:27:00     -103.875      -40.000      -24.142       19.641       19.707       12.664      385.774      388.360      160.368        0.695        0.047      111.311        8.722        0.006      333.746        3.263      872.187
01/25/2015  00:28:00      -63.783      -49.317       -5.239       44.072       28.312       23.365     1942.374      801.593      545.922        0.491        0.164       80.625       25.233        0.098      333.740        3.253      872.194
01/25/2015  00:29:00     -111.744      -31.896      -13.590       31.476       25.989       17.639      990.723      675.413      311.141        0.783        0.099      116.206       16.601        0.020      333.668        3.134      872.199
01/25/2015  00:30:00     -107.966      -15.512      -20.160       24.008       27.588       14.873      576.392      761.123      221.197        0.693        0.078      109.075        6.286        0.003      333.631        3.072      872.194
01/25/2015  00:31:00      -93.125      -42.137      -17.518       14.838       20.674       14.051      220.166      427.419      197.429        0.580        0.042      102.214       11.476        0.013      333.652        3.107      872.197
01/25/2015  00:32:00      -92.890      -34.597      -10.812       19.830       15.784       12.656      393.233      249.122      160.171        0.537        0.040       99.124        9.128        0.008      333.641        3.087      872.221
01/25/2015  00:33:00      -92.775      -30.603      -17.324       20.728       15.409       11.846      429.654      237.452      140.329        0.533        0.040       97.692       11.866        0.015      333.624        3.060      872.224
01/25/2015  00:34:00     -109.790      -28.458      -14.600       20.848       22.228       13.808      434.645      494.069      190.658        0.710        0.056      113.418       10.650        0.009      333.583        2.992      872.202
01/25/2015  00:35:00     -112.939      -21.700      -15.016       14.148       19.046       12.507      200.166      362.746      156.418        0.709        0.036      115.005        8.577        0.006      333.623        3.058      872.174
01/25/2015  00:36:00     -108.489      -18.919      -15.342       21.351       15.269       11.954      455.876      233.128      142.905        0.660        0.042      110.126       12.957        0.014      333.638        3.083      872.137
01/25/2015  00:37:00      -75.442      -39.187      -10.020       17.699       21.351       17.679      313.266      455.846      312.541        0.420        0.054       85.012       13.482        0.025      333.638        3.084      872.111
01/25/2015  00:38:00      -61.837      -32.001       -5.774       30.292       19.276       17.780      917.607      371.557      316.119        0.324        0.080       69.626       17.344        0.062      333.636        3.079      872.111
01/25/2015  00:39:00      -86.759      -49.667      -13.597       27.718       14.018       12.412      768.284      196.518      154.054        0.565        0.056       99.970       12.319        0.015      333.594        3.011      872.107
01/25/2015  00:40:00     -134.073      -24.437      -18.840       10.025       14.705        8.162      100.511      216.239       66.617        0.966        0.019      136.282        5.730        0.002      333.599        3.019      872.097
01/25/2015  00:41:00     -111.986      -21.696      -12.763       15.310       17.636       13.021      234.408      311.042      169.552        0.694        0.036      114.069        8.965        0.006      333.583        2.992      872.108
01/25/2015  00:42:00     -105.310      -32.386       -8.920       26.768       18.243       18.126      716.506      332.825      328.554        0.680        0.069      110.178       17.629        0.026      333.598        3.017      872.121
01/25/2015  00:43:00     -115.942      -22.431       -8.664       17.601       15.774       11.247      309.792      248.830      126.491        0.735        0.034      118.092        9.269        0.006      333.614        3.043      872.122
01/25/2015  00:44:00     -110.258      -22.499       -7.595       34.564       16.815       15.236     1194.660      282.755      232.138        0.721        0.085      112.530       14.707        0.017      333.625        3.062      872.121
01/25/2015  00:45:00     -115.232      -24.943       -3.487       25.445       19.131       16.411      647.429      366.007      269.308        0.760        0.064      117.901       13.329        0.013      333.629        3.070      872.134
01/25/2015  00:46:00     -117.833      -35.969       -2.590       22.996       20.052       16.431      528.825      402.078      269.978        0.819        0.060      123.201       13.357        0.012      333.700        3.186      872.136
01/25/2015  00:47:00     -128.004      -55.489       -3.928       19.063       20.993       13.269      363.397      440.701      176.079        1.023        0.049      139.513       10.116        0.005      333.640        3.087      872.130
01/25/2015  00:48:00     -121.362      -59.451        0.849       23.437       18.319       16.427      549.304      335.584      269.843        0.971        0.058      135.142       13.627        0.010      333.580        2.988      872.122
01/25/2015  00:49:00     -119.685      -59.662       -2.850       16.428       19.354       12.977      269.867      374.578      168.404        0.935        0.041      133.731        8.340        0.004      333.564        2.960      872.122
01/25/2015  00:50:00     -123.116      -42.483      -10.724       15.209       20.491       13.708      231.324      419.902      187.897        0.896        0.042      130.240       10.028        0.006      333.553        2.944      872.140
01/25/2015  00:51:00     -114.074      -39.246       -7.310       21.617       21.235       16.804      467.296      450.938      282.372        0.790        0.060      120.636       12.304        0.010      333.514        2.878      872.139
01/25/2015  00:52:00      -88.781      -45.079       -1.364       26.155       19.345       14.301      684.076      374.219      204.522        0.559        0.063       99.570       10.743        0.012      333.427        2.734      872.137
01/25/2015  00:53:00      -97.092      -37.114        0.008       24.310       19.014       12.349      590.992      361.533      152.496        0.595        0.055      103.944       13.098        0.016      333.467        2.799      872.143
01/25/2015  00:54:00      -95.259      -43.318       -2.533       20.105       11.403       12.191      404.211      130.021      148.629        0.582        0.034      104.646        9.693        0.009      333.475        2.813      872.155
01/25/2015  00:55:00      -86.847      -36.379       -6.646       22.936       17.651       14.372      526.044      311.561      206.566        0.498        0.052       94.158       12.677        0.018      333.471        2.806      872.154
01/25/2015  00:56:00      -83.777      -40.481       -8.788       15.478       11.741        9.037      239.578      137.855       81.671        0.460        0.023       93.045        8.746        0.009      333.453        2.778      872.138
01/25/2015  00:57:00      -87.982      -14.697       -8.930       14.140       17.676       12.741      199.928      312.437      162.325        0.436        0.034       89.201        5.454        0.004      333.456        2.780      872.138
01/25/2015  00:58:00      -76.770      -22.114       -9.219       13.400       13.424        9.335      179.561      180.205       87.140        0.346        0.022       79.891        6.698        0.007      333.456        2.781      872.137
01/25/2015  00:59:00      -86.551      -23.777      -15.138        8.811        9.443        7.220       77.632       89.168       52.135        0.425        0.011       89.757        3.718        0.002      333.439        2.753      872.135
01/25/2015  01:00:00      -87.408      -38.366      -11.039       10.549       10.867        8.991      111.288      118.100       80.834        0.477        0.016       95.457        5.123        0.003      333.454        2.778      872.127
01/25/2015  01:01:00      -97.681      -24.644      -16.733       11.516        9.444        8.711      132.618       89.195       75.874        0.536        0.015      100.742        5.302        0.003      333.429        2.736      872.130
01/25/2015  01:02:00      -90.232      -24.530      -10.906       10.523        9.961       11.199      110.723       99.212      125.419        0.460        0.017       93.507        6.207        0.004      333.401        2.690      872.142
01/25/2015  01:03:00      -87.994      -18.853      -12.383        9.647       11.921       10.077       93.060      142.110      101.537        0.429        0.017       89.991        3.547        0.002      333.404        2.696      872.148
01/25/2015  01:04:00      -86.790      -17.071      -14.203       16.225       12.895        9.783      263.244      166.270       95.704        0.428        0.026       88.453        8.918        0.010      333.458        2.783      872.147
01/25/2015  01:05:00      -91.547      -15.349      -10.620        9.370       11.501        9.598       87.803      132.276       92.122        0.452        0.016       92.825        5.866        0.004      333.364        2.631      872.157
01/25/2015  01:06:00      -78.106      -33.721       -9.415       11.195       12.293        8.268      125.324      151.120       68.353        0.384        0.017       85.074        6.482        0.006      333.317        2.552      872.175
01/25/2015  01:07:00      -57.291      -35.949       -6.522       19.448        9.386        9.082      378.238       88.091       82.479        0.258        0.027       67.636        3.935        0.003      333.248        2.438      872.189
01/25/2015  01:08:00      -69.258      -27.786      -11.886       12.381       13.119       10.205      153.297      172.095      104.144        0.307        0.021       74.624        4.968        0.004      333.259        2.455      872.185
01/25/2015  01:09:00      -70.553      -19.694       -6.223        9.182        9.666        9.371       84.303       93.430       87.809        0.283        0.013       73.250        4.335        0.004      333.373        2.644      872.172
01/25/2015  01:10:00      -50.527      -20.751      -12.102       11.062       11.302        7.856      122.376      127.746       61.721        0.172        0.016       54.622        5.032        0.008      333.375        2.650      872.174
01/25/2015  01:11:00      -58.760      -27.308      -12.433        6.511        9.891        6.285       42.392       97.839       39.504        0.227        0.009       64.795        4.390        0.005      333.413        2.709      872.199
01/25/2015  01:12:00      -38.970      -32.293       -6.103       17.308        7.894       11.360      299.582       62.311      129.049        0.154        0.025       50.611       11.104        0.048      333.365        2.632      872.210
01/25/2015  01:13:00      -70.602      -25.634      -11.060       12.961        8.982        7.649      167.979       80.675       58.511        0.304        0.015       75.112        3.240        0.002      333.399        2.688      872.206
01/25/2015  01:14:00      -62.437      -15.654      -11.089        9.137        7.863        6.995       83.490       61.821       48.934        0.223        0.010       64.370        3.299        0.003      333.470        2.805      872.206
01/25/2015  01:15:00      -29.065      -26.671      -13.097       12.675       12.232        8.200      160.647      149.621       67.236        0.105        0.019       39.447        7.148        0.033      333.540        2.921      872.209
01/25/2015  01:16:00      -54.707      -21.850      -16.766       11.082       13.497        8.228      122.815      182.166       67.696        0.206        0.019       58.909        5.223        0.008      333.517        2.884      872.226
01/25/2015  01:17:00      -32.126      -28.304      -12.532       15.503       12.245        8.366      240.336      149.951       69.985        0.123        0.023       42.816        5.316        0.015      333.428        2.735      872.245
01/25/2015  01:18:00      -49.022      -37.857       -1.492       20.823       18.556       10.326      433.594      344.336      106.634        0.236        0.044       61.938       10.332        0.028      333.417        2.717      872.250
01/25/2015  01:19:00      -68.115       -1.595       -1.665       28.686       23.672       15.685      822.867      560.357      246.010        0.314        0.081       68.134       18.279        0.072      333.452        2.775      872.247
01/25/2015  01:20:00      -83.599       -1.857      -15.917       12.229       16.009       11.466      149.549      256.286      131.475        0.389        0.027       83.620        6.793        0.007      333.548        2.934      872.242
01/25/2015  01:21:00      -57.044       -4.415      -13.418       12.360       14.425       11.805      152.766      208.089      139.359        0.198        0.025       57.215        7.866        0.019      333.562        2.958      872.257
01/25/2015  01:22:00      -34.693        2.020       -6.250       16.136        6.226        6.054      260.365       38.765       36.646        0.079        0.017       34.751        7.606        0.048      333.554        2.945      872.272
01/25/2015  01:23:00        8.116       19.947        0.478        8.953       14.839        5.367       80.162      220.201       28.801        0.040        0.016       21.535        2.716        0.016      333.902        3.521      872.269
01/25/2015  01:24:00       21.331       34.979       -4.677        9.528        7.462        5.540       90.774       55.679       30.696        0.094        0.009       40.970        2.085        0.003      334.170        3.966      872.262
01/25/2015  01:25:00       21.303       30.277       -3.988       13.414       12.884       10.541      179.935      165.985      111.114        0.092        0.023       37.020        9.380        0.064      334.114        3.873      872.267
01/25/2015  01:26:00       13.241       12.703       -1.020       11.218       10.542        8.928      125.844      111.129       79.715        0.033        0.016       18.349        7.997        0.190      334.050        3.767      872.274
01/25/2015  01:27:00        5.215       -8.710        1.482        5.995        6.044        4.771       35.944       36.525       22.766        0.010        0.005       10.152        1.509        0.022      333.873        3.475      872.275
01/25/2015  01:28:00        3.323       -9.638        1.355        7.922        8.139        4.070       62.758       66.238       16.564        0.013        0.007       10.195        2.960        0.084      333.835        3.411      872.279
01/25/2015  01:29:00      -25.601      -23.404       -5.429       10.705        9.138        8.080      114.594       83.500       65.294        0.075        0.013       34.687        7.116        0.042      333.623        3.059      872.277
01/25/2015  01:30:00      -47.913      -15.688      -10.867       11.600       13.222        9.092      134.554      174.833       82.667        0.153        0.020       50.416        6.212        0.015      333.507        2.869      872.274
01/25/2015  01:31:00      -46.333      -28.671       -5.289        8.548        6.691        5.662       73.075       44.765       32.053        0.157        0.007       54.486        1.320        0.001      333.408        2.701      872.279
01/25/2015  01:32:00      -57.715      -21.473       -7.138        6.248        6.807        4.967       39.044       46.334       24.667        0.198        0.006       61.580        2.130        0.001      333.377        2.654      872.275
01/25/2015  01:33:00      -71.792      -16.215      -10.854        9.099        7.033        5.263       82.797       49.458       27.697        0.285        0.008       73.600        3.726        0.003      333.279        2.488      872.263
01/25/2015  01:34:00      -76.974      -15.563      -14.274        7.567        7.665        6.040       57.262       58.757       36.480        0.326        0.008       78.531        2.936        0.001      333.292        2.511      872.246
01/25/2015  01:35:00      -83.895       -8.760       -6.181       19.656       13.022       12.122      386.347      169.571      146.952        0.393        0.035       84.351        3.432        0.002      333.190        2.342      872.241
01/25/2015  01:36:00     -100.209      -30.880       -9.380       16.155       16.217        9.231      260.994      262.989       85.210        0.585        0.030      104.859        6.862        0.004      333.249        2.439      872.257
01/25/2015  01:37:00     -125.235      -30.854      -18.277        7.954       10.791        7.656       63.271      116.450       58.621        0.860        0.012      128.980        5.144        0.002      333.413        2.710      872.278
01/25/2015  01:38:00     -129.518      -27.209      -17.070        9.676       10.375        7.735       93.634      107.634       59.823        0.903        0.013      132.345        4.459        0.001      333.357        2.620      872.282
01/25/2015  01:39:00     -120.186      -25.031      -11.131       16.463       14.524       15.522      271.020      210.951      240.944        0.796        0.036      122.765       10.307        0.007      333.310        2.541      872.296
01/25/2015  01:40:00     -113.454      -27.612      -10.835        9.037        9.094        7.761       81.676       82.700       60.240        0.699        0.011      116.766        4.693        0.002      333.275        2.482      872.304
01/25/2015  01:41:00     -113.374      -17.750      -12.021       20.960       16.623       11.891      439.307      276.333      141.392        0.708        0.043      114.755        9.954        0.008      333.212        2.378      872.312
01/25/2015  01:42:00     -101.970      -24.807       -8.533       20.942       21.438       14.582      438.574      459.573      212.624        0.610        0.056      104.944       13.090        0.016      333.202        2.362      872.322
01/25/2015  01:43:00     -117.796      -16.717      -16.925       19.730       11.107        9.723      389.283      123.368       94.529        0.752        0.030      118.976        5.285        0.002      333.169        2.308      872.313
01/25/2015  01:44:00      -88.981      -22.788      -12.196       20.525       16.368       11.579      421.282      267.925      134.077        0.470        0.041       91.853       10.138        0.012      333.141        2.262      872.315
01/25/2015  01:45:00      -77.352      -35.428      -11.088       19.241       13.782       10.608      370.235      189.953      112.519        0.402        0.034       85.080        6.737        0.006      333.106        2.203      872.312
01/25/2015  01:46:00      -61.213      -21.156       -5.659       17.674       20.534       15.508      312.362      421.651      240.506        0.260        0.049       64.766        7.176        0.012      333.024        2.068      872.303
01/25/2015  01:47:00      -45.667       -1.811       -4.619       25.006       23.320       13.682      625.295      543.800      187.205        0.173        0.068       45.703        9.439        0.043      333.140        2.260      872.294
01/25/2015  01:48:00      -57.376       21.008       -8.985       23.598       30.096       15.228      556.842      905.792      231.905        0.275        0.085       61.101       11.051        0.033      333.326        2.567      872.301
01/25/2015  01:49:00      -43.630       -3.564      -11.900       18.437       32.728        9.564      339.919     1071.109       91.474        0.178        0.075       43.776        8.793        0.040      333.343        2.595      872.318
01/25/2015  01:50:00      -56.496      -24.946      -11.857       16.231       13.161       10.204      263.455      173.210      104.121        0.225        0.027       61.758        4.032        0.004      333.224        2.398      872.321
01/25/2015  01:51:00      -59.366      -30.530      -13.659       18.776       16.893       10.214      352.520      285.382      104.330        0.269        0.037       66.757        3.838        0.003      333.223        2.397      872.314
01/25/2015  01:52:00      -72.756      -11.325      -15.949       12.742       21.230       10.465      162.351      450.730      109.513        0.320        0.036       73.632       10.441        0.020      333.292        2.509      872.310
01/25/2015  01:53:00      -68.511      -25.040      -10.331       10.273       19.017       12.071      105.530      361.648      145.712        0.302        0.031       72.943        9.821        0.018      333.191        2.344      872.300
01/25/2015  01:54:00      -50.836      -23.128      -13.226       11.090        8.623        8.604      122.989       74.358       74.035        0.178        0.014       55.850        5.712        0.010      333.178        2.322      872.294
01/25/2015  01:55:00      -43.586      -22.766       -6.977       12.237       12.125        7.706      149.756      147.016       59.378        0.141        0.018       49.174        4.638        0.009      333.280        2.491      872.298
01/25/2015  01:56:00      -37.980      -17.633       -9.172       15.241        8.818        9.608      232.274       77.749       92.314        0.112        0.020       41.873        7.895        0.036      333.304        2.531      872.281
01/25/2015  01:57:00      -31.822      -34.282      -10.669       13.122       11.377        9.301      172.188      129.426       86.514        0.134        0.019       46.775        5.414        0.013      333.212        2.376      872.264
01/25/2015  01:58:00      -54.112      -25.318       -2.552       22.675       13.835       12.559      514.168      191.394      157.731        0.222        0.043       59.742        8.480        0.020      333.000        2.028      872.260
01/25/2015  01:59:00      -93.329      -23.928      -13.043       14.238       15.179       13.596      202.735      230.411      184.844        0.504        0.031       96.347        9.866        0.010      333.115        2.220      872.254
01/25/2015  02:00:00      -97.677       -7.419      -18.993       16.209       14.579       11.329      262.717      212.535      128.358        0.528        0.030       97.958        5.892        0.004      333.114        2.217      872.246
01/25/2015  02:01:00      -76.859      -13.424      -13.104       23.581       19.308       13.775      556.082      372.816      189.744        0.369        0.056       78.022       10.270        0.017      333.222        2.396      872.227
01/25/2015  02:02:00      -47.195       -5.815       -9.828       15.912       19.709       10.331      253.182      388.445      106.722        0.155        0.037       47.551        6.961        0.021      333.407        2.700      872.226
01/25/2015  02:03:00      -40.004      -24.184       -2.871       12.348       14.333       14.154      152.462      205.424      200.341        0.138        0.028       46.745        9.460        0.041      333.282        2.492      872.236
01/25/2015  02:04:00      -20.329      -20.651       -6.619       19.658       12.042       10.882      386.450      145.014      118.427        0.077        0.032       28.978        9.967        0.118      333.103        2.200      872.257
01/25/2015  02:05:00      -69.000      -39.120      -16.135       20.059       14.749       15.912      402.359      217.547      253.195        0.371        0.044       79.319        8.685        0.012      333.031        2.079      872.265
01/25/2015  02:06:00     -113.789      -17.680      -16.878       21.195       24.024       13.844      449.221      577.130      191.662        0.738        0.061      115.155        6.977        0.004      332.922        1.900      872.263
01/25/2015  02:07:00      -98.666      -15.244      -15.854       20.244       21.563       19.995      409.808      464.979      399.781        0.575        0.064       99.837       15.037        0.023      332.907        1.876      872.276
01/25/2015  02:08:00      -73.969      -34.715      -16.017       14.700       22.426       12.842      216.088      502.921      164.916        0.391        0.044       81.710        5.567        0.005      332.975        1.988      872.293
01/25/2015  02:09:00      -81.866      -24.144      -10.958       12.166       10.102        9.256      147.999      102.046       85.671        0.387        0.017       85.352        3.713        0.002      332.942        1.933      872.316
01/25/2015  02:10:00      -59.243      -38.093      -12.837       14.755       14.412       12.276      217.711      207.716      150.691        0.285        0.029       70.433        6.349        0.008      333.113        2.215      872.334
01/25/2015  02:11:00      -44.886      -36.487      -10.714       18.923       15.080       13.796      358.078      227.399      190.318        0.212        0.039       57.845        7.779        0.018      332.996        2.023      872.362
01/25/2015  02:12:00      -41.404      -36.503       -8.069       21.283       14.783       16.606      452.959      218.522      275.771        0.203        0.047       55.198       13.113        0.056      332.907        1.876      872.376
01/25/2015  02:13:00      -68.124      -26.866       -4.947       41.021       16.443       21.529     1682.704      270.365      463.479        0.390        0.121       73.230       23.514        0.103      332.853        1.786      872.379
01/25/2015  02:14:00     -101.552      -36.757      -14.514       19.359       19.822       12.125      374.782      392.912      147.012        0.639        0.046      108.000        9.528        0.008      332.867        1.808      872.366
01/25/2015  02:15:00      -96.339      -26.954      -14.885       17.952       18.581       12.039      322.271      345.263      144.941        0.552        0.041      100.038        9.743        0.009      332.862        1.802      872.351
01/25/2015  02:16:00      -92.926      -21.461      -18.970       10.443       11.274        8.437      109.066      127.097       71.176        0.488        0.015       95.372        3.823        0.002      332.847        1.778      872.343
01/25/2015  02:17:00      -69.977      -39.191      -11.366        7.707       11.405        7.353       59.403      130.085       54.070        0.340        0.012       80.204        2.343        0.001      333.010        2.044      872.328
01/25/2015  02:18:00      -63.214      -48.092       -6.148       12.336       14.916       10.478      152.178      222.496      109.781        0.342        0.024       79.428        4.117        0.003      332.999        2.029      872.324
01/25/2015  02:19:00      -58.699      -50.020      -15.005       16.829       15.689        9.271      283.211      246.133       85.955        0.339        0.031       77.120        5.986        0.006      332.981        1.999      872.328
01/25/2015  02:20:00      -45.677      -38.354       -6.185       20.094       15.344       12.512      403.775      235.429      156.562        0.220        0.040       59.644        9.292        0.024      332.951        1.947      872.332
01/25/2015  02:21:00      -74.748      -29.779      -11.408       22.521       14.824        9.777      507.209      219.745       95.585        0.371        0.041       80.462        5.501        0.005      332.905        1.873      872.334
01/25/2015  02:22:00      -92.680      -18.642      -15.468        9.968       15.219        8.858       99.362      231.627       78.459        0.479        0.020       94.536        5.821        0.004      332.974        1.987      872.319
01/25/2015  02:23:00     -102.899      -15.756      -12.267       12.736       13.240       12.694      162.201      175.285      161.146        0.574        0.025      104.099        7.533        0.005      332.919        1.895      872.321
01/25/2015  02:24:00      -87.943      -30.269      -10.357       16.500       17.368       12.643      272.260      301.643      159.843        0.475        0.037       93.007        8.548        0.008      332.854        1.788      872.313
01/25/2015  02:25:00     -120.277      -14.325      -18.526       14.549       16.825       12.245      211.668      283.067      149.939        0.783        0.032      121.127        5.762        0.002      332.864        1.803      872.303
01/25/2015  02:26:00     -128.178      -26.796      -20.918       20.688       15.080       12.328      427.994      227.396      151.987        0.920        0.040      130.949        8.994        0.005      332.794        1.690      872.292
01/25/2015  02:27:00     -101.948      -39.234      -10.390       29.593       25.101       19.327      875.773      630.037      373.541        0.696        0.094      109.237       20.650        0.036      332.834        1.755      872.303
01/25/2015  02:28:00     -122.492      -15.857      -26.497       26.720       23.492       14.551      713.932      551.895      211.720        0.872        0.074      123.514       12.602        0.010      332.814        1.723      872.310
01/25/2015  02:29:00     -106.164      -15.890      -12.987       31.764       22.616       16.440     1008.964      511.504      270.278        0.674        0.090      107.347       16.625        0.024      332.771        1.651      872.302
01/25/2015  02:30:00      -99.761      -29.283      -10.016       18.153       19.013       15.258      329.529      361.509      232.816        0.592        0.046      103.970        9.749        0.009      332.774        1.656      872.298
01/25/2015  02:31:00      -97.086      -32.643       -9.290       19.567       23.637       12.139      382.870      558.727      147.362        0.583        0.054      102.427       12.144        0.014      332.855        1.789      872.286
01/25/2015  02:32:00     -135.086      -16.426      -17.638        6.823        9.863        8.267       46.554       97.276       68.336        0.952        0.011      136.081        4.333        0.001      333.018        2.059      872.273
01/25/2015  02:33:00     -138.367      -23.176      -19.961       12.795       13.888       12.126      163.703      192.877      147.043        1.029        0.025      140.294        9.761        0.005      333.137        2.253      872.254
01/25/2015  02:34:00     -133.587      -28.985      -13.886        8.310        8.246        7.253       69.048       67.996       52.599        0.953        0.009      136.696        2.841        0.000      333.112        2.212      872.240
01/25/2015  02:35:00     -125.271      -24.074      -14.691       13.734       12.014       10.587      188.626      144.334      112.077        0.847        0.022      127.563        6.739        0.003      333.024        2.069      872.237
01/25/2015  02:36:00     -108.201      -26.401      -14.763       11.034        9.199        8.986      121.739       84.621       80.748        0.645        0.014      111.375        5.276        0.002      333.083        2.165      872.240
01/25/2015  02:37:00      -82.160      -28.542       -9.488       15.684        8.698        9.459      245.975       75.647       89.472        0.403        0.021       86.977        7.238        0.007      333.153        2.279      872.241
01/25/2015  02:38:00      -74.796      -30.960       -4.804        9.217       11.917        7.697       84.962      142.018       59.241        0.343        0.014       80.950        2.039        0.001      333.254        2.447      872.250
01/25/2015  02:39:00      -71.565      -38.774       -6.370       15.803       14.442       10.351      249.732      208.566      107.143        0.362        0.028       81.394        5.889        0.005      333.392        2.676      872.267
01/25/2015  02:40:00      -67.474      -46.770      -11.296       23.084       14.600       12.792      532.882      213.153      163.639        0.389        0.045       82.098        7.829        0.009      333.200        2.358      872.271
01/25/2015  02:41:00      -69.391      -41.596       -5.035       22.769       11.369       13.255      518.447      129.263      175.695        0.370        0.041       80.903        7.231        0.008      333.140        2.259      872.269
01/25/2015  02:42:00      -95.652      -42.026      -10.222       13.597       10.556       10.063      184.868      111.437      101.266        0.571        0.020      104.478        6.511        0.004      333.133        2.248      872.266
01/25/2015  02:43:00     -108.002      -34.308      -11.916        9.847        7.766        5.737       96.959       60.304       32.916        0.659        0.010      113.321        2.703        0.001      333.088        2.174      872.260
01/25/2015  02:44:00      -89.382      -21.369      -11.490       16.217       14.401        8.334      262.983      207.386       69.457        0.456        0.027       91.901        6.465        0.005      332.993        2.017      872.255
01/25/2015  02:45:00      -63.922      -37.695       -0.957       16.931       13.064        9.320      286.656      170.673       86.869        0.303        0.027       74.209        9.229        0.015      333.011        2.049      872.254
01/25/2015  02:46:00     -100.220      -71.824       -6.263       32.031       25.151       19.492     1026.002      632.554      379.953        0.864        0.102      123.299       12.290        0.010      333.030        2.078      872.262
01/25/2015  02:47:00      -88.466      -63.330       -4.895       29.439       27.418       22.901      866.665      751.771      524.455        0.700        0.107      108.798       18.573        0.029      333.037        2.089      872.268
01/25/2015  02:48:00      -92.779      -55.481       -4.280       24.808       21.477       15.582      615.432      461.280      242.805        0.651        0.066      108.103       11.843        0.012      332.976        1.989      872.270
01/25/2015  02:49:00      -89.425      -48.244       -7.369       30.871       18.029       15.703      953.002      325.027      246.582        0.595        0.076      101.608       14.900        0.022      332.872        1.818      872.263
01/25/2015  02:50:00     -104.676      -50.841       -5.675       15.150       12.568       10.551      229.524      157.956      111.328        0.704        0.025      116.369        8.570        0.005      332.802        1.703      872.259
01/25/2015  02:51:00     -109.424      -50.190      -12.423        8.538       12.920        8.462       72.904      166.921       71.601        0.748        0.016      120.385        4.025        0.001      332.820        1.734      872.260
01/25/2015  02:52:00     -109.484      -48.194      -13.187       27.280       15.402       11.197      744.200      237.228      125.377        0.779        0.055      119.622       12.463        0.011      332.853        1.787      872.265
01/25/2015  02:53:00     -100.449      -56.520       -4.033       31.180       18.559       15.851      972.206      344.437      251.257        0.743        0.078      115.258       14.089        0.015      332.842        1.770      872.279
01/25/2015  02:54:00      -77.697      -51.156       -3.155       35.816       26.037       20.225     1282.771      677.910      409.036        0.552        0.118       93.025       17.245        0.034      332.840        1.765      872.288
01/25/2015  02:55:00     -119.770      -69.569       -0.840       34.848       23.961       19.407     1214.366      574.133      376.642        1.067        0.108      138.509       19.367        0.020      332.871        1.815      872.274
01/25/2015  02:56:00     -122.413      -66.421       -0.516       49.571       29.889       25.803     2457.287      893.344      665.774        1.171        0.201      139.272       23.988        0.030      332.898        1.860      872.260
01/25/2015  02:57:00     -123.784      -51.730       -6.651       23.364       24.309       17.015      545.883      590.919      289.522        0.973        0.071      134.158       13.008        0.009      332.875        1.823      872.263
01/25/2015  02:58:00      -86.037      -32.525       -2.729       29.191       24.705       19.034      852.134      610.341      362.304        0.515        0.091       91.979       18.056        0.039      332.845        1.774      872.264
01/25/2015  02:59:00      -81.323      -44.633        2.277       37.351       28.156       20.237     1395.117      792.762      409.525        0.560        0.130       92.766       20.119        0.047      332.903        1.869      872.264
01/25/2015  03:00:00      -90.031      -29.878        8.220       29.227       20.518       17.279      854.205      420.986      298.571        0.532        0.079       94.860       15.600        0.027      332.815        1.724      872.271
01/25/2015  03:01:00      -94.874      -37.932       -2.852       15.804       16.724       12.887      249.779      279.696      166.066        0.557        0.035      102.176        7.115        0.005      332.895        1.856      872.274
01/25/2015  03:02:00     -120.580      -32.895      -12.618       20.198       22.125       16.054      407.956      489.516      257.716        0.847        0.058      124.987       10.247        0.007      332.892        1.851      872.274
01/25/2015  03:03:00     -138.608      -34.842      -11.511       14.200       21.463       11.740      201.647      460.651      137.826        1.068        0.040      142.920        8.857        0.004      332.866        1.808      872.261
01/25/2015  03:04:00     -144.911      -43.570      -13.505       20.414       15.504       12.402      416.713      240.360      153.806        1.195        0.041      151.319        9.528        0.004      332.759        1.631      872.248
01/25/2015  03:05:00     -157.809      -51.169       -6.132       27.230       24.297       16.927      741.484      590.345      286.530        1.459        0.081      165.898       14.037        0.007      332.895        1.857      872.252
01/25/2015  03:06:00     -139.579      -50.301       -9.591       19.336       12.952       11.952      373.899      167.748      142.859        1.139        0.034      148.366        8.596        0.003      332.771        1.651      872.258
01/25/2015  03:07:00     -107.784      -30.587      -12.854       15.494       12.324        9.853      240.060      151.877       97.090        0.660        0.024      112.040        2.725        0.001      332.736        1.594      872.255
01/25/2015  03:08:00     -114.970      -32.943      -13.886       13.521       13.311       10.505      182.821      177.195      110.356        0.748        0.024      119.597        5.404        0.002      332.782        1.669      872.247
01/25/2015  03:09:00     -118.280      -36.495      -17.191       10.265       10.728       12.230      105.365      115.080      149.564        0.799        0.019      123.782        6.466        0.003      332.724        1.573      872.246
01/25/2015  03:10:00     -113.625      -49.715      -16.825       15.040       15.271        9.934      226.194      233.216       98.681        0.811        0.028      124.025        7.738        0.004      332.825        1.739      872.239
01/25/2015  03:11:00      -91.706      -68.282      -13.820       28.320       23.204       20.123      802.026      538.433      404.949        0.750        0.087      114.335       11.764        0.011      332.742        1.603      872.242
01/25/2015  03:12:00      -94.319      -63.968       -6.254       25.609       22.814       17.195      655.802      520.469      295.665        0.725        0.074      113.965       14.694        0.017      332.746        1.609      872.253
01/25/2015  03:13:00     -106.863      -44.770      -15.327       16.600       17.033       10.911      275.556      290.111      119.043        0.717        0.034      115.863        6.095        0.003      332.648        1.445      872.262
01/25/2015  03:14:00     -113.357      -48.253       -6.472       16.673       11.947        9.116      277.985      142.730       83.095        0.786        0.025      123.199        7.559        0.004      332.728        1.578      872.261
01/25/2015  03:15:00     -107.312      -58.670      -10.008       12.528       14.168       13.337      156.946      200.737      177.877        0.780        0.027      122.303        6.704        0.003      332.775        1.656      872.257
01/25/2015  03:16:00     -108.987      -37.437      -11.647        8.995       14.309        9.821       80.914      204.743       96.458        0.690        0.019      115.238        5.941        0.003      332.732        1.588      872.239
01/25/2015  03:17:00     -114.966      -21.389      -14.494       12.176       12.948        7.145      148.244      167.638       51.049        0.713        0.018      116.938        3.701        0.001      332.783        1.672      872.228
01/25/2015  03:18:00     -112.607      -25.966      -18.162       15.804       11.945       12.739      249.757      142.692      162.271        0.712        0.028      115.562        8.131        0.005      332.826        1.743      872.219
01/25/2015  03:19:00     -109.773      -32.493      -15.499       10.794        8.453        9.002      116.509       71.457       81.033        0.681        0.013      114.481        6.088        0.003      332.880        1.831      872.215
01/25/2015  03:20:00      -95.922      -21.872      -13.242       19.203       12.102       10.327      368.758      146.462      106.643        0.524        0.031       98.384        7.210        0.005      332.873        1.821      872.220
01/25/2015  03:21:00     -105.853      -34.614      -10.426       11.773       10.555       10.844      138.599      111.407      117.591        0.644        0.018      111.369        5.219        0.002      332.861        1.801      872.226
01/25/2015  03:22:00     -123.315      -26.698      -10.970        9.606       12.894        9.230       92.284      166.251       85.186        0.819        0.017      126.172        5.987        0.002      332.892        1.852      872.235
01/25/2015  03:23:00     -127.636      -41.777      -13.546        8.455        9.925        8.986       71.484       98.515       80.740        0.924        0.013      134.299        3.942        0.001      332.890        1.849      872.238
01/25/2015  03:24:00     -124.890      -31.476      -15.763        9.612        9.133        9.452       92.388       83.410       89.347        0.855        0.013      128.795        2.986        0.001      332.875        1.825      872.241
01/25/2015  03:25:00     -118.741      -29.947      -16.019       16.968       13.723        8.357      287.913      188.325       69.841        0.790        0.027      122.460        6.694        0.003      332.846        1.776      872.242
01/25/2015  03:26:00     -107.946      -43.254       -9.096       13.084       10.973        9.037      171.189      120.400       81.673        0.699        0.019      116.290        4.140        0.001      332.787        1.678      872.234
01/25/2015  03:27:00      -93.515      -28.703       -2.677       29.416       19.897       15.981      865.321      395.904      255.378        0.555        0.076       97.821        9.486        0.009      332.857        1.794      872.216
01/25/2015  03:28:00      -97.479      -26.077       -2.300       27.090       19.590       16.688      733.888      383.758      278.481        0.579        0.070      100.907       13.107        0.017      332.914        1.887      872.201
01/25/2015  03:29:00     -109.831      -35.277       -7.573       16.919       12.526       10.164      286.237      156.896      103.297        0.696        0.027      115.358        7.436        0.004      332.924        1.905      872.188
01/25/2015  03:30:00     -116.975      -38.492      -10.841       10.535       14.306        9.244      110.994      204.670       85.443        0.784        0.020      123.145        5.429        0.002      332.964        1.968      872.177
01/25/2015  03:31:00     -114.362      -43.591       -8.568       13.294       15.520       10.355      176.734      240.882      107.236        0.779        0.026      122.388        6.893        0.003      332.909        1.878      872.171
01/25/2015  03:32:00     -124.967      -41.769      -12.389        8.520        8.692        7.318       72.593       75.554       53.558        0.886        0.010      131.763        2.631        0.000      332.924        1.902      872.153
01/25/2015  03:33:00     -120.560      -25.683      -12.272       12.426       17.839        8.447      154.409      318.235       71.345        0.794        0.027      123.265        7.070        0.003      332.922        1.900      872.145
01/25/2015  03:34:00      -83.410       -9.186        0.698       29.498       15.299       15.093      870.117      234.062      227.809        0.419        0.067       83.914       16.013        0.036      332.875        1.823      872.136
01/25/2015  03:35:00     -100.312      -20.820       -1.665       17.946       15.511        9.413      322.052      240.591       88.603        0.557        0.033      102.450        9.189        0.008      332.989        2.010      872.116
01/25/2015  03:36:00     -105.791      -27.471       -5.647       14.420       14.005        7.586      207.945      196.129       57.552        0.622        0.023      109.300        4.767        0.002      333.060        2.127      872.088
01/25/2015  03:37:00     -107.282      -38.858       -6.192        7.292        8.817        6.624       53.173       77.733       43.876        0.662        0.009      114.102        2.392        0.000      333.046        2.106      872.069
01/25/2015  03:38:00      -97.502      -38.327       -5.232        7.934       10.508        6.436       62.951      110.422       41.421        0.561        0.011      104.764        3.814        0.001      333.027        2.073      872.076
01/25/2015  03:39:00      -89.191      -29.219       -1.933       20.563       15.454       12.477      422.853      238.818      155.674        0.481        0.041       93.855       10.237        0.012      332.939        1.928      872.084
01/25/2015  03:40:00     -116.530      -32.439       -4.783       14.145       18.172        9.570      200.080      330.235       91.592        0.764        0.031      120.960        5.040        0.002      332.900        1.864      872.085
01/25/2015  03:41:00      -62.188      -43.099        3.184       40.064       22.342       19.618     1605.138      499.154      384.878        0.411        0.124       75.662       20.219        0.071      332.729        1.581      872.078
01/25/2015  03:42:00      -53.375      -44.839        6.192       43.575       30.153       25.666     1898.759      909.198      658.728        0.418        0.173       69.710       14.693        0.044      332.670        1.484      872.063
01/25/2015  03:43:00      -84.185      -85.638        4.371       42.444       41.257       24.497     1801.522     1702.106      600.084        0.927        0.205      120.087       20.548        0.029      332.697        1.529      872.046
01/25/2015  03:44:00      -93.089      -55.111        6.190       45.657       35.616       26.660     2084.558     1268.515      710.773        0.790        0.203      108.179       21.851        0.041      332.601        1.370      872.026
01/25/2015  03:45:00     -129.179      -84.243        1.398       49.815       38.595       28.250     2481.579     1489.600      798.071        1.428        0.238      154.221       25.141        0.027      332.653        1.454      872.013
01/25/2015  03:46:00     -118.772      -67.899        0.383       42.498       39.833       26.672     1806.080     1586.668      711.402        1.141        0.205      136.810       22.749        0.028      332.688        1.513      872.004
01/25/2015  03:47:00     -101.191      -72.486        1.439       34.284       36.495       21.716     1175.416     1331.878      471.573        0.924        0.149      124.475       16.146        0.017      332.718        1.564      871.994
01/25/2015  03:48:00      -88.195      -57.906        2.735       56.280       35.927       26.511     3167.405     1290.782      702.839        0.815        0.258      105.506       23.030        0.048      332.718        1.563      871.980
01/25/2015  03:49:00      -80.250      -43.758        4.664       46.063       33.202       23.431     2121.777     1102.379      548.994        0.607        0.189       91.405       18.542        0.041      332.707        1.546      871.972
01/25/2015  03:50:00      -94.965      -51.263        3.597       46.876       24.421       20.391     2197.330      596.379      415.778        0.743        0.160      107.918       21.495        0.040      332.754        1.621      871.976
01/25/2015  03:51:00     -109.411      -38.648       -2.062       29.321       22.977       17.522      859.738      527.946      307.028        0.758        0.085      116.036       15.278        0.017      332.796        1.693      871.981
01/25/2015  03:52:00      -69.413      -37.435        4.763       25.432       21.764       19.197      646.789      473.658      368.523        0.387        0.074       78.864       17.986        0.052      332.794        1.690      871.994
01/25/2015  03:53:00      -75.470      -35.120       -0.036       28.238       20.336       14.624      797.404      413.543      213.848        0.418        0.071       83.241       15.804        0.036      332.728        1.581      872.000
01/25/2015  03:54:00      -69.152      -27.757       -0.361       16.796       17.416       11.974      282.110      303.328      143.369        0.314        0.036       74.515        5.125        0.005      332.720        1.568      872.005
01/25/2015  03:55:00      -63.074      -19.691       -3.671       11.447        8.396        5.639      131.023       70.500       31.798        0.231        0.012       66.076        3.938        0.004      332.713        1.556      872.000
01/25/2015  03:56:00      -80.285      -14.046      -12.019       14.845        8.558        7.149      220.375       73.236       51.103        0.357        0.017       81.504        4.190        0.003      332.745        1.608      871.992
01/25/2015  03:57:00      -83.057      -11.017       -8.283       12.184        8.932        8.111      148.462       79.789       65.788        0.369        0.015       83.785        5.322        0.004      332.776        1.661      871.974
01/25/2015  03:58:00      -69.686      -20.353       -9.833       11.115        9.711        9.452      123.552       94.303       89.339        0.284        0.015       72.597        6.410        0.008      332.770        1.649      871.964
01/25/2015  03:59:00      -53.959      -16.962       -5.324        9.879       12.640        7.825       97.586      159.777       61.235        0.177        0.016       56.563        4.284        0.006      332.797        1.695      871.967
01/25/2015  04:00:00      -34.795       -9.093       -1.493       11.048       10.151        6.238      122.057      103.036       38.919        0.078        0.013       35.964        6.577        0.033      332.871        1.816      871.970
01/25/2015  04:01:00      -20.828       -3.833       -1.615        6.616        6.798        5.089       43.774       46.211       25.899        0.028        0.006       21.178        3.894        0.034      332.953        1.952      871.974
01/25/2015  04:02:00      -27.119       22.143       -4.197        8.292       16.398        5.190       68.750      268.895       26.936        0.080        0.018       35.010        7.387        0.045      333.085        2.168      871.971
01/25/2015  04:03:00       -8.100       30.499       -0.558        8.638       11.719        9.889       74.609      137.341       97.786        0.065        0.015       31.556        5.473        0.030      332.987        2.007      871.968
01/25/2015  04:04:00      -35.832       21.245       -6.277       19.879       11.004       10.675      395.165      121.084      113.951        0.120        0.032       41.657        6.600        0.025      332.887        1.841      871.966
01/25/2015  04:05:00      -32.654       40.661       -8.852       15.417       17.227        8.619      237.697      296.777       74.282        0.170        0.030       52.149        8.549        0.027      332.932        1.916      871.964
01/25/2015  04:06:00      -28.143       27.887       -6.374       16.474       11.910       11.510      271.390      141.845      132.471        0.108        0.027       39.619        8.329        0.044      332.808        1.711      871.963
01/25/2015  04:07:00       -8.657       26.139        2.036       12.093       12.213       12.430      146.232      149.149      154.510        0.061        0.022       27.535        5.353        0.038      332.773        1.655      871.959
01/25/2015  04:08:00      -27.655       30.658       -8.227       17.476       11.042        7.510      305.414      121.926       56.402        0.113        0.024       41.288        6.979        0.029      332.834        1.756      871.948
01/25/2015  04:09:00      -31.773       20.931       -9.879        8.019        9.999        5.919       64.303       99.979       35.038        0.087        0.010       38.048        2.334        0.004      332.833        1.755      871.951
01/25/2015  04:10:00      -13.385       23.917       -4.516        9.578       11.668        6.686       91.732      136.145       44.705        0.052        0.014       27.408        3.271        0.014      332.834        1.755      871.961
01/25/2015  04:11:00        3.075       54.133       -4.303        4.154        5.735        2.712       17.253       32.892        7.353        0.151        0.003       54.220        0.766        0.000      332.926        1.905      871.979
01/25/2015  04:12:00       -4.424       42.444        0.555       10.824       19.239       12.153      117.165      370.129      147.696        0.123        0.032       42.674        9.481        0.049      332.808        1.713      871.987
01/25/2015  04:13:00        0.532       18.633        8.386        8.540       14.540        8.118       72.929      211.411       65.901        0.038        0.018       18.641        6.704        0.129      332.793        1.686      872.000
01/25/2015  04:14:00        3.009       -3.893        8.582        7.309        9.102        4.619       53.420       82.838       21.332        0.013        0.008        4.920        1.568        0.102      332.669        1.482      872.007
01/25/2015  04:15:00      -12.067        9.061        4.129        7.072        8.199        7.153       50.017       67.226       51.164        0.021        0.008       15.090        5.127        0.115      332.563        1.308      872.013
01/25/2015  04:16:00      -12.677        0.075        6.034        7.137        7.704        6.281       50.931       59.356       39.449        0.017        0.007       12.677        5.232        0.170      332.570        1.317      872.007
01/25/2015  04:17:00      -12.051      -18.317       -8.361       10.417       12.702        7.312      108.512      161.340       53.469        0.044        0.016       21.926        7.873        0.129      332.620        1.402      871.993
01/25/2015  04:18:00      -32.229      -16.711       -8.786        8.329        6.137        6.084       69.376       37.659       37.016        0.077        0.007       36.304        1.275        0.001      332.386        1.014      871.996
01/25/2015  04:19:00      -23.217      -11.194       -4.358        6.582        5.550        4.501       43.329       30.801       20.259        0.039        0.005       25.775        2.111        0.007      332.436        1.096      871.995
01/25/2015  04:20:00      -18.706       -7.509       -5.957        5.189        4.411        4.178       26.926       19.459       17.452        0.025        0.003       20.157        2.359        0.014      332.547        1.280      871.989
01/25/2015  04:21:00      -36.071       -7.830       -7.255        7.972        5.595        5.002       63.556       31.301       25.021        0.077        0.006       36.911        3.426        0.009      332.480        1.171      871.976
01/25/2015  04:22:00      -37.145      -13.795       -8.104        3.966        4.568        3.470       15.730       20.863       12.040        0.084        0.002       39.624        1.087        0.001      332.452        1.123      871.954
01/25/2015  04:23:00      -18.437      -16.945       -5.638       10.109        4.855        4.168      102.193       23.576       17.373        0.040        0.007       25.042        4.697        0.035      332.523        1.240      871.947
01/25/2015  04:24:00      -14.525      -15.548       -4.195        5.759        5.557        5.158       33.171       30.885       26.602        0.028        0.005       21.277        3.069        0.021      332.585        1.343      871.945
01/25/2015  04:25:00      -19.947      -15.133       -3.448       10.867       10.785        7.763      118.095      116.309       60.272        0.047        0.015       25.038        5.251        0.044      332.546        1.278      871.947
01/25/2015  04:26:00      -17.968      -12.325       -0.837       10.496        7.528        8.024      110.164       56.675       64.389        0.035        0.012       21.788        2.882        0.017      332.427        1.083      871.960
01/25/2015  04:27:00       -1.185       -8.215        2.521        4.953        5.310        5.754       24.528       28.199       33.104        0.008        0.004        8.300        3.259        0.154      332.415        1.064      871.976
01/25/2015  04:28:00      -20.427       -7.843       -0.916        5.304        4.658        4.234       28.136       21.701       17.927        0.027        0.003       21.881        2.879        0.017      332.495        1.194      872.014
01/25/2015  04:29:00      -35.642       -5.577       -3.235        6.520        4.850        4.629       42.511       23.524       21.430        0.070        0.004       36.075        2.553        0.005      332.460        1.137      872.036
01/25/2015  04:30:00      -38.712       -0.583       -7.373        8.828        5.935        4.474       77.938       35.229       20.020        0.084        0.007       38.716        2.736        0.005      332.376        0.996      872.044
01/25/2015  04:31:00      -37.516       -9.823       -6.096        9.326        8.677        4.520       86.972       75.285       20.431        0.086        0.009       38.780        2.982        0.006      332.335        0.931      872.053
01/25/2015  04:32:00      -41.678      -14.720       -3.623       16.489       10.457        8.158      271.890      109.359       66.553        0.121        0.022       44.201        7.009        0.025      332.330        0.921      872.052
01/25/2015  04:33:00      -49.297       -8.816       -2.408       18.092       13.617       11.849      327.311      185.422      140.397        0.158        0.033       50.079        6.189        0.015      332.269        0.823      872.042
01/25/2015  04:34:00      -56.024      -11.919        0.098       21.247       15.850       10.763      451.434      251.215      115.837        0.205        0.041       57.278       12.583        0.048      332.249        0.790      872.038
01/25/2015  04:35:00      -58.554      -18.081       -3.029       17.915       20.114        9.638      320.937      404.591       92.894        0.229        0.041       61.282        8.881        0.021      332.319        0.902      872.021
01/25/2015  04:36:00      -67.956      -45.379        2.301       16.998       18.123       10.813      288.927      328.450      116.914        0.371        0.037       81.715        7.363        0.008      332.270        0.823      872.017
01/25/2015  04:37:00      -95.494      -45.088        1.845       21.689       11.557       11.445      470.406      133.571      130.987        0.595        0.037      105.603       10.425        0.010      332.198        0.705      872.018
01/25/2015  04:38:00      -73.005      -36.370        5.377       37.436       25.759       24.620     1401.454      663.542      606.142        0.468        0.134       81.562       19.647        0.058      332.136        0.603      872.019
01/25/2015  04:39:00      -69.842      -43.987        4.209       38.772       26.528       19.151     1503.260      703.728      366.768        0.470        0.129       82.540       12.437        0.023      332.131        0.596      872.010
01/25/2015  04:40:00      -50.742      -38.980        5.816       34.222       28.422       15.618     1171.163      807.815      243.931        0.318        0.111       63.986       13.937        0.047      332.181        0.678      872.007
01/25/2015  04:41:00      -75.172      -54.619       -5.255       39.186       19.562       13.221     1535.558      382.686      174.783        0.538        0.105       92.920       12.441        0.018      332.332        0.925      872.009
01/25/2015  04:42:00      -62.052      -48.191        0.068       31.712       29.605       16.526     1005.622      876.429      273.122        0.416        0.108       78.568       16.402        0.044      332.338        0.935      872.015
01/25/2015  04:43:00      -36.048      -24.408        5.315       22.800       20.140       18.307      519.861      405.617      335.134        0.159        0.063       43.534       10.213        0.055      332.319        0.904      872.020
01/25/2015  04:44:00      -62.097      -39.129        4.842       29.844       17.556       12.821      890.692      308.200      164.368        0.339        0.068       73.396        9.539        0.017      332.311        0.891      872.006
01/25/2015  04:45:00      -62.824      -28.070        2.833       42.759       27.898       18.547     1828.370      778.316      343.983        0.385        0.148       68.810       18.538        0.073      332.323        0.910      871.986
01/25/2015  04:46:00      -81.338      -36.411        1.876       31.150       21.700       16.380      970.320      470.909      268.306        0.483        0.085       89.116       17.542        0.039      332.363        0.975      871.968
01/25/2015  04:47:00      -82.278      -33.388        5.390       34.888       24.206       15.269     1217.194      585.944      233.132        0.497        0.102       88.795       13.041        0.022      332.332        0.924      871.968
01/25/2015  04:48:00      -85.454      -48.114       -4.287       30.581       23.270       19.129      935.203      541.515      365.935        0.574        0.092       98.068       14.804        0.023      332.354        0.962      871.970
01/25/2015  04:49:00      -88.683      -59.539        8.331       42.231       38.017       20.754     1783.463     1445.323      430.716        0.757        0.183      106.816       20.795        0.038      332.457        1.133      871.964
01/25/2015  04:50:00     -105.795      -57.417       -0.220       33.314       24.629       20.352     1109.840      606.567      414.191        0.831        0.107      120.371       17.941        0.022      332.491        1.187      871.950
01/25/2015  04:51:00      -82.040      -20.707       10.516       38.213       31.206       18.889     1460.226      973.798      356.795        0.503        0.140       84.612       20.708        0.060      332.300        0.872      871.933
01/25/2015  04:52:00     -111.241      -12.483        0.119       28.362       21.375       19.154      804.386      456.898      366.878        0.708        0.081      111.939       17.994        0.026      332.124        0.583      871.920
01/25/2015  04:53:00      -58.033      -19.415        9.072       40.431       26.288       19.560     1634.630      691.038      382.578        0.327        0.135       61.195       18.977        0.096      332.103        0.547      871.924
01/25/2015  04:54:00     -101.578      -11.283       -2.522       34.736       27.177       23.404     1206.610      738.603      547.747        0.647        0.125      102.203       21.783        0.045      332.100        0.542      871.920
01/25/2015  04:55:00     -101.562      -26.097       -0.216       32.889       19.215       19.017     1081.662      369.215      361.659        0.640        0.091      104.862       18.296        0.030      332.168        0.655      871.908
01/25/2015  04:56:00      -92.389      -23.886       -0.437       26.856       25.415       16.800      721.265      645.944      282.227        0.538        0.082       95.427       14.524        0.023      332.172        0.662      871.911
01/25/2015  04:57:00      -97.607      -19.911        2.426       33.111       25.014       18.678     1096.335      625.688      348.873        0.600        0.104       99.617       20.024        0.040      332.246        0.785      871.917
01/25/2015  04:58:00      -73.541      -16.658        6.174       39.277       23.325       19.624     1542.663      544.056      385.089        0.410        0.124       75.404       20.295        0.072      332.158        0.639      871.920
01/25/2015  04:59:00     -108.360      -15.975       -2.517       26.044       19.940       15.448      678.296      397.615      238.626        0.666        0.066      109.532       14.378        0.017      332.277        0.836      871.917
01/25/2015  05:00:00      -96.714      -19.927       -3.200       30.759       24.182       17.207      946.140      584.773      296.066        0.579        0.091       98.745       13.676        0.019      332.267        0.818      871.918
01/25/2015  05:01:00      -74.546      -15.486        1.274       33.682       21.459       16.830     1134.497      460.499      283.264        0.384        0.094       76.137       15.870        0.043      332.154        0.633      871.926
01/25/2015  05:02:00     -103.711       -7.941       -6.686       30.251       20.855       14.771      915.115      434.936      218.189        0.622        0.078      104.014       13.895        0.018      332.191        0.694      871.947
01/25/2015  05:03:00     -108.904      -14.168       -7.055       20.461       18.709       12.699      418.651      350.038      161.272        0.652        0.046      109.822       12.873        0.014      332.220        0.742      871.954
01/25/2015  05:04:00      -86.882      -12.074       -3.546       32.546       21.975       17.481     1059.240      482.904      305.603        0.478        0.092       87.717       18.637        0.045      332.204        0.715      871.944
01/25/2015  05:05:00     -112.794       -6.963       -7.415       28.543       16.587       14.638      814.725      275.135      214.258        0.706        0.065      113.009       13.155        0.014      332.263        0.814      871.936
01/25/2015  05:06:00     -118.080      -12.102      -11.449       27.205       18.554       16.065      740.110      344.244      258.089        0.778        0.067      118.699        9.873        0.007      332.219        0.741      871.929
01/25/2015  05:07:00     -120.905      -19.630      -16.490       17.617       15.083       13.953      310.363      227.506      194.683        0.800        0.037      122.488        9.069        0.005      332.193        0.698      871.923
01/25/2015  05:08:00     -127.175      -18.334      -11.526       19.189       15.959       16.051      368.220      254.685      257.628        0.876        0.044      128.490       10.534        0.007      332.119        0.574      871.904
01/25/2015  05:09:00     -131.249      -21.840      -17.598       15.747       18.273       12.026      247.956      333.884      144.613        0.937        0.036      133.053        3.511        0.001      332.083        0.515      871.883
01/25/2015  05:10:00     -121.856       -6.930      -10.011       23.056       14.898       15.710      531.578      221.942      246.810        0.800        0.050      122.053       14.707        0.015      332.097        0.539      871.883
01/25/2015  05:11:00     -143.842       -7.731      -19.361       14.904       12.766       10.829      222.115      162.983      117.263        1.081        0.025      144.050        6.712        0.002      332.155        0.634      871.894
01/25/2015  05:12:00     -130.051       -5.409      -18.940       30.713       15.452       14.510      943.307      238.763      210.538        0.935        0.070      130.164       13.456        0.011      332.154        0.633      871.904
01/25/2015  05:13:00     -140.977       -0.690      -16.831       11.984        9.823       10.823      143.605       96.496      117.147        1.026        0.018      140.978        7.707        0.003      332.192        0.694      871.895
01/25/2015  05:14:00     -131.576        3.470      -18.835       12.186        8.619       10.005      148.487       74.281      100.103        0.900        0.016      131.621        3.056        0.001      332.295        0.864      871.877
01/25/2015  05:15:00     -115.400       -1.634      -18.805       16.579        9.576        9.587      274.863       91.691       91.914        0.707        0.023      115.411        6.782        0.003      332.217        0.737      871.870
01/25/2015  05:16:00      -92.344       -1.412      -13.712       22.573       16.787       12.459      509.534      281.809      155.228        0.483        0.047       92.355       13.246        0.021      332.193        0.698      871.869
01/25/2015  05:17:00      -80.761       -6.055      -15.666       17.374       18.374       10.355      301.854      337.607      107.235        0.378        0.037       80.988        8.248        0.010      332.234        0.765      871.874
01/25/2015  05:18:00      -90.593      -21.468      -10.828        9.356       13.908       13.152       87.532      193.443      172.964        0.462        0.023       93.102        6.049        0.004      332.106        0.552      871.870
01/25/2015  05:19:00      -90.857      -21.664      -12.917       10.305        9.337        9.490      106.185       87.171       90.056        0.459        0.014       93.404        2.730        0.001      332.078        0.508      871.867
01/25/2015  05:20:00      -74.039      -35.296      -14.122       15.315       14.846       10.621      234.536      220.397      112.807        0.375        0.028       82.022        7.735        0.009      332.109        0.557      871.872
01/25/2015  05:21:00      -76.182      -20.621       -9.220       19.827       13.861       10.193      393.117      192.134      103.897        0.350        0.034       78.924        8.137        0.011      332.002        0.381      871.864
01/25/2015  05:22:00      -78.655      -24.965       -7.062       23.161       15.993       12.286      536.418      255.770      150.945        0.390        0.047       82.522        9.069        0.012      332.029        0.426      871.854
01/25/2015  05:23:00      -69.200      -35.824       -3.720       20.139       16.840       12.243      405.571      283.580      149.888        0.346        0.042       77.923        8.440        0.012      332.024        0.418      871.852
01/25/2015  05:24:00      -69.214      -30.879       -3.216       23.618       20.391       16.595      557.803      415.787      275.384        0.350        0.062       75.790       14.263        0.035      332.007        0.390      871.860
01/25/2015  05:25:00      -80.231      -18.645       -9.724       16.151       16.133       11.627      260.860      260.275      135.197        0.377        0.033       82.369        8.972        0.012      332.031        0.429      871.879
01/25/2015  05:26:00      -80.023      -25.822       -8.103       16.208       15.439       11.725      262.687      238.373      137.464        0.389        0.032       84.086        5.354        0.004      332.065        0.487      871.901
01/25/2015  05:27:00     -102.570      -20.228      -10.638       16.212       15.263       13.154      262.835      232.972      173.032        0.586        0.033      104.545        9.767        0.009      331.961        0.313      871.906
01/25/2015  05:28:00      -96.402      -16.580       -5.662       13.544       14.776       11.557      183.427      218.327      133.557        0.507        0.027       97.817        5.520        0.003      331.990        0.360      871.907
01/25/2015  05:29:00     -104.425       -4.938       -8.441       21.077       20.265       14.149      444.225      410.658      200.183        0.603        0.053      104.541       11.584        0.012      331.982        0.347      871.915
01/25/2015  05:30:00     -103.815       -8.381      -14.343       22.043       18.266       16.261      485.874      333.636      264.405        0.607        0.054      104.153       14.383        0.019      331.957        0.306      871.927
01/25/2015  05:31:00     -101.353      -12.355       -4.904       25.842       18.448       14.361      667.816      340.339      206.241        0.583        0.061      102.103       12.900        0.016      331.904        0.221      871.934
01/25/2015  05:32:00      -87.957      -11.277       -4.629       23.586       17.162       13.935      556.314      294.543      194.192        0.446        0.052       88.677       11.409        0.017      331.949        0.293      871.936
01/25/2015  05:33:00      -79.632       -6.803       -1.929       23.125       15.756       13.159      534.748      248.267      173.160        0.367        0.048       79.922       12.310        0.024      332.025        0.419      871.927
01/25/2015  05:34:00      -71.949      -15.278       -0.561       30.789       20.614       17.433      947.963      424.939      303.919        0.354        0.084       73.553       17.609        0.057      331.992        0.366      871.912
01/25/2015  05:35:00      -98.050      -32.997       -4.288       18.056       17.485       12.927      326.018      305.742      167.095        0.576        0.040      103.453        9.855        0.009      332.059        0.474      871.902
01/25/2015  05:36:00     -102.856      -27.218       -7.361       15.700       14.337       12.945      246.481      205.554      167.569        0.600        0.031      106.397        7.926        0.006      332.053        0.466      871.905
01/25/2015  05:37:00      -87.630      -56.548       -4.824       25.295       32.289       21.268      639.823     1042.567      452.348        0.652        0.107      104.292       18.131        0.030      332.096        0.537      871.919
01/25/2015  05:38:00      -99.133      -59.909       -4.247       25.466       28.666       14.708      648.513      821.767      216.338        0.756        0.084      115.829       13.035        0.013      332.108        0.556      871.928
01/25/2015  05:39:00      -97.979      -41.259       -2.627       25.594       18.701       13.504      655.055      349.713      182.362        0.625        0.059      106.312        9.785        0.008      332.111        0.560      871.934
01/25/2015  05:40:00      -71.147      -38.901       -5.209       23.528       16.211       13.392      553.580      262.788      179.339        0.380        0.050       81.087       12.370        0.023      332.049        0.459      871.958
01/25/2015  05:41:00      -77.863      -46.588       -3.970       19.807       17.299       13.671      392.299      299.260      186.891        0.456        0.044       90.736       13.505        0.022      332.084        0.516      871.977
01/25/2015  05:42:00      -37.124      -34.120        4.135       31.296       17.206       14.469      979.446      296.062      209.343        0.202        0.074       50.422       15.351        0.093      332.082        0.514      871.973
01/25/2015  05:43:00      -86.812      -39.901       -5.964       21.057       13.519       11.482      443.378      182.771      131.845        0.496        0.038       95.542       11.239        0.014      331.992        0.363      871.958
01/25/2015  05:44:00     -107.765      -33.772       -5.381       20.690       18.674       11.558      428.064      348.704      133.597        0.685        0.046      112.933        6.680        0.003      331.995        0.370      871.935
01/25/2015  05:45:00     -108.097      -26.871       -2.640       18.364       20.013       14.570      337.224      400.515      212.279        0.668        0.048      111.387       10.534        0.009      332.013        0.400      871.927
01/25/2015  05:46:00     -103.959      -36.048        0.596       27.196       17.417       16.187      739.638      303.360      262.025        0.671        0.065      110.032       17.140        0.024      331.997        0.374      871.930
01/25/2015  05:47:00     -118.188      -24.464       -9.293       13.404       14.328        9.601      179.669      205.289       92.184        0.757        0.024      120.694        7.342        0.004      331.956        0.305      871.952
01/25/2015  05:48:00     -122.169      -19.468      -12.774       12.778       13.302       13.465      163.287      176.942      181.318        0.799        0.026      123.710        8.728        0.005      331.912        0.232      871.979
01/25/2015  05:49:00     -121.596      -14.751      -11.158       23.181       15.185       14.687      537.347      230.594      215.694        0.806        0.049      122.488       14.213        0.013      331.863        0.153      872.007
01/25/2015  05:50:00     -101.876      -16.892       -6.253       15.175       13.969       11.525      230.289      195.140      132.819        0.563        0.028      103.267        7.808        0.006      331.843        0.120      872.037
01/25/2015  05:51:00      -75.227      -23.135       -8.290       12.817       14.237        9.392      164.273      202.694       88.205        0.336        0.023       78.704        4.405        0.003      331.868        0.161      872.055
01/25/2015  05:52:00      -42.782      -21.925       -6.821       16.488       11.986        9.396      271.847      143.673       88.281        0.143        0.025       48.073        5.008        0.011      331.834        0.104      872.060
01/25/2015  05:53:00      -42.677      -20.422       -4.849       14.391       11.126       10.988      207.088      123.780      120.739        0.136        0.023       47.312        5.190        0.012      331.865        0.155      872.067
01/25/2015  05:54:00      -44.670      -15.405       -5.450       13.772       10.289        9.568      189.668      105.854       91.552        0.132        0.019       47.252        5.269        0.012      331.974        0.334      872.074
01/25/2015  05:55:00      -28.250       -7.091       -7.333       11.767        9.206        5.466      138.474       84.753       29.877        0.058        0.013       29.126        4.744        0.027      331.940        0.279      872.080
01/25/2015  05:56:00      -23.922        0.597       -2.097       11.258        9.248        6.634      126.738       85.522       44.008        0.042        0.013       23.929        2.997        0.016      331.955        0.306      872.085
01/25/2015  05:57:00      -11.269       78.139      -10.367       16.264       21.903        9.769      264.504      479.749       95.436        0.359        0.042       78.948        4.782        0.004      332.407        1.047      872.086
01/25/2015  05:58:00       -7.460       87.080       -7.421        7.129        9.758        4.659       50.829       95.218       21.711        0.393        0.008       87.399        3.414        0.002      332.515        1.227      872.104
01/25/2015  05:59:00       -3.247       98.238       -9.357        6.951       16.278        4.999       48.313      264.960       24.990        0.504        0.017       98.291        3.926        0.002      332.486        1.179      872.128
01/25/2015  06:00:00        9.672      110.473      -13.174        6.417       11.857        4.817       41.181      140.578       23.199        0.634        0.010      110.895        3.268        0.001      332.408        1.050      872.135
01/25/2015  06:01:00        3.503      114.608      -14.704       10.082       15.261        7.730      101.653      232.894       59.755        0.688        0.020      114.661        6.484        0.003      332.401        1.040      872.136
01/25/2015  06:02:00      -11.613      119.912      -14.934       13.366       12.244        5.454      178.654      149.925       29.741        0.755        0.018      120.473        3.785        0.001      332.471        1.155      872.131
01/25/2015  06:03:00      -16.813      107.765       -9.638       10.747       18.145        9.898      115.508      329.258       97.975        0.627        0.027      109.068       12.250        0.013      332.612        1.389      872.126
01/25/2015  06:04:00      -17.589       97.013       -8.803       12.970       19.826       10.982      168.221      393.090      120.605        0.524        0.034       98.594       11.108        0.013      332.614        1.391      872.117
01/25/2015  06:05:00      -17.986       95.341       -9.371       16.745       25.255       14.070      280.401      637.800      197.958        0.531        0.056       97.022       13.582        0.020      332.638        1.429      872.104
01/25/2015  06:06:00      -21.044      101.553      -12.343       12.231       15.244       11.677      149.591      232.378      136.363        0.571        0.026      103.710       11.694        0.013      332.673        1.489      872.097
01/25/2015  06:07:00      -11.216       95.500      -11.345       16.015       12.779        8.299      256.484      163.293       68.865        0.493        0.024       96.156        6.758        0.005      332.679        1.499      872.095
01/25/2015  06:08:00       -1.641       87.291      -11.325       10.363       12.138        6.959      107.387      147.325       48.433        0.403        0.015       87.306        6.119        0.005      332.651        1.452      872.089
01/25/2015  06:09:00        9.112       83.540      -13.948       11.378        8.211        6.060      129.470       67.426       36.720        0.375        0.012       84.035        5.448        0.004      332.614        1.394      872.082
01/25/2015  06:10:00       -2.673       72.540      -10.940       11.006       13.130        9.339      121.127      172.393       87.216        0.288        0.019       72.590        9.338        0.017      332.621        1.404      872.078
01/25/2015  06:11:00       -7.433       67.775      -10.375       10.560        9.080        6.139      111.507       82.446       37.689        0.249        0.012       68.182        4.803        0.005      332.611        1.386      872.065
01/25/2015  06:12:00      -27.508       24.889       -2.875       18.007       26.564       11.812      324.241      705.625      139.530        0.128        0.058       37.096        8.203        0.049      332.342        0.943      872.062
01/25/2015  06:13:00      -34.246      -14.906       -7.170       17.591       10.723        9.702      309.430      114.993       94.124        0.098        0.026       37.350        7.190        0.037      332.048        0.458      872.064
01/25/2015  06:14:00      -46.720      -22.026       -9.615       13.442       10.769        8.250      180.698      115.979       68.066        0.156        0.018       51.652        6.433        0.016      331.909        0.227      872.081
01/25/2015  06:15:00      -59.212      -31.064      -13.442       14.782       13.456       10.065      218.511      181.066      101.300        0.258        0.025       66.865        7.468        0.012      331.882        0.184      872.086
01/25/2015  06:16:00      -58.787      -19.624       -8.404       14.621       17.472        9.667      213.777      305.288       93.456        0.226        0.031       61.976        6.922        0.012      331.828        0.095      872.091
01/25/2015  06:17:00      -70.789      -10.368       -6.354       15.309       14.715       15.881      234.352      216.527      252.195        0.293        0.035       71.544       11.747        0.027      331.915        0.238      872.082
01/25/2015  06:18:00      -67.397      -27.958       -7.830       14.420       18.185       10.710      207.945      330.707      114.713        0.302        0.033       72.966        6.006        0.007      331.892        0.200      872.065
01/25/2015  06:19:00      -89.554      -21.652      -15.313       10.406        9.231        7.889      108.289       85.206       62.243        0.449        0.013       92.134        3.817        0.002      331.954        0.302      872.055
01/25/2015  06:20:00      -71.400      -39.916       -6.795       10.213       11.769        5.987      104.301      138.519       35.848        0.351        0.014       81.800        6.135        0.006      331.979        0.343      872.058
01/25/2015  06:21:00      -58.439      -38.216       -2.066       20.249       17.376       10.960      410.035      301.912      120.127        0.286        0.042       69.826        7.946        0.013      331.966        0.322      872.060
01/25/2015  06:22:00      -66.427      -50.218       -6.903       22.591       16.877        9.725      510.340      284.833       94.566        0.394        0.044       83.273        5.741        0.005      332.001        0.380      872.070
01/25/2015  06:23:00      -81.501      -27.784       -9.005       17.046       22.135       15.454      290.551      489.948      238.815        0.426        0.051       86.107        6.438        0.006      332.155        0.634      872.078
01/25/2015  06:24:00      -76.772      -30.321       -1.772       12.314       10.432        7.120      151.631      108.828       50.701        0.356        0.016       82.543        2.171        0.001      332.034        0.434      872.080
01/25/2015  06:25:00      -71.214      -42.644       -0.197       22.010       20.358       14.864      484.459      414.433      220.924        0.400        0.056       83.006        9.697        0.014      332.012        0.397      872.079
01/25/2015  06:26:00      -87.811      -53.746        1.438       39.407       24.442       17.165     1552.908      597.412      294.634        0.652        0.122      102.954       20.570        0.040      331.988        0.359      872.071
01/25/2015  06:27:00      -70.810      -45.979        0.856       33.236       25.285       17.809     1104.647      639.326      317.177        0.459        0.103       84.428       11.975        0.020      331.876        0.174      872.072
01/25/2015  06:28:00     -100.096      -63.816       -1.492       26.626       27.281       15.202      708.955      744.270      231.112        0.789        0.084      118.709       12.255        0.011      331.857        0.143      872.082
01/25/2015  06:29:00      -98.958      -66.381        0.036       44.930       36.949       23.563     2018.673     1365.200      555.232        0.907        0.197      119.160       18.215        0.023      331.908        0.226      872.088
01/25/2015  06:30:00     -137.966      -95.792       -6.361       34.181       35.640       27.879     1168.339     1270.241      777.230        1.573        0.161      167.960       22.296        0.018      331.977        0.340      872.079
01/25/2015  06:31:00     -102.262      -79.302       -7.148       52.557       36.753       29.559     2762.231     1350.769      873.754        1.089        0.249      129.408       28.609        0.049      331.986        0.355      872.066
01/25/2015  06:32:00      -98.401      -89.627       -7.181       39.044       34.744       22.300     1524.436     1207.131      497.294        1.050        0.161      133.101       18.810        0.020      332.015        0.401      872.053
01/25/2015  06:33:00     -101.600      -77.040       -3.345       32.506       29.893       25.966     1056.632      893.606      674.215        0.945        0.131      127.505       18.588        0.021      331.996        0.371      872.044
01/25/2015  06:34:00      -83.815      -47.698       -3.301       38.146       27.987       16.426     1455.116      783.272      269.815        0.591        0.125       96.437       13.284        0.019      332.006        0.387      872.037
01/25/2015  06:35:00     -100.987      -50.100       -0.873       37.908       25.024       19.565     1437.003      626.190      382.792        0.758        0.122      112.731       20.102        0.032      331.971        0.330      872.017
01/25/2015  06:36:00      -74.013      -39.685        3.020       41.166       27.661       23.856     1694.614      765.147      569.093        0.504        0.151       83.981       24.448        0.085      331.864        0.154      872.010
01/25/2015  06:37:00      -70.442      -15.493        1.373       32.545       22.285       16.210     1059.192      496.623      262.769        0.351        0.091       72.126       16.034        0.049      331.873        0.169      872.016
01/25/2015  06:38:00      -82.663      -36.749       -1.662       28.977       25.211       15.568      839.686      635.576      242.357        0.495        0.086       90.464       14.543        0.026      331.959        0.310      872.025
01/25/2015  06:39:00      -84.855      -42.979       -1.994       26.312       23.958       16.116      692.296      573.983      259.722        0.529        0.076       95.118       14.110        0.022      331.980        0.345      872.019
01/25/2015  06:40:00      -74.731      -43.916        1.405       26.971       20.118       15.676      727.423      404.750      245.727        0.445        0.069       86.680       12.680        0.021      331.971        0.330      872.005
01/25/2015  06:41:00      -59.531      -26.009        7.259       25.202       14.894       15.880      635.116      221.841      252.185        0.269        0.055       64.965       13.641        0.044      331.904        0.220      871.999
01/25/2015  06:42:00      -74.248      -30.445        2.144       24.982       15.372       16.359      624.090      236.312      267.627        0.379        0.056       80.247       15.833        0.039      331.917        0.240      871.976
01/25/2015  06:43:00      -70.713      -45.537        1.333       28.301       20.228       16.727      800.921      409.176      279.796        0.428        0.074       84.107       15.534        0.034      331.944        0.285      871.951
01/25/2015  06:44:00      -74.905      -48.790       -0.448       33.412       19.783       19.303     1116.369      391.369      372.621        0.494        0.094       89.394       16.899        0.036      331.901        0.215      871.931
01/25/2015  06:45:00      -96.121      -49.685        2.820       30.832       19.729       16.785      950.585      389.247      281.729        0.667        0.081      108.203       16.148        0.022      331.909        0.228      871.929
01/25/2015  06:46:00      -95.853      -56.993       -1.443       22.454       20.849       12.194      504.182      434.664      148.690        0.676        0.054      111.517        9.809        0.008      331.911        0.231      871.945
01/25/2015  06:47:00      -94.137      -44.214       -1.037       21.074       20.745       15.545      444.126      430.344      241.643        0.597        0.056      104.003        8.368        0.006      331.886        0.189      871.962
01/25/2015  06:48:00      -79.061      -41.212        3.947       32.176       16.461       14.251     1035.277      270.956      203.085        0.474        0.075       89.157       12.183        0.019      331.962        0.316      871.977
01/25/2015  06:49:00      -84.505      -40.066       -0.904       17.648       14.507       10.918      311.468      210.449      119.200        0.469        0.032       93.522        7.378        0.006      331.935        0.270      871.985
01/25/2015  06:50:00      -88.237      -16.414       -1.818       28.011       21.462       13.300      784.628      460.617      176.878        0.474        0.071       89.751       13.427        0.022      331.936        0.272      871.985
01/25/2015  06:51:00      -77.413       -8.727        1.551       32.963       20.343       12.563     1086.529      413.845      157.826        0.386        0.083       77.903       14.837        0.036      331.891        0.200      871.976
01/25/2015  06:52:00      -58.326      -10.035       -1.047       27.927       15.505       11.992      779.941      240.416      143.802        0.233        0.058       59.182       13.191        0.050      331.841        0.116      871.983
01/25/2015  06:53:00      -37.587       -3.696        1.405       18.221       14.550       13.870      331.988      211.699      192.388        0.108        0.037       37.768       11.937        0.100      331.841        0.116      871.985
01/25/2015  06:54:00      -46.020      -22.157        0.706       16.731       14.270       12.753      279.918      203.640      162.639        0.163        0.032       51.077       10.694        0.044      331.875        0.173      871.975
01/25/2015  06:55:00      -48.891      -25.288      -10.578       15.669       15.571       10.355      245.526      242.442      107.232        0.187        0.030       55.043        8.218        0.022      331.834        0.105      871.974
01/25/2015  06:56:00      -54.066      -12.980      -12.765       17.029       14.183       11.680      289.992      201.161      136.421        0.194        0.031       55.602        6.673        0.014      331.763       -0.013      871.972
01/25/2015  06:57:00      -78.589      -27.225       -8.339       25.216       15.656       10.346      635.824      245.104      107.050        0.399        0.049       83.171        5.521        0.004      331.773        0.004      871.969
01/25/2015  06:58:00      -66.219       -7.744      -12.418       23.559       19.804       15.258      555.027      392.217      232.808        0.289        0.059       66.670       13.518        0.041      331.744       -0.043      871.963
01/25/2015  06:59:00      -26.070       -1.208       -0.755       19.348       20.658       14.368      374.358      426.734      206.437        0.084        0.050       26.098       10.047        0.148      331.760       -0.017      871.959
01/25/2015  07:00:00      -45.336      -13.258       -4.193       26.350       23.884       13.224      694.306      570.454      174.883        0.184        0.072       47.235        9.356        0.039      331.780        0.015      871.960
01/25/2015  07:01:00      -76.184      -34.220       -4.781       19.707       16.742       13.930      388.374      280.292      194.037        0.393        0.043       83.517        7.983        0.009      331.712       -0.095      871.960
01/25/2015  07:02:00      -91.275      -27.448      -11.637       24.423       18.672       12.388      596.484      348.631      153.459        0.516        0.055       95.313       10.880        0.013      331.630       -0.230      871.962
01/25/2015  07:03:00      -84.080      -16.780      -13.612       21.610       28.770       13.606      467.006      827.728      185.132        0.451        0.074       85.738       12.898        0.023      331.580       -0.313      871.958
01/25/2015  07:04:00      -71.547      -13.139       -1.068       32.796       25.876       17.914     1075.561      669.553      320.922        0.368        0.103       72.743       15.491        0.045      331.566       -0.337      871.949
01/25/2015  07:05:00      -46.108       -1.859        1.296       40.765       22.871       18.628     1661.795      523.079      346.988        0.233        0.127       46.145       20.431        0.196      331.661       -0.177      871.934
01/25/2015  07:06:00      -23.977       -9.810       -0.273       32.961       25.331       16.002     1086.422      641.659      256.070        0.133        0.099       25.906       12.453        0.231      331.669       -0.165      871.918
01/25/2015  07:07:00      -42.041      -25.321       -3.569       21.621       23.031       12.623      467.468      530.433      159.340        0.179        0.058       49.078       11.074        0.051      331.644       -0.208      871.905
01/25/2015  07:08:00      -64.339      -17.971       -2.253       38.503       23.237       20.658     1482.483      539.949      426.750        0.346        0.122       66.802       23.894        0.128      331.537       -0.385      871.900
01/25/2015  07:09:00     -103.552      -34.335      -17.334       35.879       22.296       17.995     1287.318      497.103      323.811        0.715        0.105      109.096       10.976        0.010      331.492       -0.458      871.888
01/25/2015  07:10:00      -92.651      -21.531      -12.275       29.142       21.429       13.390      849.269      459.186      179.296        0.534        0.074       95.120       11.225        0.014      331.455       -0.520      871.882
01/25/2015  07:11:00      -68.833       -9.410       -7.290       19.287       26.078       12.117      372.004      680.066      146.831        0.304        0.060       69.473       10.197        0.022      331.503       -0.442      871.882
01/25/2015  07:12:00      -60.642       -2.601       -7.075       22.666       19.634       13.824      513.752      385.511      191.111        0.241        0.055       60.698        9.957        0.027      331.560       -0.347      871.888
01/25/2015  07:13:00      -84.245      -20.964      -13.806       20.375       12.477       13.129      415.124      155.678      172.376        0.424        0.037       86.814       10.737        0.015      331.499       -0.448      871.892
01/25/2015  07:14:00     -104.464      -15.431      -22.306       25.236       15.636       12.651      636.874      244.472      160.041        0.634        0.052      105.597        3.459        0.001      331.488       -0.465      871.898
01/25/2015  07:15:00      -64.194      -28.730      -14.502       43.323       20.304       19.102     1876.868      412.272      364.872        0.390        0.133       70.330       12.964        0.034      331.530       -0.396      871.898
01/25/2015  07:16:00     -119.586      -34.457      -14.951       12.490       17.260        8.949      156.007      297.894       80.092        0.812        0.027      124.451        5.320        0.002      331.468       -0.499      871.898
01/25/2015  07:17:00     -125.647      -41.618      -15.601       12.776       13.784       11.716      163.225      189.999      137.261        0.913        0.025      132.360        6.722        0.003      331.459       -0.513      871.895
01/25/2015  07:18:00      -94.316      -23.783       -6.194       21.375       22.806       16.519      456.892      520.121      272.880        0.537        0.062       97.268       13.703        0.020      331.536       -0.385      871.891
01/25/2015  07:19:00     -102.823      -33.188      -18.981       30.276       21.445       12.087      916.658      459.902      146.104        0.678        0.076      108.046        9.109        0.007      331.578       -0.316      871.876
01/25/2015  07:20:00     -115.775      -34.775      -11.566       17.799       20.834       12.967      316.790      434.070      168.136        0.783        0.046      120.884        9.623        0.006      331.599       -0.283      871.868
01/25/2015  07:21:00      -75.833      -48.723      -11.795       31.994       22.034       18.937     1023.639      485.489      358.607        0.507        0.093       90.137       18.143        0.041      331.614       -0.257      871.865
01/25/2015  07:22:00      -98.017      -36.187       -8.099       25.025       18.502       12.517      626.272      342.334      156.682        0.605        0.056      104.484        8.060        0.006      331.635       -0.221      871.875
01/25/2015  07:23:00     -113.749      -56.331      -13.632       20.348       21.348       12.551      414.045      455.730      157.519        0.866        0.051      126.933        9.011        0.005      331.642       -0.211      871.878
01/25/2015  07:24:00     -105.567      -38.143      -12.700       21.035       17.639       11.438      442.476      311.119      130.820        0.682        0.044      112.246       10.225        0.008      331.682       -0.144      871.882
01/25/2015  07:25:00     -109.398      -49.856       -9.879       17.614       13.715       10.809      310.263      188.114      116.840        0.758        0.031      120.223        7.207        0.004      331.695       -0.123      871.881
01/25/2015  07:26:00     -121.793      -49.990      -12.702       18.309       19.577       17.984      335.220      383.277      323.418        0.927        0.052      131.653       15.253        0.013      331.648       -0.200      871.881
01/25/2015  07:27:00     -110.059      -55.690      -12.465       21.760       16.421       13.982      473.478      269.639      195.507        0.815        0.047      123.347       11.416        0.009      331.718       -0.084      871.889
01/25/2015  07:28:00     -113.761      -38.267       -9.814       14.249       16.768        9.854      203.029      281.170       97.110        0.754        0.029      120.025        4.486        0.001      331.725       -0.072      871.891
01/25/2015  07:29:00      -99.182      -56.065       -9.419       25.761       21.009       12.819      663.644      441.372      164.324        0.717        0.063      113.931        7.730        0.005      331.840        0.115      871.893
01/25/2015  07:30:00      -83.196      -52.773      -10.008       18.018       19.783       12.278      324.631      391.369      150.744        0.534        0.043       98.522        8.383        0.007      331.780        0.017      871.900
01/25/2015  07:31:00      -84.283      -33.766       -8.042       12.848       15.213       10.194      165.072      231.424      103.925        0.440        0.025       90.795        5.255        0.003      331.802        0.051      871.901
01/25/2015  07:32:00      -96.836      -30.502      -12.280       12.863       18.820        9.762      165.445      354.186       95.303        0.554        0.031      101.526        5.539        0.003      331.780        0.016      871.886
01/25/2015  07:33:00      -95.375      -47.717      -14.556       16.088       17.758       12.673      258.813      315.353      160.609        0.616        0.037      106.646        6.871        0.004      331.771       -0.001      871.875
01/25/2015  07:34:00      -80.821      -31.195       -7.538       26.751       20.190       14.966      715.626      407.651      223.995        0.445        0.067       86.632        6.427        0.006      331.738       -0.054      871.870
01/25/2015  07:35:00     -104.730      -37.058       -3.842       32.170       25.006       15.434     1034.932      625.318      238.222        0.713        0.095      111.093       16.329        0.022      331.733       -0.060      871.874
01/25/2015  07:36:00     -133.587      -40.512       -4.587       21.746       19.419       13.946      472.882      377.098      194.504        1.028        0.052      139.595       10.008        0.005      331.697       -0.118      871.870
01/25/2015  07:37:00      -90.314      -32.632      -11.754       19.779       19.418       15.091      391.196      377.068      227.734        0.518        0.050       96.029        9.726        0.010      331.797        0.043      871.864
01/25/2015  07:38:00      -94.635      -32.421       -9.125       12.842       13.184       10.673      164.924      173.831      113.904        0.527        0.023      100.035        9.354        0.009      331.718       -0.086      871.877
01/25/2015  07:39:00      -80.421      -25.620      -13.754       17.521       17.796       10.643      306.976      316.699      113.279        0.402        0.037       84.403        4.070        0.002      331.771        0.001      871.886
01/25/2015  07:40:00      -83.399      -17.900      -10.045       11.757       13.177        9.464      138.234      173.627       89.559        0.389        0.020       85.298        5.228        0.004      331.764       -0.011      871.893
01/25/2015  07:41:00      -93.804      -12.504       -9.233       19.573       18.580       15.402      383.104      345.203      237.213        0.500        0.048       94.634       11.084        0.014      331.704       -0.108      871.892
01/25/2015  07:42:00     -122.596       -9.816      -10.404       22.159       19.705       17.281      491.014      388.290      298.626        0.821        0.059      122.988       12.089        0.010      331.813        0.071      871.920
01/25/2015  07:43:00     -101.285      -12.471       -2.613       32.769       29.087       19.233     1073.823      846.025      369.904        0.635        0.114      102.049       20.226        0.039      331.801        0.051      871.936
01/25/2015  07:44:00     -105.988      -10.497      -14.200       22.190       19.707       17.607      492.415      388.381      309.990        0.637        0.060      106.506       10.044        0.009      331.812        0.068      871.932
01/25/2015  07:45:00      -95.618       -3.704       -6.681       22.031       20.901       15.952      485.366      436.865      254.466        0.519        0.059       95.689        5.287        0.003      331.802        0.052      871.939
01/25/2015  07:46:00      -96.346       -4.473      -10.191       19.154       25.616       16.993      366.866      656.158      288.773        0.536        0.066       96.450       12.413        0.017      331.828        0.094      871.936
01/25/2015  07:47:00      -67.307      -20.131       -4.360       17.988       14.087       15.747      323.573      198.454      247.968        0.286        0.038       70.253       12.938        0.034      331.889        0.197      871.940
01/25/2015  07:48:00      -64.841      -20.462       -4.030       20.029       16.067       13.073      401.146      258.149      170.912        0.273        0.042       67.993       10.802        0.025      331.942        0.282      871.923
01/25/2015  07:49:00      -49.773      -18.305        6.147       14.921       13.453       13.224      222.646      180.981      174.880        0.171        0.029       53.032       11.620        0.048      332.021        0.413      871.910
01/25/2015  07:50:00      -81.370       -4.064       -7.033       18.267       17.178       15.766      333.679      295.085      248.576        0.378        0.044       81.472       12.314        0.023      332.027        0.423      871.889
01/25/2015  07:51:00      -85.577       -1.118      -12.162       18.704       15.802        9.925      349.840      249.702       98.511        0.409        0.035       85.584        7.492        0.008      332.044        0.452      871.888
01/25/2015  07:52:00      -82.044       -5.110      -12.191       14.814       15.985       10.422      219.464      255.536      108.612        0.374        0.029       82.203        4.860        0.003      332.071        0.497      871.887
01/25/2015  07:53:00      -69.153      -15.457       -6.746       18.348       12.711        9.424      336.664      161.573       88.814        0.283        0.029       70.860        4.923        0.005      332.075        0.503      871.895
01/25/2015  07:54:00      -42.760      -12.843       -5.971       11.673        9.984        9.072      136.253       99.677       82.296        0.117        0.016       44.647        5.056        0.013      332.136        0.602      871.897
01/25/2015  07:55:00      -37.609      -21.174       -7.034       12.338        8.280        8.678      152.216       68.556       75.307        0.110        0.015       43.160        5.468        0.016      332.165        0.651      871.884
01/25/2015  07:56:00      -46.594      -20.547       -7.707       19.866        8.739       12.848      394.665       76.369      165.060        0.164        0.032       50.923        4.323        0.007      332.143        0.613      871.865
01/25/2015  07:57:00      -74.794       -6.070      -10.625       17.114       10.018        9.358      292.904      100.370       87.577        0.311        0.024       75.040        3.800        0.003      332.085        0.519      871.842
01/25/2015  07:58:00      -54.284       -8.193      -11.797       12.977        7.159        7.512      168.406       51.246       56.429        0.171        0.014       54.899        3.268        0.004      332.159        0.641      871.822
01/25/2015  07:59:00      -38.972      -13.753       -8.202        6.926        7.939        5.991       47.966       63.034       35.893        0.096        0.007       41.327        4.788        0.013      332.270        0.822      871.812
01/25/2015  08:00:00      -24.372      -15.698       -2.861       19.317       14.963        8.403      373.163      223.895       70.609        0.076        0.033       28.991        6.168        0.045      332.385        1.013      871.808
01/25/2015  08:01:00      -34.126       -3.890       -1.910       18.503        7.237        7.154      342.364       52.373       51.186        0.081        0.022       34.347        9.645        0.079      332.336        0.932      871.815
01/25/2015  08:02:00      -47.525       -4.938       -7.958        9.403        8.611        9.474       88.419       74.152       89.759        0.130        0.013       47.781        3.135        0.004      332.302        0.875      871.791
01/25/2015  08:03:00      -57.206      -18.000       -8.834       14.828       13.274        7.427      219.875      176.189       55.156        0.206        0.023       59.971        4.502        0.006      332.305        0.880      871.781
01/25/2015  08:04:00      -58.090      -17.320       -7.787       10.983       10.289        8.141      120.619      105.864       66.271        0.201        0.015       60.617        6.247        0.011      332.309        0.888      871.766
01/25/2015  08:05:00      -50.463      -17.229       -5.830       11.839       14.005        8.530      140.172      196.153       72.761        0.164        0.020       53.323        6.706        0.016      332.344        0.945      871.760
01/25/2015  08:06:00      -46.181      -14.941       -7.084        5.923        7.811        5.184       35.081       61.010       26.869        0.126        0.006       48.538        1.894        0.002      332.527        1.246      871.763
01/25/2015  08:07:00      -39.109       -4.909       -5.122        5.031        6.885        4.855       25.314       47.407       23.572        0.084        0.005       39.416        2.898        0.005      332.555        1.293      871.758
01/25/2015  08:08:00      -36.809        5.215       -5.676        6.536        5.518        6.551       42.722       30.453       42.910        0.077        0.006       37.176        3.264        0.008      332.599        1.367      871.754
01/25/2015  08:09:00      -35.624        3.666       -6.940        5.590        7.234        6.137       31.252       52.331       37.662        0.073        0.006       35.812        4.659        0.017      332.695        1.526      871.745
01/25/2015  08:10:00      -23.263        0.706      -12.181        8.853        4.194        5.382       78.382       17.589       28.966        0.041        0.006       23.274        5.492        0.056      332.773        1.654      871.735
01/25/2015  08:11:00       -4.048       13.539        5.460       11.217       16.004       10.335      125.814      256.127      106.810        0.036        0.024       14.132        7.821        0.306      333.176        2.320      871.725
01/25/2015  08:12:00       33.577       29.887        2.897       25.435       17.912       14.298      646.931      320.827      204.427        0.160        0.059       44.951        9.738        0.047      333.230        2.408      871.740
01/25/2015  08:13:00       43.065       30.028        8.022       13.342       12.259       16.501      178.022      150.287      272.273        0.171        0.030       52.500        9.880        0.035      333.184        2.332      871.756
01/25/2015  08:14:00       27.346       22.822        8.268       15.527       14.798       15.939      241.094      218.977      254.060        0.103        0.036       35.618        5.871        0.027      333.219        2.391      871.753
01/25/2015  08:15:00       57.040       16.246        0.920       13.818       11.623       14.820      190.929      135.092      219.642        0.203        0.027       59.308        4.332        0.005      333.162        2.294      871.752
01/25/2015  08:16:00       63.413       39.921        6.682       11.769       13.224       15.050      138.500      174.868      226.509        0.310        0.027       74.933        7.912        0.011      333.129        2.241      871.746
01/25/2015  08:17:00       73.795       50.234       -5.376       12.211       13.817       13.381      149.107      190.900      179.041        0.426        0.026       89.270        9.225        0.011      333.081        2.163      871.753
01/25/2015  08:18:00       61.347       40.869        8.204       22.325       18.610       18.985      498.399      346.338      360.427        0.335        0.060       73.714       14.354        0.038      333.267        2.468      871.754
01/25/2015  08:19:00       72.917       76.112       20.679       21.353       17.638       22.239      455.939      311.092      494.580        0.640        0.063      105.404        8.138        0.006      333.227        2.404      871.758
01/25/2015  08:20:00       51.227       56.487       16.963       34.592       27.006       22.854     1196.597      729.329      522.297        0.428        0.122       76.256       16.827        0.049      333.309        2.538      871.766
01/25/2015  08:21:00       46.863       39.586       14.240       37.580       33.620       28.416     1412.268     1130.273      807.449        0.366        0.167       61.345       16.722        0.074      333.429        2.738      871.770
01/25/2015  08:22:00       71.677       39.910        7.354       20.934       20.301       21.027      438.228      412.121      442.117        0.404        0.065       82.039       14.548        0.031      333.270        2.475      871.764
01/25/2015  08:23:00       37.322       43.377       33.262       41.100       19.996       26.195     1689.235      399.849      686.169        0.358        0.139       57.223       27.079        0.224      333.445        2.763      871.758
01/25/2015  08:24:00       26.538       33.638       22.112       34.285       23.204       25.269     1175.473      538.406      638.543        0.234        0.118       42.846       19.394        0.205      333.593        3.009      871.753
01/25/2015  08:25:00       20.550       20.990       32.502       26.822       36.161       29.978      719.414     1307.642      898.685        0.242        0.146       29.375       29.633        1.018      333.605        3.029      871.755
01/25/2015  08:26:00       29.712       59.827       53.057       35.193       22.607       25.111     1238.517      511.061      630.548        0.483        0.119       66.799       19.366        0.084      333.441        2.758      871.760
01/25/2015  08:27:00       26.903       59.215       70.414       37.675       41.813       27.993     1419.420     1748.332      783.611        0.657        0.198       65.040       28.667        0.194      333.425        2.731      871.773
01/25/2015  08:28:00       81.863       78.147       67.660       42.552       23.961       22.074     1810.667      574.108      487.245        1.013        0.144      113.174       22.358        0.039      333.171        2.310      871.787
01/25/2015  08:29:00       74.591       87.957       53.157       48.786       26.438       32.244     2380.110      698.965     1039.656        1.012        0.206      115.326       27.592        0.057      333.150        2.277      871.786
01/25/2015  08:30:00      110.652       64.046       49.203       39.835       24.417       33.941     1586.837      596.186     1151.997        1.105        0.167      127.850       19.528        0.023      333.158        2.289      871.793
01/25/2015  08:31:00       97.879       60.883       36.142       43.076       36.483       28.899     1855.566     1330.988      835.166        0.931        0.201      115.270       21.371        0.034      333.178        2.323      871.799
01/25/2015  08:32:00        8.959       51.673       66.867       26.840       31.216       21.211      720.402      974.468      449.920        0.468        0.107       52.444       19.579        0.139      333.532        2.908      871.813
01/25/2015  08:33:00       40.808       75.022       61.582       36.508       33.544       25.535     1332.809     1125.185      652.039        0.710        0.156       85.403       22.777        0.071      333.276        2.483      871.820
01/25/2015  08:34:00       82.125       62.301       51.918       35.053       36.033       28.782     1228.697     1298.346      828.423        0.834        0.168      103.082       19.763        0.037      333.168        2.306      871.826
01/25/2015  08:35:00       63.618       52.209       60.268       32.858       27.783       30.250     1079.631      771.900      915.071        0.659        0.138       82.299       24.239        0.087      333.277        2.486      871.838
01/25/2015  08:36:00       43.317       45.308       50.533       27.524       25.201       22.404      757.550      635.106      501.957        0.419        0.095       62.684       19.637        0.098      333.326        2.568      871.838
01/25/2015  08:37:00       36.857       53.327       52.616       39.391       27.719       27.672     1551.668      768.361      765.723        0.503        0.154       64.825       23.455        0.131      333.366        2.632      871.841
01/25/2015  08:38:00       38.324       60.893       68.736       45.776       35.227       27.783     2095.411     1240.932      771.922        0.700        0.205       71.949       24.479        0.116      333.335        2.582      871.864
01/25/2015  08:39:00       89.479       72.882       32.333       24.665       22.614       26.704      608.343      511.414      713.112        0.810        0.092      115.405       17.142        0.022      333.152        2.280      871.872
01/25/2015  08:40:00       82.590       59.162       46.346       40.323       34.600       30.920     1625.981     1197.188      956.065        0.812        0.189      101.594       15.902        0.025      333.388        2.671      871.891
01/25/2015  08:41:00       93.258       66.099       31.990       25.030       14.493       21.855      626.485      210.057      477.642        0.770        0.066      114.308        9.199        0.006      333.184        2.332      871.907
01/25/2015  08:42:00       48.695       53.225       50.100       39.802       27.445       27.569     1584.220      753.238      760.035        0.541        0.155       72.139       25.126        0.121      333.450        2.771      871.894
01/25/2015  08:43:00       59.274       52.816       34.941       30.370       24.823       34.483      922.333      616.200     1189.080        0.513        0.136       79.391       23.447        0.087      333.419        2.720      871.886
01/25/2015  08:44:00       39.373       34.403       42.771       32.930       31.346       24.032     1084.410      982.552      577.531        0.360        0.132       52.286       21.517        0.169      333.671        3.138      871.886
01/25/2015  08:45:00       31.264       28.474       34.186       34.877       31.454       36.549     1216.393      989.340     1335.805        0.325        0.177       42.287       28.940        0.468      333.683        3.158      871.894
01/25/2015  08:46:00       62.283       82.745       72.880       43.226       27.959       19.275     1868.480      781.729      371.533        0.953        0.151      103.566       14.654        0.020      333.548        2.934      871.889
01/25/2015  08:47:00       71.779       67.981       44.181       24.312       20.651       27.719      591.069      426.464      768.363        0.676        0.089       98.862       18.760        0.036      333.457        2.784      871.901
01/25/2015  08:48:00       52.847       51.924       38.213       37.778       27.752       30.585     1427.199      770.152      935.448        0.504        0.157       74.087       27.790        0.141      333.555        2.946      871.915
01/25/2015  08:49:00       49.703       32.041       54.451       44.159       31.402       33.866     1950.010      986.110     1146.920        0.527        0.204       59.136       31.865        0.290      333.646        3.098      871.934
01/25/2015  08:50:00       71.566       60.160       42.401       32.927       31.842       30.910     1084.159     1013.885      955.406        0.680        0.153       93.493       25.074        0.072      333.621        3.055      871.952
01/25/2015  08:51:00       87.616       64.668       31.573       22.088       14.811       24.647      487.863      219.369      607.492        0.708        0.066      108.896       13.499        0.015      333.536        2.915      871.960
01/25/2015  08:52:00       94.830       69.586       28.687       18.062       17.231       19.902      326.222      296.899      396.092        0.784        0.051      117.623       12.022        0.010      333.509        2.869      871.972
01/25/2015  08:53:00       20.813       25.893       33.013       32.669       31.152       21.544     1067.285      970.471      464.142        0.235        0.125       33.220       12.582        0.143      333.936        3.577      871.960
01/25/2015  08:54:00       30.686       35.846       42.594       26.119       19.462       30.499      682.182      378.788      930.215        0.302        0.100       47.187       14.490        0.094      333.964        3.625      871.936
01/25/2015  08:55:00       26.332       30.518       37.233       23.028       18.401       20.192      530.292      338.579      407.735        0.214        0.064       40.307        6.257        0.024      334.089        3.831      871.918
01/25/2015  08:56:00       11.431       38.518       27.902       19.079       28.699       30.259      364.016      823.617      915.622        0.225        0.105       40.178       23.521        0.343      334.056        3.777      871.908
01/25/2015  08:57:00       28.545       68.172       18.414       20.813       14.965       31.316      433.175      223.951      980.702        0.372        0.082       73.906       12.716        0.030      333.919        3.550      871.899
01/25/2015  08:58:00       43.207       53.680       20.485       25.581       17.098       23.640      654.366      292.352      558.850        0.334        0.075       68.909        9.980        0.021      334.062        3.788      871.897
01/25/2015  08:59:00       16.871       30.344       18.721       28.838       23.595       24.416      831.656      556.723      596.165        0.177        0.099       34.718       14.522        0.175      334.442        4.417      871.886
01/25/2015  09:00:00       18.541       24.802       20.117       21.214       21.237       31.201      450.029      451.000      973.495        0.162        0.094       30.967       16.470        0.283      334.388        4.329      871.888
01/25/2015  09:01:00       35.396       -4.761       11.152       23.468       24.535       23.649      550.742      601.945      559.282        0.156        0.086       35.714       17.636        0.244      334.394        4.338      871.892
01/25/2015  09:02:00       28.575       46.612       38.389       25.940       32.311       16.658      672.907     1043.992      277.487        0.323        0.100       54.674       11.481        0.044      334.353        4.270      871.893
01/25/2015  09:03:00       35.116       54.481       45.170       26.399       19.736       16.531      696.922      389.512      273.276        0.380        0.068       64.817       10.019        0.024      334.287        4.162      871.888
01/25/2015  09:04:00       12.598       35.729       60.312       29.280       36.166       21.635      857.335     1308.014      468.092        0.385        0.132       37.885       21.861        0.333      334.655        4.771      871.866
01/25/2015  09:05:00       27.514       45.268       60.954       37.857       48.252       26.274     1433.157     2328.235      690.317        0.549        0.223       52.973       27.912        0.278      334.503        4.519      871.855
01/25/2015  09:06:00       20.385       13.617       44.762       24.051       22.974       19.859      578.443      527.817      394.394        0.205        0.075       24.515       17.100        0.487      334.589        4.661      871.843
01/25/2015  09:07:00       23.981       29.572       35.980       16.909       21.328       21.162      285.922      454.896      447.837        0.197        0.059       38.073        8.175        0.046      334.653        4.768      871.829
01/25/2015  09:08:00       40.723       29.021       46.432       34.977       55.752       35.424     1223.359     3108.283     1254.882        0.512        0.279       50.006       37.470        0.561      334.595        4.671      871.818
01/25/2015  09:09:00       -6.661       33.068       65.382       23.657       39.274       30.463      559.658     1542.460      927.981        0.422        0.152       33.732       27.659        0.672      334.893        5.165      871.811
01/25/2015  09:10:00       13.743        1.118       31.625       36.931       44.708       40.346     1363.916     1998.837     1627.762        0.309        0.250       13.789       33.365        5.855      334.781        4.979      871.798
01/25/2015  09:11:00       27.023      -25.318       32.480       41.045       51.588       39.099     1684.661     2661.358     1528.751        0.415        0.294       37.030       33.690        0.828      334.871        5.130      871.787
01/25/2015  09:12:00        9.941      -13.621       45.906       20.057       39.482       18.874      402.289     1558.837      356.236        0.235        0.116       16.863        9.751        0.334      334.935        5.234      871.778
01/25/2015  09:13:00        3.356        0.614       31.893       18.891       25.694       27.323      356.864      660.185      746.551        0.140        0.088        3.412       19.367       32.220      335.097        5.505      871.769
01/25/2015  09:14:00       24.262       34.974       52.497       41.163       44.242       38.060     1694.357     1957.340     1448.569        0.483        0.255       42.566       31.947        0.563      334.931        5.230      871.756
01/25/2015  09:15:00       20.894      -30.821       15.955       24.762       38.195       29.690      613.153     1458.896      881.502        0.230        0.148       37.236       29.921        0.646      334.652        4.766      871.738
01/25/2015  09:16:00       22.443       40.919       52.314       26.093       33.982       19.452      680.865     1154.764      378.398        0.356        0.111       46.670       20.036        0.184      335.045        5.419      871.710
01/25/2015  09:17:00        8.839       21.238       68.381       30.576       23.254       21.894      934.875      540.748      479.348        0.358        0.098       23.004       19.559        0.723      335.029        5.392      871.689
01/25/2015  09:18:00       13.325       61.935       62.585       27.447       28.386       23.192      753.353      805.754      537.859        0.501        0.105       63.352       22.346        0.124      334.841        5.079      871.684
01/25/2015  09:19:00       -5.458        1.552       39.878       19.628       38.459       16.577      385.270     1479.129      274.790        0.188        0.107        5.674       15.021        7.007      335.092        5.495      871.673
01/25/2015  09:20:00       -5.103      -31.150       38.934       22.586       37.735       21.662      510.144     1423.932      469.221        0.246        0.120       31.565       17.287        0.300      335.089        5.492      871.666
01/25/2015  09:21:00       22.826       13.787       35.515       27.242       49.071       28.235      742.152     2407.969      797.240        0.296        0.197       26.667       30.546        1.312      335.038        5.408      871.655
01/25/2015  09:22:00       -2.592       14.883       47.592       10.450       19.025       12.434      109.194      361.966      154.605        0.156        0.031       15.107       10.969        0.527      335.384        5.983      871.652
01/25/2015  09:23:00      -16.599       -3.456        8.698       21.564       19.698       18.758      465.009      387.995      351.849        0.078        0.060       16.955       15.276        0.812      335.138        5.574      871.659
01/25/2015  09:24:00      -50.401      -11.838       -5.640       23.724       18.716       12.257      562.838      350.277      150.225        0.189        0.053       51.773       11.145        0.046      334.650        4.761      871.666
01/25/2015  09:25:00      -17.777       17.988        4.277       33.472       22.897       28.781     1120.349      524.253      828.317        0.156        0.124       25.291       20.706        0.670      335.088        5.491      871.665
01/25/2015  09:26:00       -2.179       40.759       14.199       26.188       27.177       23.670      685.837      738.605      560.252        0.193        0.099       40.817       18.392        0.203      335.279        5.808      871.670
01/25/2015  09:27:00       13.178       37.416       54.171       31.158       24.060       20.595      970.851      578.871      424.172        0.324        0.099       39.669       17.978        0.205      335.256        5.770      871.678
01/25/2015  09:28:00       47.105       11.682       36.824       28.925       59.465       36.038      836.672     3536.044     1298.737        0.469        0.284       48.532       44.471        0.840      335.050        5.426      871.678
01/25/2015  09:29:00      -10.705       51.133       82.919       16.820       30.584       21.559      282.903      935.391      464.801        0.564        0.084       52.241       20.018        0.147      335.481        6.142      871.665
01/25/2015  09:30:00        1.255       46.865       76.494       30.591       31.874       19.065      935.799     1015.932      363.486        0.518        0.116       46.882       18.439        0.155      335.244        5.749      871.659
01/25/2015  09:31:00       35.874       57.576       54.868       24.843       28.135       14.695      617.172      791.574      215.957        0.462        0.081       67.838       11.668        0.030      334.985        5.318      871.647
01/25/2015  09:32:00       81.583       51.866       15.683       30.053       18.491       22.843      903.208      341.909      521.794        0.568        0.088       96.674       17.360        0.032      334.977        5.306      871.649
01/25/2015  09:33:00       12.152       34.390       37.776       36.008       28.275       31.321     1296.597      799.452      981.014        0.292        0.154       36.474       24.093        0.436      335.540        6.242      871.657
01/25/2015  09:34:00       -8.879        9.785       51.889       11.833       23.848       16.146      140.015      568.705      260.702        0.192        0.048       13.213       15.692        1.410      335.851        6.760      871.660
01/25/2015  09:35:00        8.263       22.166       41.571       21.491       36.298       18.277      461.879     1317.532      334.062        0.220        0.106       23.656        8.622        0.133      335.725        6.548      871.657
01/25/2015  09:36:00       18.319       45.241       75.808       33.124       46.675       30.626     1097.192     2178.590      937.955        0.617        0.211       48.809       32.099        0.433      335.636        6.402      871.660
01/25/2015  09:37:00       31.496       -6.798       49.842       34.512       86.417       39.161     1191.077     7467.897     1533.614        0.686        0.510       32.222       45.761        2.017      335.536        6.236      871.660
01/25/2015  09:38:00       44.865      -84.255       -5.286       32.532       35.879       28.518     1058.341     1287.285      813.294        0.615        0.158       95.456       20.626        0.047      335.244        5.750      871.674
01/25/2015  09:39:00       32.220       41.173       43.097       35.963       32.418       22.762     1293.369     1050.900      518.102        0.373        0.143       52.281       15.554        0.089      335.391        5.995      871.683
01/25/2015  09:40:00       11.537       10.568       47.992       25.690       17.212       14.264      659.997      296.245      203.467        0.185        0.058       15.646       13.907        0.790      335.889        6.823      871.683
01/25/2015  09:41:00       17.670        6.992       52.857       35.399       46.194       25.070     1253.081     2133.870      628.481        0.358        0.201       19.004       26.531        1.949      335.964        6.949      871.690
01/25/2015  09:42:00       38.566        7.765       45.527       43.604       62.233       50.000     1901.280     3872.960     2499.955        0.595        0.414       39.340       51.960        1.745      335.772        6.629      871.694
01/25/2015  09:43:00       12.316       21.797       63.874       27.981       43.904       30.888      782.911     1927.597      954.098        0.419        0.183       25.036       29.802        1.417      335.845        6.751      871.705
01/25/2015  09:44:00       53.947       15.935       43.897       50.861       28.528       27.419     2586.834      813.860      751.776        0.462        0.208       56.252       17.177        0.093      335.880        6.808      871.710
01/25/2015  09:45:00       51.400       60.491       72.490       39.278       36.750       32.310     1542.770     1350.590     1043.947        0.775        0.197       79.380       32.062        0.163      335.503        6.181      871.713
01/25/2015  09:46:00       86.338      102.092       73.526       51.386       23.345       36.994     2640.564      545.006     1368.541        1.392        0.228      133.705       33.745        0.064      335.315        5.868      871.699
01/25/2015  09:47:00      104.940       76.590       41.573       21.804       15.728       30.002      475.414      247.362      900.112        1.011        0.081      129.917       18.679        0.021      335.083        5.484      871.699
01/25/2015  09:48:00       36.169       17.471       23.032       18.622       37.581       19.505      346.796     1412.316      380.458        0.214        0.107       40.167       19.185        0.228      335.496        6.169      871.715
01/25/2015  09:49:00       81.770       45.386       15.780       43.126       31.921       37.829     1859.874     1018.921     1431.066        0.665        0.215       93.521       25.499        0.074      335.622        6.380      871.740
01/25/2015  09:50:00      117.871       80.368       14.587       43.561       30.933       31.998     1897.536      956.871     1023.859        1.222        0.194      142.663       25.225        0.031      335.485        6.150      871.764
01/25/2015  09:51:00       52.713       86.761       62.048       45.427       32.750       42.571     2063.600     1072.541     1812.249        0.955        0.247      101.519       37.694        0.138      335.583        6.313      871.792
01/25/2015  09:52:00       30.596       99.636       99.214       40.154       46.584       34.546     1612.358     2170.031     1193.429        1.284        0.249      104.228       33.918        0.106      335.568        6.287      871.814
01/25/2015  09:53:00       79.694      106.308       87.262       34.299       33.163       28.876     1176.448     1099.759      833.808        1.419        0.156      132.863       23.216        0.031      335.454        6.099      871.835
01/25/2015  09:54:00       11.673       55.181       71.180       29.154       25.544       17.210      849.939      652.478      296.198        0.502        0.090       56.402       15.388        0.074      335.732        6.561      871.844
01/25/2015  09:55:00       71.312       91.679       43.376       90.722       37.688       49.747     8230.495     1420.395     2474.761        1.375        0.606      116.149       58.484        0.254      335.670        6.457      871.850
01/25/2015  09:56:00      110.385       88.986       15.326       37.669       24.918       20.988     1418.991      620.928      440.495        1.141        0.124      141.787       17.532        0.015      335.314        5.865      871.846
01/25/2015  09:57:00       21.353       42.902       12.669       32.148       32.323       27.806     1033.505     1044.796      773.150        0.265        0.143       47.922       20.844        0.189      335.837        6.737      871.832
01/25/2015  09:58:00       43.289       40.171       45.798       48.066       31.258       37.484     2310.359      977.090     1405.033        0.514        0.235       59.056       31.445        0.284      336.043        7.080      871.821
01/25/2015  09:59:00       66.902       29.807       52.680       41.848       38.958       30.273     1751.288     1517.728      916.437        0.616        0.209       73.242       31.814        0.189      335.812        6.694      871.827
01/25/2015  10:00:00       22.882       56.994       65.038       34.377       42.681       26.916     1181.801     1821.660      724.491        0.586        0.186       61.416       28.765        0.219      335.957        6.937      871.836
01/25/2015  10:01:00       58.972       71.365       72.495       41.565       34.583       26.902     1727.670     1195.987      723.714        0.874        0.182       92.578       14.676        0.025      335.889        6.823      871.850
01/25/2015  10:02:00       99.738       69.051       63.274       56.951       35.670       41.898     3243.457     1272.329     1755.484        1.249        0.314      121.308       34.352        0.080      335.682        6.478      871.858
01/25/2015  10:03:00      100.420       90.440       52.576       33.323       26.362       29.495     1110.418      694.939      869.927        1.185        0.134      135.143       19.948        0.022      335.513        6.197      871.864
01/25/2015  10:04:00       19.845       52.158       66.215       41.338       39.261       22.092     1708.865     1541.426      488.048        0.562        0.187       55.806       16.242        0.085      336.006        7.018      871.873
01/25/2015  10:05:00       46.660      -16.460       31.680       38.348       65.996       38.510     1470.596     4355.517     1483.023        0.538        0.365       49.478       42.625        0.742      335.898        6.838      871.881
01/25/2015  10:06:00        4.152        4.676       43.792       30.904       72.077       43.837      955.052     5195.048     1921.718        0.501        0.404        6.253       52.534       70.583      336.130        7.225      871.886
01/25/2015  10:07:00       27.487       43.425       53.983       31.674       41.742       33.174     1003.213     1742.398     1100.499        0.470        0.192       51.393       34.108        0.440      336.058        7.105      871.884
01/25/2015  10:08:00       73.711       54.995       21.152       68.197       47.656       42.271     4650.830     2271.121     1786.876        0.881        0.435       91.966       37.230        0.164      335.867        6.786      871.885
01/25/2015  10:09:00       49.042       22.715      -15.153       30.958       20.891       18.398      958.405      436.435      338.499        0.244        0.087       54.047       15.806        0.086      335.578        6.305      871.894
01/25/2015  10:10:00      -16.138       34.767      -21.190       14.606       16.496       14.488      213.330      272.109      209.891        0.131        0.035       38.330        8.156        0.045      335.709        6.524      871.866
01/25/2015  10:11:00      -18.276       11.205      -15.842       20.167       17.941       13.949      406.712      321.881      194.578        0.082        0.046       21.437       13.780        0.413      335.833        6.729      871.858
01/25/2015  10:12:00      -11.591       18.947       11.515       18.983       21.524       17.975      360.337      463.281      323.083        0.089        0.057       22.211       13.776        0.385      336.383        7.647      871.848
01/25/2015  10:13:00       30.105       37.349       16.294       33.586       27.848       21.363     1128.029      775.489      456.391        0.246        0.118       47.971       18.099        0.142      336.335        7.568      871.832
01/25/2015  10:14:00       64.536       61.353       13.405       41.693       33.272       29.679     1738.334     1107.001      880.836        0.592        0.186       89.045        6.114        0.005      336.024        7.049      871.819
01/25/2015  10:15:00       29.742       58.465        3.408       46.591       41.086       24.916     2170.701     1688.029      620.814        0.440        0.224       65.596       19.461        0.088      336.276        7.470      871.808
01/25/2015  10:16:00       21.627       14.930       33.115       35.913       19.899       24.862     1289.731      395.973      618.096        0.205        0.115       26.280       16.435        0.391      336.633        8.066      871.807
01/25/2015  10:17:00       58.878       29.255        8.130       26.744       20.994       22.144      715.233      440.737      490.345        0.302        0.082       65.746       13.052        0.039      336.313        7.531      871.799
01/25/2015  10:18:00        4.587        8.463       44.258       27.793       31.680       33.039      772.464     1003.607     1091.575        0.246        0.143        9.627       30.126        9.794      336.888        8.492      871.803
01/25/2015  10:19:00       16.662       66.739       60.333       24.489       29.725       25.382      599.734      883.578      644.248        0.525        0.106       68.787       11.528        0.028      336.517        7.872      871.806
01/25/2015  10:20:00       27.015      -47.140       19.377       37.096       59.186       36.774     1376.126     3502.992     1352.304        0.478        0.312       54.332       37.774        0.483      336.809        8.360      871.799
01/25/2015  10:21:00       60.248        4.377       18.460       31.354       49.347       32.227      983.091     2435.154     1038.565        0.422        0.223       60.407       23.990        0.158      336.561        7.944      871.805
01/25/2015  10:22:00       16.774       -1.101       20.476       25.895       27.908       28.058      670.572      778.874      787.252        0.147        0.112       16.811       23.552        1.963      336.588        7.990      871.793
01/25/2015  10:23:00        8.544       22.669       52.418       18.725       33.575       21.054      350.611     1127.296      443.254        0.263        0.096       24.225       18.954        0.612      336.925        8.553      871.797
01/25/2015  10:24:00       21.741       42.855       63.282       28.463       25.954       18.643      810.153      673.633      347.548        0.407        0.092       48.055       11.054        0.053      336.713        8.199      871.796
01/25/2015  10:25:00       58.836       50.614       34.051       26.797       35.339       32.020      718.069     1248.863     1025.249        0.509        0.150       77.611       22.639        0.085      336.325        7.551      871.801
01/25/2015  10:26:00       70.713       57.219        7.981       37.169       25.213       30.837     1381.543      635.717      950.896        0.565        0.148       90.963       18.885        0.043      336.468        7.790      871.820
01/25/2015  10:27:00       67.767       51.401        5.635       44.251       38.490       29.105     1958.158     1481.466      847.105        0.578        0.214       85.055        8.271        0.009      336.545        7.918      871.821
01/25/2015  10:28:00       51.883       39.985       27.681       27.653       26.901       27.857      764.686      723.677      776.021        0.366        0.113       65.503       14.253        0.047      336.543        7.915      871.825
01/25/2015  10:29:00       21.912       35.794       24.452       33.292       36.136       29.340     1108.343     1305.808      860.838        0.282        0.164       41.968       22.966        0.299      337.030        8.729      871.818
01/25/2015  10:30:00        2.699        4.057       26.725       33.154       16.812       18.026     1099.166      282.630      324.949        0.122        0.085        4.873       18.325       14.141      337.157        8.942      871.819
01/25/2015  10:31:00      -40.890      -54.998       14.264       43.200       30.892       34.627     1866.276      954.306     1199.032        0.446        0.201       68.533       25.698        0.141      336.597        8.007      871.811
01/25/2015  10:32:00       11.006       57.456       75.277       28.617       34.782       25.961      818.938     1209.792      673.983        0.590        0.135       58.501       22.483        0.148      336.980        8.645      871.809
01/25/2015  10:33:00        5.796      -38.458       10.632       18.271       42.039       28.008      333.835     1767.259      784.429        0.226        0.144       38.892       29.294        0.567      336.869        8.460      871.812
01/25/2015  10:34:00      -10.455      -44.092       -3.435       33.522       48.241       24.444     1123.694     2327.205      597.485        0.306        0.202       45.315       27.196        0.360      336.791        8.331      871.797
01/25/2015  10:35:00      -42.819      -57.987        0.152       22.233       53.785       22.423      494.325     2892.820      502.796        0.454        0.194       72.082       15.878        0.049      336.605        8.018      871.784
01/25/2015  10:36:00       -5.780      -53.416       31.841       23.081       67.287       22.717      532.745     4527.571      516.050        0.474        0.279       53.728       14.395        0.072      337.122        8.884      871.772
01/25/2015  10:37:00       -9.040       -7.114       11.535       18.273       17.492       17.666      333.902      305.963      312.093        0.061        0.048       11.503       13.849        1.449      337.212        9.033      871.755
01/25/2015  10:38:00      -16.324      -53.464        2.831       53.832       40.122       21.815     2897.850     1609.773      475.884        0.406        0.249       55.901       12.952        0.054      336.671        8.129      871.736
01/25/2015  10:39:00       -2.431        3.193       40.198       34.304       48.976       31.609     1176.790     2398.608      999.126        0.310        0.229        4.013       31.689       62.349      337.193        9.002      871.722
01/25/2015  10:40:00       -1.509      -64.935       16.164       34.855       56.576       32.901     1214.889     3200.792     1082.468        0.499        0.275       64.953       39.871        0.377      337.057        8.774      871.729
01/25/2015  10:41:00       34.035       -5.652       18.400       36.041       61.760       27.542     1298.981     3814.292      758.573        0.370        0.294       34.501       35.167        1.039      337.100        8.847      871.725
01/25/2015  10:42:00       -4.982       20.147       66.350       15.231       25.747       13.674      231.986      662.923      186.972        0.296        0.054       20.754       12.476        0.361      337.445        9.424      871.734
01/25/2015  10:43:00       16.758       25.245       49.038       46.515       27.529       20.799     2163.616      757.849      432.594        0.334        0.168       30.301       17.205        0.322      337.169        8.963      871.730
01/25/2015  10:44:00       66.264       29.734       23.960       35.918       35.245       39.144     1290.096     1242.176     1532.249        0.496        0.203       72.629       30.881        0.181      336.752        8.265      871.722
01/25/2015  10:45:00       55.949       63.176       73.495       62.127       33.709       38.661     3859.748     1136.307     1494.677        0.951        0.325       84.389       36.893        0.191      336.970        8.628      871.704
01/25/2015  10:46:00       66.551       70.309       51.123       47.290       23.410       36.216     2236.383      548.028     1311.635        0.804        0.205       96.811       31.432        0.105      336.911        8.530      871.696
01/25/2015  10:47:00       49.788       74.373       -1.588       42.802       28.095       26.593     1831.974      789.348      707.168        0.567        0.166       89.499       16.905        0.036      336.918        8.543      871.681
01/25/2015  10:48:00       15.679       44.539       57.684       60.910       50.829       42.040     3709.986     2583.539     1767.323        0.681        0.403       47.218       35.906        0.578      337.533        9.573      871.675
01/25/2015  10:49:00       76.078       38.215       30.104       50.646       44.045       38.399     2564.977     1939.958     1474.493        0.707        0.299       85.137       21.541        0.064      337.026        8.723      871.671
01/25/2015  10:50:00       65.487       54.802       13.700       29.604       18.731       27.770      876.387      350.837      771.177        0.474        0.100       85.392       17.898        0.044      336.861        8.447      871.658
01/25/2015  10:51:00       14.873       14.248       73.946       35.935       46.405       32.593     1291.333     2153.466     1062.328        0.520        0.225       20.596       27.806        1.823      337.703        9.857      871.628
01/25/2015  10:52:00       16.860       21.441       66.592       53.432       77.182       56.472     2854.983     5957.009     3189.095        0.859        0.600       27.276       60.952        4.994      337.405        9.356      871.633
01/25/2015  10:53:00       20.349       34.607       61.664       29.189       65.986       57.928      852.016     4354.106     3355.682        0.699        0.428       40.147       56.368        1.971      337.234        9.071      871.632
01/25/2015  10:54:00        5.052       23.695       14.169       23.000       22.643       27.773      529.006      512.728      771.362        0.130        0.091       24.228       19.528        0.650      337.267        9.126      871.614
01/25/2015  10:55:00      -43.336      -29.551        5.272       29.724       26.391       16.708      883.507      696.497      279.166        0.232        0.093       52.452       14.474        0.076      337.197        9.009      871.588
01/25/2015  10:56:00      -22.129      -46.867        5.814       53.535       48.599       26.503     2866.028     2361.860      702.426        0.432        0.297       51.828       30.365        0.343      337.354        9.273      871.557
01/25/2015  10:57:00       18.344      -40.617       21.807       43.853       33.128       27.356     1923.081     1097.460      748.359        0.311        0.188       44.568       22.787        0.261      337.486        9.491      871.535
01/25/2015  10:58:00      -21.554      -37.805       14.157       46.458       31.267       19.746     2158.340      977.598      389.910        0.281        0.176       43.518       16.767        0.148      337.256        9.108      871.500
01/25/2015  10:59:00      -17.964      -17.095        9.258       34.752       27.830       17.722     1207.727      774.517      314.058        0.150        0.115       24.798       18.906        0.581      337.570        9.634      871.477
01/25/2015  11:00:00      -60.874      -29.459        6.526       42.332       27.282       21.360     1792.018      744.300      456.261        0.380        0.150       67.627       22.354        0.109      337.335        9.242      871.447
01/25/2015  11:01:00      -11.361       -4.928        7.100       37.947       30.839       22.481     1439.965      951.057      505.381        0.155        0.145       12.384       15.433        1.553      337.579        9.648      871.433
01/25/2015  11:02:00      -91.615      -69.949        6.753       58.025       36.268       29.505     3366.905     1315.338      870.551        0.944        0.278      115.266       29.456        0.065      337.073        8.801      871.414
01/25/2015  11:03:00      -56.108     -103.021       -0.729       45.512       31.457       26.268     2071.302      989.543      689.989        0.876        0.188      117.310       14.152        0.015      336.930        8.562      871.413
01/25/2015  11:04:00      -96.107      -79.774       -4.729       42.843       32.820       26.020     1835.527     1077.168      677.032        0.961        0.179      124.902       11.169        0.008      336.957        8.607      871.394
01/25/2015  11:05:00      -87.346      -68.471        0.730       36.217       31.847       23.988     1311.667     1014.261      575.445        0.761        0.145      110.985       20.093        0.033      337.051        8.763      871.384
01/25/2015  11:06:00      -84.405      -69.837        1.883       44.156       32.455       27.819     1949.762     1053.352      773.872        0.789        0.189      109.551       25.325        0.053      337.161        8.948      871.364
01/25/2015  11:07:00      -76.904      -56.046       -0.436       48.336       51.617       28.346     2336.365     2664.337      803.513        0.743        0.290       95.160       27.217        0.082      337.293        9.169      871.348
01/25/2015  11:08:00      -49.269      -93.003      -12.943       36.698       44.044       19.170     1346.723     1939.883      367.503        0.745        0.183      105.247       15.061        0.020      337.008        8.691      871.346
01/25/2015  11:09:00      -27.245       -0.772        9.537       25.427       13.456       16.649      646.540      181.055      277.193        0.097        0.055       27.255       15.091        0.307      337.543        9.590      871.326
01/25/2015  11:10:00        2.647       -1.461       11.086       21.333       21.935       20.625      455.103      481.148      425.398        0.075        0.068        3.023       14.300       22.373      337.872       10.140      871.298
01/25/2015  11:11:00      -45.707      -24.219        2.525       43.299       32.798       20.759     1874.832     1075.697      430.924        0.303        0.169       51.727       21.467        0.172      337.647        9.762      871.278
01/25/2015  11:12:00      -57.177       21.410       18.063       35.948       45.140       22.112     1292.231     2037.627      488.962        0.394        0.191       61.055       10.389        0.029      337.599        9.681      871.253
01/25/2015  11:13:00       12.416       36.746       49.341       35.224       29.802       26.139     1240.724      888.155      683.242        0.338        0.141       38.787       19.581        0.255      338.142       10.594      871.225
01/25/2015  11:14:00      -22.864        7.014       40.937       23.112       33.185       25.158      534.142     1101.242      632.912        0.226        0.113       23.916       25.407        1.129      338.056       10.448      871.191
01/25/2015  11:15:00      -26.613       -0.463       -1.380       30.115       41.660       27.000      906.891     1735.581      728.991        0.204        0.169       26.617       20.212        0.577      337.732        9.905      871.164
01/25/2015  11:16:00        1.080       22.126       32.642       23.511       23.692       24.470      552.782      561.294      598.760        0.163        0.086       22.152       14.842        0.449      338.255       10.781      871.139
01/25/2015  11:17:00      -35.865       -9.028       15.470       69.691       34.772       24.011     4856.822     1209.114      576.516        0.412        0.332       36.984       32.818        0.787      337.880       10.154      871.109
01/25/2015  11:18:00      -90.236        3.115       -2.465       43.923       24.526       19.073     1929.221      601.525      363.764        0.553        0.145       90.290       20.716        0.053      337.323        9.219      871.091
01/25/2015  11:19:00      -30.499       12.682        9.188       25.406       16.349       15.079      645.473      267.280      227.362        0.116        0.057       33.031       11.835        0.128      337.822       10.057      871.067
01/25/2015  11:20:00      -25.705       -6.176        8.029       36.040       23.310       24.551     1298.878      543.342      602.764        0.160        0.122       26.436       21.954        0.690      338.088       10.502      871.049
01/25/2015  11:21:00      -44.409      -25.097        4.286       49.130       24.545       22.657     2413.714      602.441      513.341        0.307        0.176       51.010       24.405        0.229      337.789       10.000      871.024
01/25/2015  11:22:00      -47.320      -18.690        7.082       55.935       36.452       23.143     3128.671     1328.721      535.598        0.381        0.250       50.877       14.793        0.085      337.791       10.005      871.012
01/25/2015  11:23:00      -33.535      -19.420       19.173       40.860       45.628       27.332     1669.570     2081.938      747.051        0.318        0.225       38.752       26.256        0.459      337.917       10.216      871.010
01/25/2015  11:24:00      -52.388      -63.245        1.753       41.087       36.640       24.718     1688.148     1342.500      610.970        0.519        0.182       82.125       16.327        0.040      337.609        9.698      870.998
01/25/2015  11:25:00        7.461      -16.294       22.001       36.451       25.066       27.732     1328.684      628.326      769.043        0.177        0.136       17.921       20.437        1.301      338.227       10.736      870.974
01/25/2015  11:26:00      -60.120      -39.292        9.874       42.621       26.372       24.112     1816.579      695.463      581.387        0.417        0.155       71.821       22.228        0.096      337.875       10.145      870.959
01/25/2015  11:27:00      -65.076      -46.456       -9.374       39.091       25.367       14.497     1528.108      643.489      210.162        0.443        0.119       79.957        6.452        0.007      337.557        9.611      870.935
01/25/2015  11:28:00      -37.217       -9.125        0.916       25.079       19.341       12.331      628.937      374.087      152.060        0.131        0.058       38.320        9.095        0.056      337.656        9.777      870.904
01/25/2015  11:29:00      -16.629       -7.164        3.563       24.367       14.912       12.466      593.775      222.374      155.402        0.066        0.049       18.107        9.835        0.295      337.995       10.346      870.881
01/25/2015  11:30:00      -43.958      -47.465       -8.317       35.034       35.546       22.210     1227.408     1263.531      493.282        0.362        0.149       64.693       13.739        0.045      337.904       10.194      870.854
01/25/2015  11:31:00      -48.201      -34.821       -0.526       28.817       29.886       20.856      830.434      893.147      434.954        0.285        0.108       59.463       17.950        0.091      337.783        9.991      870.822
01/25/2015  11:32:00      -40.778      -12.060        2.611       27.263       21.303       12.590      743.287      453.806      158.501        0.159        0.068       42.524        7.926        0.035      337.809       10.034      870.796
01/25/2015  11:33:00      -34.184      -71.187        1.958       21.706       17.538       15.002      471.144      307.583      225.047        0.362        0.050       78.969        8.601        0.012      337.647        9.762      870.770
01/25/2015  11:34:00      -31.766      -50.871      -16.024       21.758       22.452       21.300      473.390      504.109      453.671        0.264        0.072       59.975       10.807        0.032      337.662        9.787      870.737
01/25/2015  11:35:00       -3.258      -14.313       12.472       19.216       20.465       17.637      369.245      418.799      311.073        0.073        0.055       14.679       16.000        1.188      338.291       10.844      870.709
01/25/2015  11:36:00       30.394       53.610       66.797       66.006       42.196       43.065     4356.788     1780.490     1854.577        0.812        0.400       61.626       37.510        0.370      338.605       11.370      870.689
01/25/2015  11:37:00        7.874       46.730       69.942       37.789       55.496       36.350     1428.025     3079.841     1321.358        0.648        0.291       47.389       30.597        0.417      338.370       10.976      870.687
01/25/2015  11:38:00       41.705       31.770       62.553       50.000       48.765       42.438     2500.030     2378.002     1801.013        0.667        0.334       52.428       38.093        0.528      338.309       10.873      870.676
01/25/2015  11:39:00       16.365      -43.870       25.443       33.153       69.314       48.759     1099.126     4804.365     2377.394        0.556        0.414       46.823       50.370        1.157      338.162       10.626      870.657
01/25/2015  11:40:00       75.333        3.970       28.406       41.471       61.818       40.756     1719.846     3821.449     1661.019        0.685        0.360       75.438       44.402        0.346      338.038       10.417      870.632
01/25/2015  11:41:00       79.113       85.016       50.108       51.371       44.875       49.207     2638.930     2013.734     2421.288        1.153        0.354      116.132       26.678        0.053      338.087       10.499      870.619
01/25/2015  11:42:00       39.757      106.390      103.840       61.472       47.909       39.303     3778.763     2295.304     1544.723        1.565        0.381      113.576       32.422        0.081      338.162       10.627      870.609
01/25/2015  11:43:00       77.813       76.012       63.622       38.100       35.384       36.288     1451.588     1252.032     1316.842        0.995        0.201      108.778       21.300        0.038      338.074       10.479      870.629
01/25/2015  11:44:00       81.202       69.294        8.971       33.711       25.891       24.424     1136.426      670.354      596.552        0.694        0.120      106.749       17.259        0.026      338.034       10.412      870.609
01/25/2015  11:45:00       87.740      -65.908       -4.610       73.605       67.876       38.740     5417.718     4607.207     1500.801        1.179        0.576      109.737       38.722        0.125      338.070       10.472      870.594
01/25/2015  11:46:00       71.862      -67.405       -9.710       64.097       67.834       62.684     4108.481     4601.425     3929.240        1.122        0.632       98.527       51.519        0.273      338.213       10.713      870.562
01/25/2015  11:47:00       95.069      -72.925      -29.733       42.498       47.704       27.290     1806.054     2275.671      744.747        1.003        0.241      119.817       22.255        0.034      338.092       10.508      870.547
01/25/2015  11:48:00       53.653      -13.129       25.910       38.646       48.031       37.458     1493.526     2306.971     1403.084        0.446        0.260       55.236       34.904        0.399      338.252       10.778      870.538
01/25/2015  11:49:00       28.268       -3.241       56.994       38.376       51.298       37.958     1472.751     2631.529     1440.820        0.480        0.277       28.453       15.361        0.291      338.580       11.330      870.517
01/25/2015  11:50:00       44.114      -32.917       27.534       51.736       84.072       49.789     2676.649     7068.172     2478.966        0.800        0.611       55.041       54.517        0.981      338.551       11.279      870.517
01/25/2015  11:51:00       83.961      -91.506       -6.800       55.173       66.399       51.862     3044.029     4408.773     2689.625        1.280        0.507      124.189       50.703        0.167      338.367       10.970      870.495
01/25/2015  11:52:00       29.369      -30.917       10.246       51.927       49.633       37.012     2696.382     2463.421     1369.898        0.423        0.326       42.643       22.894        0.288      338.511       11.214      870.484
01/25/2015  11:53:00       18.977       24.265       61.010       30.884       26.542       23.790      953.818      704.480      565.981        0.345        0.111       30.804       16.246        0.278      338.716       11.557      870.468
01/25/2015  11:54:00        4.786      -24.098       26.229       20.533       34.049       28.143      421.596     1159.325      792.053        0.183        0.119       24.569       25.610        1.087      338.864       11.805      870.432
01/25/2015  11:55:00        8.004       16.342       37.172       29.227       20.410       12.851      854.197      416.570      165.154        0.157        0.072       18.197        9.364        0.265      338.835       11.758      870.395
01/25/2015  11:56:00       34.129      -43.477       19.177       54.952       70.808       41.688     3019.749     5013.730     1737.873        0.660        0.489       55.272       45.432        0.676      338.747       11.609      870.368
01/25/2015  11:57:00       86.703      -80.072       -1.274       45.971       73.510       43.230     2113.287     5403.785     1868.850        1.166        0.469      118.021       43.880        0.138      338.395       11.019      870.326
01/25/2015  11:58:00       59.492      -97.873       -7.314       37.010       37.767       30.632     1369.765     1426.363      938.323        0.845        0.187      114.536       23.314        0.041      338.236       10.750      870.311
01/25/2015  11:59:00       30.614      -29.701       24.735       39.433       70.358       36.832     1554.986     4950.244     1356.589        0.515        0.393       42.654       48.104        1.272      338.278       10.821      870.299
01/25/2015  12:00:00       39.233       92.819       95.331       53.107       36.769       24.417     2820.345     1351.924      596.168        1.200        0.238      100.770       23.313        0.054      338.558       11.291      870.288
01/25/2015  12:01:00       55.348      102.739       97.425       57.679       40.672       39.214     3326.902     1654.252     1537.724        1.481        0.326      116.699       35.669        0.093      338.355       10.950      870.285
01/25/2015  12:02:00       72.514      101.358       86.899       35.145       45.217       25.502     1235.163     2044.558      650.334        1.351        0.197      124.626        8.747        0.005      338.241       10.758      870.290
01/25/2015  12:03:00       32.486       65.844       66.278       32.767       36.446       16.742     1073.667     1328.312      280.282        0.623        0.134       73.421       19.402        0.070      338.333       10.913      870.289
01/25/2015  12:04:00       46.043       39.441       29.707       27.109       14.879       24.610      734.925      221.392      605.660        0.306        0.078       60.626        8.411        0.019      338.236       10.751      870.274
01/25/2015  12:05:00        3.398       45.978       63.741       24.081       30.248       24.713      579.874      914.962      610.715        0.415        0.105       46.103       21.154        0.211      338.721       11.564      870.255
01/25/2015  12:06:00       52.685       52.114       22.037       24.936       19.472       26.016      621.787      379.158      676.854        0.383        0.084       74.105       12.473        0.028      338.291       10.843      870.227
01/25/2015  12:07:00       37.816       46.432       32.513       31.349       24.312       31.213      982.771      591.064      974.245        0.360        0.127       59.883       22.755        0.144      338.618       11.392      870.185
01/25/2015  12:08:00        0.556       -7.441        6.338       42.142       26.030       30.345     1775.928      677.586      920.789        0.173        0.169        7.462       17.002        5.191      338.591       11.347      870.146
01/25/2015  12:09:00       79.612       69.776       -4.012       48.738       38.398       32.407     2375.413     1474.401     1050.205        0.806        0.245      105.862       22.577        0.045      338.474       11.149      870.106
01/25/2015  12:10:00       30.885       44.636       39.927       20.656       25.936       28.114      426.663      672.662      790.384        0.321        0.094       54.279        7.906        0.021      338.678       11.492      870.067
01/25/2015  12:11:00       12.671       56.276       12.163       29.799       38.625       26.158      887.955     1491.875      684.262        0.327        0.153       57.685       21.384        0.137      338.596       11.355      870.046
01/25/2015  12:12:00       15.288        8.347       20.515       18.711       19.343       22.494      350.110      374.159      505.996        0.098        0.062       17.418       14.563        0.699      339.132       12.256      870.040
01/25/2015  12:13:00       17.473       21.410       19.365       25.124       24.683       25.404      631.195      609.269      645.357        0.151        0.094       27.635       18.360        0.441      339.013       12.056      870.035
01/25/2015  12:14:00       40.556       15.595       21.962       24.581       21.403       29.996      604.237      458.073      899.778        0.217        0.098       43.451       15.296        0.124      338.905       11.876      870.020
01/25/2015  12:15:00       24.489       39.281       39.775       37.394       30.435       37.728     1398.316      926.281     1423.429        0.374        0.187       46.289       33.430        0.522      338.886       11.844      870.015
01/25/2015  12:16:00       -2.330       27.681       41.836       20.389       33.148       17.055      415.706     1098.792      290.872        0.216        0.090       27.779       17.402        0.392      339.113       12.224      869.992
01/25/2015  12:17:00        7.287       -0.419       29.406       28.320       38.778       26.179      802.039     1503.715      685.361        0.195        0.150        7.299       15.582        4.558      339.075       12.161      869.952
01/25/2015  12:18:00       24.366       72.234       63.861       49.240       49.192       54.691     2424.609     2419.851     2991.060        0.886        0.392       76.233       46.596        0.374      338.844       11.772      869.912
01/25/2015  12:19:00       48.322      102.090       90.733       63.106       60.835       52.657     3982.362     3700.953     2772.809        1.572        0.523      112.949       51.710        0.210      338.633       11.415      869.871
01/25/2015  12:20:00      104.523       78.019       68.508       30.180       35.674       34.815      910.836     1272.668     1212.107        1.255        0.170      130.430       10.621        0.007      338.515       11.219      869.844
01/25/2015  12:21:00       64.349       33.969       29.558       26.147       28.910       30.300      683.653      835.815      918.088        0.430        0.122       72.764       10.724        0.022      338.696       11.523      869.830
01/25/2015  12:22:00       33.706       73.338       -7.312       32.644       35.216       22.539     1065.603     1240.183      508.029        0.469        0.141       80.713       18.696        0.054      338.710       11.546      869.805
01/25/2015  12:23:00       49.716       61.672      -16.548       28.736       44.892       30.861      825.741     2015.324      952.416        0.517        0.190       79.216       12.352        0.024      338.822       11.735      869.779
01/25/2015  12:24:00      -11.095       78.441       -5.017       19.005       32.791       25.948      361.184     1075.235      673.285        0.421        0.105       79.222       19.201        0.059      338.842       11.769      869.774
01/25/2015  12:25:00       28.454       35.614       10.055       23.867       38.615       31.603      569.624     1491.148      998.772        0.262        0.153       45.585       24.493        0.289      339.153       12.292      869.750
01/25/2015  12:26:00        6.714       64.388       -3.059       32.254       35.690       23.587     1040.346     1273.774      556.336        0.353        0.144       64.737       19.642        0.092      339.046       12.111      869.718
01/25/2015  12:27:00        8.082       37.598        9.010       23.461       29.621       23.424      550.440      877.417      548.691        0.177        0.099       38.457       20.201        0.276      339.150       12.287      869.687
01/25/2015  12:28:00       42.901       39.913       -1.525       35.069       30.384       29.550     1229.823      923.202      873.206        0.323        0.151       58.596       18.945        0.105      339.095       12.194      869.652
01/25/2015  12:29:00       20.330       44.113        4.193       42.257       33.191       32.744     1785.630     1101.643     1072.175        0.317        0.198       48.573       24.658        0.258      339.305       12.548      869.649
01/25/2015  12:30:00        5.449       41.410       37.182       29.551       31.247       25.046      873.246      976.403      627.300        0.280        0.124       41.767       12.361        0.088      339.342       12.610      869.649
01/25/2015  12:31:00      -28.537       -7.584       -7.100       52.608       32.474       28.927     2767.613     1054.566      836.754        0.279        0.233       29.527       20.275        0.472      339.034       12.092      869.631
01/25/2015  12:32:00      -46.726       -6.367       -8.302       23.666       26.778       20.307      560.091      717.075      412.370        0.199        0.084       47.158       18.775        0.159      338.990       12.016      869.613
01/25/2015  12:33:00       19.876      -97.779      -16.781       36.047       63.342       30.538     1299.381     4012.216      932.566        0.824        0.312       99.779       29.944        0.090      338.976       11.994      869.584
01/25/2015  12:34:00       20.346     -144.831      -20.164       68.422       66.797       34.625     4681.611     4461.873     1198.880        1.607        0.517      146.253       37.102        0.064      338.858       11.793      869.564
01/25/2015  12:35:00       82.538      -24.026       10.507       30.274       39.106       29.120      916.497     1529.281      847.993        0.540        0.165       85.964       28.197        0.108      338.857       11.794      869.570
01/25/2015  12:36:00       39.019       10.986       25.873       17.481       35.826       22.001      305.580     1283.469      484.050        0.219        0.104       40.537       23.859        0.346      338.766       11.641      869.544
01/25/2015  12:37:00       44.427       10.802       10.274       18.986       29.631       20.971      360.484      878.020      439.778        0.194        0.084       45.721       15.921        0.121      338.755       11.620      869.522
01/25/2015  12:38:00       49.072       38.491       21.502       39.285       41.502       42.797     1543.314     1722.421     1831.554        0.472        0.255       62.367       39.008        0.391      338.907       11.876      869.491
01/25/2015  12:39:00       37.874      -11.541       11.183       37.118       55.644       32.716     1377.712     3096.229     1070.335        0.362        0.277       39.593       35.618        0.809      339.082       12.173      869.447
01/25/2015  12:40:00       -2.431      -52.229       22.652       31.382       59.593       41.741      984.860     3551.346     1742.294        0.476        0.314       52.285       32.345        0.383      339.431       12.760      869.411
01/25/2015  12:41:00       69.450       14.138       45.792       60.573       56.938       41.542     3669.107     3241.935     1725.706        0.788        0.432       70.875       40.614        0.328      339.302       12.543      869.386
01/25/2015  12:42:00       81.178      -92.107       -3.657       38.983       30.430       26.194     1519.651      925.963      686.134        0.911        0.157      122.774       17.929        0.021      339.084       12.175      869.357
01/25/2015  12:43:00       54.156      -71.124        5.106       47.448       79.026       51.288     2251.329     6245.163     2630.500        0.957        0.556       89.395       52.728        0.348      339.256       12.464      869.319
01/25/2015  12:44:00       60.322      -95.084      -10.222       36.578       30.638       26.613     1337.968      938.670      708.272        0.788        0.149      112.604       10.837        0.009      338.894       11.856      869.294
01/25/2015  12:45:00      131.764       89.128       50.423       53.837       52.653       52.892     2898.376     2772.372     2797.596        1.816        0.423      159.078       32.214        0.041      338.941       11.935      869.255
01/25/2015  12:46:00       82.182       35.439       32.305       73.906       83.214       37.236     5462.098     6924.493     1386.486        1.141        0.689       89.497       35.067        0.154      339.119       12.234      869.226
01/25/2015  12:47:00      104.478      -77.979       12.806       64.889      133.402       68.644     4210.624    17796.169     4712.049        2.194        1.336      130.370       90.901        0.486      339.162       12.304      869.203
01/25/2015  12:48:00       21.478       74.172       66.160       31.542       51.076       37.659      994.909     2608.784     1418.195        0.768        0.251       77.220       33.400        0.187      339.361       12.641      869.199
01/25/2015  12:49:00       29.616       28.454       72.145       33.992       64.193       37.703     1155.436     4120.687     1421.530        0.679        0.335       41.070       42.188        1.055      339.309       12.554      869.171
01/25/2015  12:50:00       21.106      -40.012       22.002       22.614       38.020       18.006      511.376     1445.518      324.211        0.241        0.114       45.238       18.266        0.163      339.217       12.399      869.147
01/25/2015  12:51:00       53.700      -21.408       -2.785       42.715       33.720       31.598     1824.585     1137.007      998.461        0.365        0.198       57.810       24.439        0.179      339.243       12.443      869.120
01/25/2015  12:52:00        2.655      -60.719      -12.730       29.548       31.089       21.169      873.100      966.513      448.117        0.307        0.114       60.777       15.075        0.062      339.338       12.603      869.092
01/25/2015  12:53:00      -30.386      -24.916       13.721       44.554       29.866       29.300     1985.039      891.973      858.467        0.273        0.187       39.295       25.309        0.415      339.534       12.933      869.066
01/25/2015  12:54:00       14.892       -1.893       14.264       32.890       35.465       27.514     1081.785     1257.755      757.003        0.176        0.155       15.012       23.412        2.432      339.726       13.257      869.040
01/25/2015  12:55:00       31.307       40.728        2.571       34.465       26.819       23.985     1187.852      719.282      575.282        0.256        0.124       51.370       15.882        0.096      339.564       12.984      869.003
01/25/2015  12:56:00       45.848       60.818       -8.365       43.307       33.508       32.102     1875.481     1122.784     1030.520        0.495        0.201       76.163       23.624        0.096      339.420       12.741      868.972
01/25/2015  12:57:00       56.075       62.511       -4.019       21.937       32.318       30.340      481.245     1044.466      920.501        0.476        0.122       83.976       24.763        0.087      339.278       12.503      868.941
01/25/2015  12:58:00      110.264       90.882       16.637       50.014       38.366       37.699     2501.352     1471.930     1421.212        1.304        0.270      142.890       21.004        0.022      339.320       12.571      868.909
01/25/2015  12:59:00      136.600       72.689        6.121       77.460       58.937       37.850     6000.108     3473.598     1432.603        1.744        0.545      154.736       24.557        0.025      339.134       12.258      868.901
01/25/2015  13:00:00       49.847       56.282       26.258       33.040       28.509       32.225     1091.626      812.786     1038.432        0.464        0.147       75.182       19.661        0.068      339.509       12.892      868.890
01/25/2015  13:01:00      124.638       47.506       31.306       60.370       61.396       47.216     3644.489     3769.495     2229.341        1.421        0.482      133.385       43.186        0.105      339.340       12.606      868.868
01/25/2015  13:02:00      109.365       59.500       29.811       71.228       44.201       48.473     5073.405     1953.709     2349.665        1.288        0.469      124.502       36.049        0.084      339.230       12.422      868.841
01/25/2015  13:03:00       32.936       87.391       98.207       54.391       65.291       53.773     2958.396     4262.974     2891.583        1.424        0.506       93.392       50.230        0.289      339.745       13.288      868.827
01/25/2015  13:04:00       57.189       47.705       71.506       54.404       63.495       49.292     2959.754     4031.570     2429.660        1.004        0.471       74.473       46.194        0.385      339.581       13.011      868.798
01/25/2015  13:05:00       84.000      111.661       83.967       84.031       49.811       54.625     7061.255     2481.147     2983.912        1.955        0.626      139.729       56.577        0.164      339.494       12.865      868.771
01/25/2015  13:06:00       85.766       57.141       58.654       50.173       48.785       42.491     2517.377     2380.004     1805.475        1.038        0.335      103.057       28.477        0.076      339.521       12.911      868.751
01/25/2015  13:07:00      134.672       74.782       13.428       55.651       49.888       34.313     3097.054     2488.776     1177.353        1.534        0.338      154.042       29.687        0.037      339.427       12.752      868.708
01/25/2015  13:08:00      101.106       96.602        7.241       65.853       45.948       34.408     4336.670     2111.186     1183.908        1.362        0.382      139.837       30.830        0.049      339.424       12.748      868.675
01/25/2015  13:09:00       76.364       87.815       81.967       74.283       61.876       54.431     5517.947     3828.681     2962.694        1.628        0.615      116.374       46.692        0.161      339.655       13.137      868.645
01/25/2015  13:10:00      103.654      136.188      125.735       82.755       60.682       58.936     6848.327     3682.254     3473.493        2.955        0.700      171.147       55.545        0.105      339.604       13.048      868.623
01/25/2015  13:11:00      118.543      132.110      119.569       87.166       71.549       61.841     7597.970     5119.290     3824.263        3.117        0.827      177.498       64.092        0.130      339.507       12.883      868.597
01/25/2015  13:12:00      101.878       83.276      103.430       74.469       63.679       56.344     5545.639     4055.073     3174.665        2.039        0.639      131.583       49.226        0.140      339.491       12.859      868.577
01/25/2015  13:13:00       34.802       14.078       68.032       57.657       98.525       56.664     3324.372     9707.215     3210.795        1.114        0.812       37.542       64.292        2.933      339.856       13.475      868.548
01/25/2015  13:14:00       40.214      -80.480       18.836       46.475       77.828       37.151     2159.922     6057.171     1380.169        0.902        0.480       89.968       28.687        0.102      339.980       13.684      868.504
01/25/2015  13:15:00       67.752       -7.153       51.938       61.854       76.305       49.258     3825.939     5822.463     2426.361        0.970        0.604       68.129       50.418        0.548      339.825       13.424      868.468
01/25/2015  13:16:00       39.609      102.169      122.348       78.575       73.167       56.780     6173.999     5353.429     3223.930        2.086        0.738      109.578       62.217        0.322      339.840       13.449      868.456
01/25/2015  13:17:00       80.731       67.742       91.200       86.482       55.669       45.350     7479.063     3099.089     2056.579        1.603        0.632      105.387       42.449        0.162      339.882       13.519      868.455
01/25/2015  13:18:00       87.815       99.751       90.552       77.814       66.098       75.747     6054.975     4368.918     5737.666        2.101        0.808      132.898       66.287        0.249      339.915       13.574      868.448
01/25/2015  13:19:00       14.084       58.464       87.553       42.481       59.477       39.511     1804.658     3537.474     1561.147        0.909        0.345       60.137       36.476        0.368      340.307       14.237      868.430
01/25/2015  13:20:00       62.971       23.973       53.824       56.464       92.630       56.157     3188.130     8580.377     3153.580        1.118        0.746       67.380       59.881        0.790      340.164       13.996      868.406
01/25/2015  13:21:00       37.850       43.598       52.574       45.219       38.222       38.258     2044.764     1460.910     1463.637        0.553        0.248       57.736       23.956        0.172      340.376       14.353      868.375
01/25/2015  13:22:00       29.132       57.277       84.926       61.683       71.316       56.715     3804.819     5085.938     3216.594        1.172        0.605       64.260       51.486        0.642      340.436       14.456      868.339
01/25/2015  13:23:00       10.541       56.212       83.585       45.350       76.682       43.126     2056.578     5880.061     1859.879        1.003        0.490       57.192       41.883        0.536      340.467       14.508      868.298
01/25/2015  13:24:00       36.238      -39.981       45.401       57.579       78.480       45.181     3315.304     6159.078     2041.302        0.824        0.576       53.960       41.840        0.601      340.392       14.380      868.275
01/25/2015  13:25:00       14.511       28.642       49.390       42.919       52.953       39.954     1842.003     2804.068     1596.350        0.486        0.312       32.108       26.423        0.677      340.420       14.429      868.257
01/25/2015  13:26:00       44.488        9.917       49.913       48.252       67.505       41.444     2328.218     4556.960     1717.584        0.658        0.430       45.580       40.785        0.801      340.469       14.511      868.255
01/25/2015  13:27:00       27.234       34.954       64.229       49.378       69.804       39.430     2438.218     4872.666     1554.761        0.748        0.443       44.311       43.018        0.943      340.630       14.783      868.245
01/25/2015  13:28:00       43.856       98.637      107.304       90.427       84.391       59.174     8176.994     7121.812     3501.565        2.098        0.940      107.947       55.385        0.263      340.515       14.587      868.226
01/25/2015  13:29:00      130.179      131.627       95.757       67.403       59.010       61.439     4543.180     3482.206     3774.804        2.762        0.590      185.128       50.847        0.075      340.187       14.032      868.207
01/25/2015  13:30:00      115.875       96.487       86.693       76.505       67.542       50.314     5853.000     4561.901     2531.511        2.160        0.647      150.788       39.977        0.070      340.225       14.098      868.177
01/25/2015  13:31:00       11.345       54.009       74.922       44.306       61.726       40.304     1963.006     3810.050     1624.405        0.803        0.370       55.188       35.856        0.422      340.561       14.668      868.161
01/25/2015  13:32:00       36.913       16.617       46.816       59.157       98.563       43.516     3499.498     9714.626     1893.609        0.947        0.755       40.481       46.891        1.342      340.602       14.736      868.139
01/25/2015  13:33:00      102.896       61.058       68.626       68.983       59.485       54.772     4758.706     3538.450     2999.929        1.516        0.565      119.648       36.484        0.093      340.378       14.355      868.121
01/25/2015  13:34:00       91.022       57.366       65.505       78.933       65.244       59.258     6230.442     4256.810     3511.529        1.493        0.700      107.592       51.786        0.232      340.303       14.230      868.110
01/25/2015  13:35:00       92.386       15.127       49.160       69.274       78.097       52.157     4798.852     6099.181     2720.397        1.240        0.681       93.616       44.868        0.230      340.296       14.219      868.109
01/25/2015  13:36:00       81.738       63.715       53.168       76.446       56.881       46.352     5844.034     3235.445     2148.544        1.240        0.561      103.638       43.123        0.173      340.257       14.153      868.103
01/25/2015  13:37:00       32.927       33.638       61.235       48.633       66.436       40.724     2365.165     4413.775     1658.441        0.720        0.422       47.071       43.438        0.852      340.534       14.621      868.099
01/25/2015  13:38:00       92.804       25.804       29.288       44.717       33.191       36.978     1999.568     1101.634     1367.365        0.730        0.223       96.325       31.792        0.109      340.175       14.014      868.092
01/25/2015  13:39:00      157.295       83.220       56.257      109.267       62.549       60.658    11939.247     3912.429     3679.394        2.718        0.977      177.953       49.318        0.077      340.280       14.189      868.075
01/25/2015  13:40:00      108.127       53.120       52.028       84.950       69.175       52.819     7216.475     4785.189     2789.841        1.600        0.740      120.471       44.555        0.137      340.506       14.572      868.065
01/25/2015  13:41:00      121.079      121.252      146.778      114.466       96.083       69.259    13102.459     9231.936     4796.742        3.901        1.357      171.354       61.697        0.130      340.375       14.349      868.061
01/25/2015  13:42:00      111.770      115.830       93.629       84.954       66.535       77.862     7217.190     4426.885     6062.420        2.619        0.885      160.963       56.073        0.121      340.389       14.372      868.058
01/25/2015  13:43:00      106.304      119.262      106.676       79.689       70.404       62.190     6350.293     4956.794     3867.536        2.604        0.759      159.763       47.689        0.089      340.454       14.484      868.038
01/25/2015  13:44:00       60.564       71.259       77.010       69.414       74.267       46.223     4818.296     5515.573     2136.606        1.357        0.624       93.520       40.719        0.190      340.625       14.773      868.006
01/25/2015  13:45:00       34.748       59.014       74.925       62.659       51.289       39.900     3926.118     2630.605     1591.997        0.922        0.407       68.484       37.413        0.298      340.866       15.182      867.991
01/25/2015  13:46:00       27.771       62.716       74.386       50.273       77.282       50.371     2527.328     5972.434     2537.204        1.064        0.552       68.589       43.460        0.401      340.857       15.167      867.981
01/25/2015  13:47:00       62.637       44.882       66.626       60.396       57.547       46.878     3647.708     3311.608     2197.546        0.977        0.458       77.057       27.114        0.124      340.818       15.102      867.981
01/25/2015  13:48:00      -13.324       -3.164       20.319       27.498       46.064       27.325      756.167     2121.889      746.630        0.211        0.181       13.694       22.806        2.773      341.009       15.425      867.981
01/25/2015  13:49:00       89.800      -19.351       45.482       55.374       80.397       52.721     3066.255     6463.724     2779.493        1.141        0.615       91.861       34.138        0.138      340.825       15.112      867.960
01/25/2015  13:50:00       35.145      -32.552       37.030       62.510       83.046       46.877     3907.480     6896.704     2197.412        0.833        0.650       47.904       45.441        0.900      340.915       15.266      867.936
01/25/2015  13:51:00       34.162       65.418       51.328       45.175       57.560       37.028     2040.788     3313.161     1371.053        0.740        0.336       73.801       25.104        0.116      341.129       15.628      867.924
01/25/2015  13:52:00       96.530       59.626       84.916       87.557       95.923       56.612     7666.298     9201.303     3204.974        2.007        1.004      113.460       52.130        0.211      340.963       15.345      867.916
01/25/2015  13:53:00       10.527       83.556      122.159       41.681       93.661       56.490     1737.281     8772.397     3191.109        1.786        0.685       84.217       62.202        0.546      341.072       15.531      867.917
01/25/2015  13:54:00      132.814       76.883       97.062      126.517      104.876       78.554    16006.663    10998.911     6170.666        3.307        1.659      153.462       81.193        0.280      340.817       15.099      867.927
01/25/2015  13:55:00      104.917       38.419       81.573      107.488       77.172       61.495    11553.642     5955.477     3781.592        2.021        1.065      111.730       67.011        0.360      340.730       14.950      867.943
01/25/2015  13:56:00       45.240       18.720       64.225       77.755       75.580       52.423     6045.890     5712.316     2748.163        1.051        0.725       48.960       43.534        0.791      340.910       15.256      867.942
01/25/2015  13:57:00       14.627       -4.322       55.058       42.796       75.382       39.299     1831.470     5682.457     1544.384        0.616        0.453       15.252       38.172        6.264      341.076       15.539      867.928
01/25/2015  13:58:00       60.530       54.144       93.213       69.972       83.394       67.361     4896.103     6954.639     4537.571        1.583        0.819       81.212       61.959        0.582      340.895       15.230      867.916
01/25/2015  13:59:00       49.198      -53.380       21.204       50.083       78.454       38.251     2508.331     6155.031     1463.137        0.792        0.506       72.594       38.617        0.283      340.925       15.282      867.880
01/25/2015  14:00:00       14.125        3.812       44.619       44.339       66.113       36.894     1965.926     4370.865     1361.166        0.495        0.385       14.630       36.267        6.145      341.190       15.730      867.853
01/25/2015  14:01:00       15.127       16.819       43.377       41.157       85.275       47.479     1693.921     7271.794     2254.239        0.680        0.561       22.621       38.940        2.963      341.150       15.662      867.829
01/25/2015  14:02:00      111.177      110.940      124.598       93.239       89.583       65.173     8693.441     8025.126     4247.466        3.058        1.048      157.061       50.155        0.102      340.875       15.196      867.818
01/25/2015  14:03:00      130.855      114.853      129.956       94.619       86.851       59.025     8952.767     7543.023     3484.009        3.359        0.999      174.110       56.283        0.104      340.699       14.897      867.821
01/25/2015  14:04:00      112.575      119.371       94.206       69.352       55.778       55.512     4809.688     3111.149     3081.575        2.340        0.550      164.081       51.243        0.098      340.730       14.951      867.822
01/25/2015  14:05:00       67.949       89.209      109.402       74.504       65.341       51.239     5550.917     4269.399     2625.445        1.849        0.622      112.140       47.467        0.179      340.868       15.184      867.802
01/25/2015  14:06:00      123.677       54.601       24.353       56.129       43.935       44.332     3150.423     1930.277     1965.362        1.296        0.352      135.194       27.791        0.042      341.061       15.511      867.779
01/25/2015  14:07:00      124.104       78.915       97.346      110.126       93.502       77.886    12127.782     8742.653     6066.151        2.902        1.347      147.069       72.536        0.243      341.039       15.474      867.754
01/25/2015  14:08:00      108.222      104.535      109.853       97.627       78.479       64.423     9530.941     6158.956     4150.286        2.727        0.992      150.464       63.092        0.176      340.955       15.331      867.738
01/25/2015  14:09:00      125.893      116.082      103.397       73.098       61.844       53.378     5343.350     3824.636     2849.181        2.601        0.601      171.243       34.992        0.042      341.102       15.580      867.732
01/25/2015  14:10:00      102.980       44.545       79.868       78.647       68.904       53.262     6185.326     4747.732     2836.890        1.637        0.688      112.201       51.189        0.208      341.231       15.798      867.727
01/25/2015  14:11:00      124.356       81.670       72.667       71.354       95.009       71.863     5091.401     9026.735     5164.222        2.335        0.964      148.777       57.594        0.150      341.183       15.716      867.717
01/25/2015  14:12:00       15.820       71.170      111.876       57.450       63.964       46.868     3300.497     4091.370     2196.581        1.371        0.479       72.907       47.150        0.418      341.369       16.032      867.691
01/25/2015  14:13:00       74.041       59.661       60.076       53.306       66.395       40.136     2841.479     4408.304     1610.889        1.075        0.443       95.087       34.614        0.133      341.444       16.162      867.674
01/25/2015  14:14:00      115.480       53.945       41.356       84.064       58.745       51.084     7066.831     3451.017     2609.576        1.554        0.656      127.458       31.779        0.062      341.444       16.159      867.680
01/25/2015  14:15:00      131.529       72.775       54.040       67.226       57.670       60.421     4519.395     3325.850     3650.679        1.850        0.575      150.320       37.718        0.063      341.371       16.036      867.672
01/25/2015  14:16:00      201.869      110.417       37.520      119.032       82.487       70.789    14168.640     6804.140     5011.054        4.016        1.299      230.093       46.730        0.041      341.207       15.759      867.686
01/25/2015  14:17:00       40.050       46.037       82.800       92.940       85.413       52.172     8637.895     7295.299     2721.928        1.461        0.933       61.019       54.207        0.789      341.547       16.335      867.692
01/25/2015  14:18:00      106.215      110.109      122.495      105.938       88.727       90.487    11222.946     7872.432     8187.979        3.284        1.364      152.989       72.227        0.223      341.180       15.710      867.698
01/25/2015  14:19:00      154.785       96.755       81.026      126.346       89.854       84.622    15963.268     8073.679     7160.915        3.554        1.560      182.537       85.929        0.222      341.266       15.857      867.676
01/25/2015  14:20:00      218.808      143.036       41.378      103.410       96.223       61.867    10693.666     9258.852     3827.491        4.691        1.189      261.412       35.823        0.019      341.222       15.780      867.663
01/25/2015  14:21:00      140.988       85.524       52.288       66.968       63.158       51.467     4484.749     3988.979     2648.861        2.052        0.556      164.900       39.216        0.057      341.445       16.163      867.646
01/25/2015  14:22:00      131.976       90.759       24.156       97.107       69.478       70.604     9429.723     4827.196     4984.859        2.274        0.962      160.171       42.361        0.070      341.371       16.035      867.633
01/25/2015  14:23:00      127.050       39.188       28.126       80.300       73.929       52.602     6448.029     5465.425     2766.951        1.657        0.734      132.956       45.693        0.118      341.540       16.323      867.624
01/25/2015  14:24:00      104.129       68.200        8.480       78.788       61.724       51.583     6207.512     3809.908     2660.780        1.412        0.634      124.475       21.866        0.031      341.555       16.349      867.622
01/25/2015  14:25:00      158.555      107.440       16.953       68.004       53.273       41.584     4624.562     2837.974     1729.239        2.308        0.460      191.528       25.813        0.018      341.531       16.306      867.632
01/25/2015  14:26:00      222.065      138.279       25.777       96.524       59.651       59.767     9316.805     3558.284     3572.057        4.277        0.822      261.599       40.464        0.024      341.491       16.237      867.617
01/25/2015  14:27:00      112.315      109.679       41.785       94.413       58.546       64.718     8913.777     3427.665     4188.406        2.146        0.826      156.984       50.484        0.103      341.602       16.426      867.623
01/25/2015  14:28:00      219.601      176.022       11.573      128.538       69.767       78.877    16522.063     4867.398     6221.526        5.347        1.381      281.440       61.720        0.048      341.518       16.283      867.621
01/25/2015  14:29:00      206.728      135.734       37.187       83.367       49.569       58.243     6950.046     2457.066     3392.281        3.767        0.640      247.306       35.334        0.020      341.321       15.949      867.607
01/25/2015  14:30:00      197.195      113.347       55.802       95.998       69.408       67.473     9215.609     4817.412     4552.633        3.671        0.929      227.450       46.493        0.042      341.492       16.237      867.585
01/25/2015  14:31:00      132.199      104.395       18.924       73.244       56.538       63.241     5364.615     3196.503     3999.402        2.064        0.628      168.449       40.234        0.057      341.554       16.346      867.563
01/25/2015  14:32:00       93.206      101.106       69.009       81.474       74.271       66.439     6637.958     5516.213     4414.092        2.012        0.828      137.513       44.088        0.103      341.730       16.643      867.546
01/25/2015  14:33:00       55.662      101.824      100.623       69.909       54.703       44.214     4887.200     2992.462     1954.901        1.671        0.492      116.045       37.956        0.107      341.804       16.770      867.529
01/25/2015  14:34:00       20.780       53.797       65.597       49.989       63.219       48.610     2498.884     3996.664     2362.934        0.824        0.443       57.671       50.655        0.772      341.940       17.001      867.526
01/25/2015  14:35:00      119.648      107.818       89.183      149.875       94.803       72.464    22462.607     8987.561     5250.974        3.529        1.835      161.060       60.781        0.142      341.844       16.836      867.526
01/25/2015  14:36:00      126.036      132.788       80.254      102.507       85.834       74.915    10507.678     7367.400     5612.262        3.172        1.174      183.078       39.612        0.047      341.677       16.553      867.523
01/25/2015  14:37:00      105.106       44.659       24.999       71.225       43.076       37.635     5072.997     1855.553     1416.404        1.100        0.417      114.201       16.561        0.021      341.773       16.718      867.511
01/25/2015  14:38:00      100.816       54.719       68.751       97.186       69.750       48.768     9445.034     4865.094     2378.355        1.728        0.834      114.708       37.707        0.108      341.795       16.755      867.487
01/25/2015  14:39:00       94.873       66.650       70.536      124.777       79.885       73.672    15569.383     6381.637     5427.518        2.289        1.369      115.944       64.746        0.312      341.765       16.704      867.477
01/25/2015  14:40:00      168.529      132.318      110.036      148.014       89.636       96.546    21908.170     8034.694     9321.208        4.863        1.963      214.266       98.164        0.210      341.723       16.630      867.481
01/25/2015  14:41:00       80.001       55.471       96.126      110.732      158.083       96.474    12261.594    24990.349     9307.152        3.263        2.328       97.351      105.786        1.181      341.822       16.798      867.473
01/25/2015  14:42:00       62.267       19.997       32.291       80.207      112.304       64.246     6433.084    12612.081     4127.491        1.424        1.159       65.399       28.753        0.193      341.919       16.966      867.468
01/25/2015  14:43:00      156.866       96.352       65.431      122.389      105.758       82.062    14978.959    11184.676     6734.153        3.553        1.645      184.094       63.286        0.118      341.814       16.786      867.471
01/25/2015  14:44:00      119.878      103.174      101.360      159.258       98.493       87.984    25363.157     9700.913     7741.098        3.904        2.140      158.163       86.818        0.301      341.771       16.713      867.464
01/25/2015  14:45:00      189.970      130.358       76.257      125.095       87.862       69.205    15648.784     7719.714     4789.371        4.352        1.408      230.395       66.879        0.084      341.654       16.513      867.468
01/25/2015  14:46:00      175.116       97.134      113.881      109.520      108.662       81.656    11994.640    11807.411     6667.723        4.176        1.523      200.251       71.560        0.128      341.621       16.458      867.466
01/25/2015  14:47:00       77.908      141.782      148.021       92.250      102.340       66.978     8509.998    10473.409     4486.050        3.577        1.173      161.776       67.806        0.176      341.750       16.676      867.467
01/25/2015  14:48:00      173.758      112.544      101.144      111.108       87.832       70.866    12345.013     7714.524     5021.988        3.908        1.254      207.022       48.310        0.054      341.629       16.471      867.462
01/25/2015  14:49:00      178.396      190.694      203.318      110.418      111.097      109.820    12192.038    12342.532    12060.476        7.306        1.830      261.131       81.613        0.098      341.394       16.073      867.457
01/25/2015  14:50:00      138.215      124.140       80.467      113.352       98.254       87.559    12848.606     9653.901     7666.526        3.557        1.508      185.780       66.305        0.127      341.456       16.178      867.448
01/25/2015  14:51:00       93.526        2.538       88.297      107.223      145.426       72.320    11496.726    21148.582     5230.151        2.721        1.894       93.560       87.933        0.883      341.698       16.589      867.462
01/25/2015  14:52:00       51.466       58.606       82.830       75.921       75.028       57.645     5764.016     5629.229     3322.891        1.383        0.736       77.996       38.424        0.243      341.735       16.654      867.451
01/25/2015  14:53:00      116.724      119.994      103.307       93.659       84.151       70.347     8771.963     7081.438     4948.708        2.975        1.040      167.401       58.101        0.120      341.645       16.500      867.469
01/25/2015  14:54:00      144.303      129.857      121.733      104.641       90.136       71.460    10949.777     8124.569     5106.544        3.834        1.209      194.130       77.149        0.158      341.691       16.575      867.497
01/25/2015  14:55:00      123.710       96.738       93.932      116.235       78.585       79.384    13510.558     6175.630     6301.838        2.973        1.299      157.043       66.866        0.181      341.694       16.581      867.516
01/25/2015  14:56:00      159.501       84.592      107.101      108.368      127.970      104.894    11743.565    16376.216    11002.790        4.159        1.956      180.544       78.944        0.191      341.438       16.147      867.522
01/25/2015  14:57:00      149.564       94.952       73.584      102.006       77.537       75.323    10405.258     6012.042     5673.530        2.944        1.105      177.159       57.602        0.106      341.515       16.278      867.531
01/25/2015  14:58:00       16.275       52.334      103.534       58.170       85.990       41.331     3383.705     7394.296     1708.249        1.310        0.624       54.806       35.874        0.428      341.786       16.740      867.532
01/25/2015  14:59:00      113.905       57.579       25.426       93.321       58.887       42.164     8708.784     3467.690     1777.776        1.544        0.698      127.631       23.349        0.033      341.764       16.702      867.554
01/25/2015  15:00:00      133.430       41.933       69.538       93.756       74.959       65.166     8790.153     5618.899     4246.619        2.152        0.933      139.864       44.789        0.103      341.736       16.654      867.552
01/25/2015  15:01:00      188.869       92.374      118.123      130.988      116.352       81.244    17157.901    13537.821     6600.646        4.772        1.865      210.248       79.358        0.142      341.632       16.476      867.550
01/25/2015  15:02:00      138.753      183.232      150.297       95.475       98.300       82.779     9115.525     9662.933     6852.377        5.052        1.282      229.840       46.546        0.041      341.561       16.357      867.574
01/25/2015  15:03:00      175.165      147.786      164.740      130.935      117.885       83.570    17144.082    13896.849     6984.026        5.884        1.901      229.180       81.000        0.125      341.455       16.175      867.585
01/25/2015  15:04:00      180.067       95.839       85.469      127.178       95.729       79.571    16174.127     9164.068     6331.476        4.029        1.583      203.983       79.755        0.153      341.498       16.248      867.607
01/25/2015  15:05:00      165.276       74.410       88.619      127.663       81.536       67.758    16297.796     6648.084     4591.212        3.412        1.377      181.254       55.992        0.095      341.455       16.177      867.613
01/25/2015  15:06:00      121.360      117.898      100.828      116.451       92.992       94.037    13560.793     8647.498     8842.999        3.492        1.553      169.199       82.901        0.240      341.540       16.321      867.604
01/25/2015  15:07:00      185.008      132.101       56.748       88.320       65.477       71.237     7800.391     4287.247     5074.731        3.603        0.858      227.329       38.628        0.029      341.525       16.294      867.611
01/25/2015  15:08:00      212.284      117.468       50.472       88.559       76.515       76.549     7842.749     5854.469     5859.819        4.048        0.978      242.618       58.411        0.058      341.527       16.296      867.601
01/25/2015  15:09:00      190.544      119.330       94.254      122.261      123.106       99.875    14947.699    15155.154     9974.923        4.975        2.004      224.826       88.477        0.155      341.490       16.236      867.581
01/25/2015  15:10:00      101.193       47.040       67.337       87.822       96.952       65.504     7712.703     9399.602     4290.762        1.919        1.070      111.592       46.968        0.177      341.568       16.369      867.581
01/25/2015  15:11:00      113.653       57.355       45.400      116.375       68.170       55.813    13543.247     4647.156     3115.106        1.978        1.065      127.305       32.316        0.064      341.617       16.453      867.589
01/25/2015  15:12:00      144.780      105.104      107.121      101.124      123.712       71.400    10226.035    15304.714     5098.023        3.705        1.531      178.908       64.345        0.129      341.550       16.338      867.586
01/25/2015  15:13:00      135.960       60.018       32.696       86.109       61.799       65.447     7414.720     3819.169     4283.305        1.933        0.776      148.618       54.180        0.133      341.636       16.484      867.594
01/25/2015  15:14:00      144.079       77.330       21.424      102.153       78.658       57.937    10435.334     6187.046     3356.735        2.359        0.999      163.520       27.594        0.028      341.433       16.140      867.578
01/25/2015  15:15:00       86.637      108.987        0.705      103.012      103.504       72.749    10611.370    10713.029     5292.392        2.300        1.331      139.227       65.819        0.223      341.491       16.238      867.550
01/25/2015  15:16:00       91.266       76.287       14.513       81.954       70.412       47.663     6716.524     4957.881     2271.751        1.415        0.697      118.950       35.932        0.091      341.513       16.276      867.530
01/25/2015  15:17:00       95.366       75.866       64.803       77.646       57.553       53.704     6028.943     3312.380     2884.138        1.564        0.611      121.862       55.492        0.207      341.733       16.650      867.530
01/25/2015  15:18:00      119.893       72.773       80.879      100.759       86.513       79.404    10152.344     7484.484     6305.062        2.507        1.197      140.251       68.217        0.237      341.475       16.211      867.517
01/25/2015  15:19:00      101.200       31.939       58.589       84.613       84.989       60.107     7159.341     7223.045     3612.879        1.634        0.900      106.121       62.620        0.348      341.561       16.357      867.527
01/25/2015  15:20:00       62.071       10.801       49.150       76.679       99.609       51.991     5879.649     9921.974     2703.020        1.244        0.925       63.004       51.383        0.665      341.643       16.496      867.525
01/25/2015  15:21:00      131.618       74.378       35.927       87.469       70.302       57.276     7650.860     4942.424     3280.579        2.001        0.794      151.180       38.904        0.066      341.623       16.463      867.526
01/25/2015  15:22:00      136.114       69.237       27.768       69.379       75.214       51.519     4813.507     5657.078     2654.259        1.861        0.656      152.711       38.105        0.062      341.609       16.439      867.526
01/25/2015  15:23:00       99.578       56.744        8.122       91.093       65.058       49.646     8297.889     4232.503     2464.765        1.410        0.750      114.611       12.495        0.012      341.550       16.341      867.545
01/25/2015  15:24:00      221.544      146.048       23.592       87.907       76.604       65.174     7727.642     5868.231     4247.634        4.440        0.892      265.352       36.764        0.019      341.463       16.191      867.551
01/25/2015  15:25:00      143.163       91.331       34.781      108.919       74.648       64.057    11863.445     5572.332     4103.262        2.579        1.077      169.815       34.002        0.040      341.497       16.249      867.552
01/25/2015  15:26:00      251.482      155.414       52.535      118.982      106.807       66.082    14156.730    11407.670     4366.767        6.004        1.497      295.629       56.978        0.037      341.408       16.098      867.577
01/25/2015  15:27:00      241.028      151.484       32.887      105.497       72.467       61.508    11129.721     5251.538     3783.186        5.114        1.008      284.679       13.321        0.002      341.354       16.006      867.593
01/25/2015  15:28:00      191.522      113.836       29.530       96.793       62.870       49.903     9368.875     3952.640     2490.324        3.316        0.791      222.798       39.352        0.031      341.248       15.826      867.592
01/25/2015  15:29:00      129.987      116.181       20.067      102.385       68.936       48.729    10482.630     4752.112     2374.479        2.420        0.880      174.341       31.801        0.033      341.292       15.901      867.594
01/25/2015  15:30:00      215.284      136.299       20.343      103.098       74.096       54.617    10629.280     5490.274     2982.992        4.222        0.955      254.804       22.965        0.008      341.259       15.846      867.581
01/25/2015  15:31:00      125.497       52.654       21.023       70.811       61.128       41.411     5014.196     3736.663     1714.879        1.471        0.523      136.096       11.570        0.007      341.372       16.038      867.572
01/25/2015  15:32:00      158.048      108.658        8.797       86.964       56.364       48.251     7562.698     3176.891     2328.191        2.496        0.653      191.795       23.740        0.015      341.343       15.988      867.556
01/25/2015  15:33:00      191.259       92.587       15.789       78.076       68.428       46.330     6095.915     4682.454     2146.490        2.916        0.646      212.491       28.957        0.019      341.327       15.959      867.534
01/25/2015  15:34:00      123.935       99.700       27.166       82.807       63.278       60.923     6856.941     4004.109     3711.565        2.030        0.729      159.060       20.203        0.016      341.315       15.941      867.533
01/25/2015  15:35:00      191.162      115.516       30.330       71.025       79.413       37.289     5044.569     6306.452     1390.461        3.177        0.637      223.354       27.526        0.015      341.309       15.930      867.527
01/25/2015  15:36:00      114.591       72.003       39.656       54.621       50.800       46.865     2983.508     2580.616     2196.310        1.382        0.388      135.335       26.474        0.038      341.368       16.032      867.532
01/25/2015  15:37:00      108.235       61.848       39.005       87.363       56.605       56.933     7632.277     3204.099     3241.312        1.557        0.704      124.660       29.936        0.058      341.382       16.055      867.531
01/25/2015  15:38:00      156.666      105.335       13.369       55.758       47.199       44.574     3108.907     2227.728     1986.830        2.157        0.366      188.785       21.885        0.013      341.304       15.922      867.535
01/25/2015  15:39:00       96.111       85.707       41.723       81.275       56.433       35.195     6605.689     3184.677     1238.684        1.467        0.551      128.775       24.581        0.036      341.369       16.031      867.538
01/25/2015  15:40:00       77.569       49.326       -3.591       50.192       47.794       36.475     2519.198     2284.222     1330.407        0.730        0.307       91.924       22.593        0.060      341.368       16.031      867.543
01/25/2015  15:41:00      145.419       87.595       32.775       85.880       71.778       46.398     7375.444     5152.059     2152.732        2.228        0.734      169.763       29.608        0.030      341.329       15.965      867.551
01/25/2015  15:42:00      130.208       97.648       14.459       84.487       63.525       53.543     7137.985     4035.485     2866.809        2.037        0.702      162.755       29.678        0.033      341.307       15.927      867.565
01/25/2015  15:43:00       87.805       24.512       28.098       62.918       52.444       37.996     3958.618     2750.361     1443.671        0.863        0.408       91.162       24.155        0.070      341.325       15.958      867.591
01/25/2015  15:44:00       44.251       82.935       29.857       64.198       61.961       40.751     4121.430     3839.182     1660.630        0.967        0.481       94.002       39.801        0.179      341.374       16.042      867.598
01/25/2015  15:45:00      183.419      122.899       17.213       83.627       57.582       53.495     6993.551     3315.711     2861.737        3.110        0.659      220.786       15.181        0.005      341.301       15.917      867.603
01/25/2015  15:46:00      164.845      119.668        9.164       57.195       48.272       29.784     3271.272     2330.179      887.084        2.403        0.324      203.701       14.163        0.005      341.218       15.776      867.614
01/25/2015  15:47:00       62.017       37.586       26.674       39.471       32.037       25.355     1557.945     1026.374      642.900        0.460        0.161       72.518       23.580        0.106      341.315       15.942      867.623
01/25/2015  15:48:00       16.187       31.677       21.536       20.520       18.917       10.146      421.074      357.855      102.943        0.131        0.044       35.573        7.302        0.042      341.358       16.015      867.627
01/25/2015  15:49:00       54.159      -15.174       13.932       34.898       29.126       21.829     1217.889      848.296      476.503        0.295        0.127       56.244       14.202        0.064      341.374       16.042      867.632
01/25/2015  15:50:00       30.344       22.342       37.401       35.250       24.883       21.145     1242.543      619.142      447.096        0.256        0.115       37.682       17.068        0.205      341.445       16.163      867.635
01/25/2015  15:51:00       16.612      -19.120       28.389       34.514       41.234       29.735     1191.242     1700.228      884.168        0.261        0.189       25.329       27.824        1.207      341.522       16.292      867.643
01/25/2015  15:52:00       77.590       55.588       23.774       48.651       32.304       30.767     2366.898     1043.519      946.590        0.702        0.218       95.447       21.522        0.051      341.357       16.012      867.642
01/25/2015  15:53:00      101.145       94.735       15.768       66.904       56.235       42.871     4476.200     3162.372     1837.896        1.446        0.474      138.582       22.633        0.027      341.203       15.751      867.645
01/25/2015  15:54:00       53.497       93.815       -4.647       50.431       48.407       39.369     2543.256     2343.268     1549.900        0.906        0.322      107.996       29.037        0.072      341.236       15.809      867.652
01/25/2015  15:55:00      -15.424      102.274      -16.077       30.524       42.879       15.282      931.713     1838.567      233.529        0.698        0.150      103.430       18.192        0.031      341.282       15.887      867.656
01/25/2015  15:56:00        0.673       78.725      -17.157       23.573       40.073       12.953      555.700     1605.876      167.778        0.441        0.116       78.728       10.988        0.019      341.301       15.919      867.671
01/25/2015  15:57:00       17.669       71.081      -13.214       23.508       39.386       14.947      552.619     1551.262      223.408        0.393        0.116       73.244       20.967        0.082      341.327       15.962      867.676
01/25/2015  15:58:00       50.458       67.950       -5.317       35.047       39.863       27.074     1228.264     1589.056      733.004        0.537        0.178       84.636       23.829        0.079      341.301       15.919      867.681
01/25/2015  15:59:00       36.927       43.642        1.650       51.012       34.285       24.466     2602.240     1175.495      598.573        0.382        0.219       57.169       24.801        0.188      341.347       15.996      867.671
01/25/2015  16:00:00       44.208       21.791       14.066       63.076       30.240       18.989     3978.562      914.429      360.586        0.394        0.263       49.287       17.488        0.126      341.324       15.957      867.649
01/25/2015  16:01:00       93.991       52.249       55.334       49.303       32.257       35.580     2430.776     1040.525     1265.953        0.968        0.237      107.537       25.050        0.054      341.270       15.866      867.634
01/25/2015  16:02:00       46.923       33.575       15.506       32.020       24.949       19.623     1025.291      622.442      385.049        0.280        0.102       57.698       13.309        0.053      341.271       15.868      867.629
01/25/2015  16:03:00       61.418       -2.465       25.631       48.036       29.657       22.879     2307.449      879.543      523.441        0.407        0.186       61.467       20.518        0.111      341.304       15.925      867.619
01/25/2015  16:04:00       32.977       18.438       11.981       32.191       24.172       18.641     1036.273      584.298      347.486        0.177        0.098       37.781       16.224        0.184      341.377       16.048      867.608
01/25/2015  16:05:00       32.916       17.230        5.613       17.555       22.422       17.738      308.191      502.732      314.645        0.127        0.056       37.153        7.775        0.044      341.341       15.988      867.616
01/25/2015  16:06:00       44.620       19.129       22.469       39.832       29.190       24.374     1586.617      852.072      594.074        0.295        0.152       48.547       24.409        0.253      341.310       15.933      867.626
01/25/2015  16:07:00       64.074      -49.766       12.691       50.102       67.615       37.597     2510.236     4571.730     1413.500        0.762        0.425       81.130       41.154        0.257      341.392       16.073      867.638
01/25/2015  16:08:00       70.404      -85.044       -8.235       34.956       39.134       28.421     1221.903     1531.454      807.734        0.791        0.178      110.405       20.739        0.035      341.271       15.868      867.653
01/25/2015  16:09:00       -1.391       -8.893       -2.155       19.342       38.931       18.569      374.121     1515.659      344.804        0.116        0.112        9.002       20.302        5.087      341.391       16.071      867.662
01/25/2015  16:10:00       30.553       27.345        1.250       15.820       16.668       15.239      250.264      277.835      232.242        0.122        0.038       41.003        9.454        0.053      341.218       15.779      867.677
01/25/2015  16:11:00       19.695       20.723        1.231       17.941       11.856       13.494      321.894      140.571      182.075        0.073        0.032       28.589        7.108        0.062      341.227       15.793      867.685
01/25/2015  16:12:00       32.291        1.272       14.556       26.196       33.755       16.343      686.224     1139.366      267.078        0.167        0.105       32.316       10.502        0.106      341.251       15.835      867.671
01/25/2015  16:13:00       23.851       -7.955       10.092       24.941       40.176       23.813      622.046     1614.140      567.075        0.177        0.140       25.143       17.509        0.485      341.381       16.052      867.662
01/25/2015  16:14:00       42.068       12.918       22.370       57.970       46.991       28.869     3360.544     2208.122      833.412        0.442        0.320       44.006       34.850        0.627      341.393       16.074      867.648
01/25/2015  16:15:00       24.594       19.335       43.662       46.757       51.525       41.978     2186.227     2654.820     1762.168        0.474        0.330       31.284       43.286        1.914      341.395       16.077      867.636
01/25/2015  16:16:00       71.899       28.566       30.631       66.183       41.754       46.463     4380.162     1743.382     2158.800        0.760        0.414       77.366       34.444        0.198      341.321       15.950      867.636
01/25/2015  16:17:00       41.649       34.840        4.556       28.136       42.029       17.165      791.628     1766.415      294.630        0.291        0.143       54.300       13.995        0.066      341.251       15.833      867.630
01/25/2015  16:18:00       88.168       80.616       26.917       29.782       29.137       29.863      886.997      848.953      891.807        0.881        0.131      119.468       21.080        0.031      341.165       15.688      867.629
01/25/2015  16:19:00       93.850       21.898       15.593       36.413       51.246       25.540     1325.901     2626.117      652.268        0.707        0.230       96.371       20.627        0.046      341.273       15.872      867.620
01/25/2015  16:20:00       75.387       40.738       13.798       43.818       31.815       24.768     1920.003     1012.203      613.462        0.554        0.177       85.690       18.884        0.049      341.239       15.814      867.601
01/25/2015  16:21:00       61.859       35.474        5.836       28.752       24.130       23.016      826.691      582.251      529.730        0.353        0.097       71.309       14.962        0.044      341.216       15.776      867.591
01/25/2015  16:22:00       57.524       33.330       28.894       27.981       33.775       23.020      782.930     1140.766      529.906        0.385        0.123       66.482       18.138        0.074      341.294       15.908      867.573
01/25/2015  16:23:00       25.618       48.688        7.837       32.686       27.544       26.771     1068.356      758.675      716.711        0.282        0.127       55.017       19.096        0.120      341.250       15.832      867.554
01/25/2015  16:24:00       10.531      142.043      -24.441       34.183       71.745       27.621     1168.455     5147.283      762.921        1.398        0.354      142.433       37.715        0.070      341.256       15.841      867.541
01/25/2015  16:25:00       51.617      117.739       -9.202       48.167       98.464       47.497     2320.078     9695.183     2255.961        1.544        0.714      128.557       52.332        0.166      341.204       15.753      867.533
01/25/2015  16:26:00       85.279       86.002       12.727       78.905       49.471       36.265     6225.967     2447.369     1315.161        1.241        0.499      121.115       29.702        0.060      341.200       15.747      867.543
01/25/2015  16:27:00       80.805      124.047        6.016       70.045       69.825       60.761     4906.264     4875.463     3691.860        1.771        0.674      148.044       51.744        0.122      341.120       15.611      867.562
01/25/2015  16:28:00       74.618       93.485        6.346       57.553       53.180       44.657     3312.303     2828.150     1994.236        1.124        0.407      119.612       30.871        0.067      341.063       15.517      867.565
01/25/2015  16:29:00       40.384      130.180       -4.241       67.656       67.424       49.360     4577.388     4546.026     2436.409        1.508        0.578      136.300       39.581        0.084      341.064       15.517      867.565
01/25/2015  16:30:00       44.247      169.442      -13.189       52.872       90.694       50.444     2795.452     8225.417     2544.560        2.220        0.678      175.124       56.860        0.105      341.090       15.559      867.563
01/25/2015  16:31:00       27.398      143.245       -5.347       45.064      126.628       53.424     2030.758    16034.688     2854.103        2.111        1.046      145.842       73.317        0.253      341.085       15.550      867.563
01/25/2015  16:32:00       27.585      144.274       -9.579       53.773      119.903       48.694     2891.505    14376.818     2371.114        2.065        0.982      146.887       64.341        0.192      341.034       15.466      867.572
01/25/2015  16:33:00        7.158      105.787       -3.628       38.286       61.246       39.101     1465.789     3751.108     1528.866        0.900        0.337      106.029       39.925        0.142      341.010       15.427      867.575
01/25/2015  16:34:00       36.445      117.595      -11.826       56.628       71.710       41.313     3206.713     5142.365     1706.768        1.267        0.503      123.113       39.806        0.105      340.945       15.314      867.567
01/25/2015  16:35:00      111.726       55.970       14.606       56.696       33.430       28.831     3214.433     1117.540      831.206        1.049        0.258      124.961        5.564        0.002      340.884       15.211      867.562
01/25/2015  16:36:00      134.110      100.508        8.992       54.311       34.991       32.780     2949.679     1224.369     1074.520        1.671        0.262      167.592       12.967        0.006      340.979       15.372      867.551
01/25/2015  16:37:00       75.571       87.909       -0.798       66.796       61.103       44.338     4461.756     3733.529     1965.820        1.180        0.508      115.926       41.015        0.125      340.984       15.382      867.532
01/25/2015  16:38:00      131.596       95.122        6.286       76.334       66.997       51.962     5826.808     4488.532     2700.047        1.971        0.651      162.375       38.617        0.057      340.986       15.382      867.507
01/25/2015  16:39:00      251.594      175.601       29.261      120.847       92.616       59.616    14604.090     8577.675     3554.061        6.086        1.337      306.815       39.207        0.016      340.895       15.227      867.508
01/25/2015  16:40:00      199.601      137.407       36.152       76.324       64.393       57.438     5825.420     4146.435     3299.130        3.665        0.664      242.325       24.774        0.010      340.815       15.093      867.498
01/25/2015  16:41:00      186.735      138.419       20.830       94.604       67.658       69.059     8949.971     4577.538     4769.210        3.638        0.915      232.443       41.608        0.032      340.799       15.065      867.492
01/25/2015  16:42:00      286.539      212.948       30.683      107.471       81.035       72.279    11550.110     6566.605     5224.257        7.586        1.167      357.003       46.863        0.017      340.804       15.075      867.492
01/25/2015  16:43:00      101.349       69.311       10.491       92.180       75.787       43.572     8497.128     5743.686     1898.556        1.566        0.807      122.783       40.622        0.109      340.742       14.971      867.509
01/25/2015  16:44:00       73.644      104.574        5.426       75.870       68.424       55.195     5756.188     4681.799     3046.522        1.493        0.674      127.903       42.082        0.108      340.730       14.951      867.529
01/25/2015  16:45:00      138.855      111.532       29.205       93.492       73.202       44.562     8740.682     5358.462     1985.800        2.433        0.804      178.101       19.498        0.012      340.677       14.863      867.538
01/25/2015  16:46:00      127.210      105.919       25.143       73.774       48.167       55.866     5442.605     2320.108     3120.955        1.946        0.544      165.533       31.230        0.036      340.676       14.859      867.542
01/25/2015  16:47:00       53.895      150.300       -7.519       76.366      100.905       57.310     5831.761    10181.821     3284.385        2.242        0.965      159.670       52.663        0.109      340.659       14.831      867.547
01/25/2015  16:48:00       88.219      118.058       -1.478       87.824       75.097       54.940     7713.103     5639.536     3018.425        1.904        0.819      147.378       49.634        0.113      340.642       14.800      867.539
01/25/2015  16:49:00      100.521       84.087       -3.625       65.706       60.766       50.429     4317.328     3692.466     2543.116        1.387        0.528      131.053       37.246        0.081      340.621       14.768      867.532
01/25/2015  16:50:00       41.523       90.300        6.032       59.978       61.467       38.749     3597.373     3778.213     1501.457        0.939        0.444       99.389       38.835        0.153      340.622       14.769      867.523
01/25/2015  16:51:00       58.845      137.002       -6.223       65.723       86.395       55.023     4319.519     7464.042     3027.555        1.854        0.741      149.105       49.632        0.111      340.621       14.766      867.513
01/25/2015  16:52:00       36.473      243.839      -22.609       66.434      119.056       64.519     4413.485    14174.442     4162.669        4.202        1.138      246.552       67.068        0.074      340.635       14.789      867.504
01/25/2015  16:53:00       51.078      136.552       -3.026       68.506       91.968       61.832     4693.050     8458.129     3823.208        1.912        0.849      145.793       56.665        0.151      340.559       14.662      867.513
01/25/2015  16:54:00       29.780      165.436      -14.216       54.316       75.531       46.442     2950.241     5704.917     2156.823        1.963        0.541      168.096       50.003        0.088      340.497       14.555      867.539
01/25/2015  16:55:00       52.436       79.660        6.601       51.964       68.817       36.744     2700.244     4735.763     1350.149        0.896        0.439       95.370       38.395        0.162      340.455       14.486      867.556
01/25/2015  16:56:00       43.571      109.608       -6.456       49.407       58.100       35.822     2441.052     3375.608     1283.248        1.053        0.355      117.951       35.000        0.088      340.510       14.579      867.584
01/25/2015  16:57:00       30.896       96.570       -6.120       37.259       59.765       35.195     1388.206     3571.799     1238.668        0.826        0.310      101.392       34.713        0.117      340.521       14.599      867.588
01/25/2015  16:58:00       22.974       87.934       -7.616       33.727       46.030       25.030     1137.483     2118.796      626.489        0.610        0.194       90.885       29.283        0.104      340.478       14.527      867.593
01/25/2015  16:59:00       26.918       67.779        8.669       32.107       38.342       34.275     1030.866     1470.092     1174.797        0.453        0.184       72.928       29.441        0.163      340.469       14.511      867.608
01/25/2015  17:00:00       18.291       73.815       -2.248       29.470       63.104       31.829      868.505     3982.057     1013.081        0.582        0.293       76.048       36.571        0.231      340.395       14.386      867.641
01/25/2015  17:01:00       20.807      123.501      -14.387       28.497       34.017       31.385      812.069     1157.162      985.039        0.942        0.148      125.241       23.790        0.036      340.409       14.409      867.660
01/25/2015  17:02:00       20.838      125.020      -15.574       26.196       37.996       26.977      686.238     1443.693      727.748        0.958        0.143      126.745       24.512        0.037      340.356       14.319      867.650
01/25/2015  17:03:00       25.197      164.439      -24.722       41.608       59.307       31.005     1731.227     3517.366      961.301        1.725        0.310      166.358       34.940        0.044      340.331       14.276      867.624
01/25/2015  17:04:00       18.399      149.633      -18.229       35.444       52.910       31.246     1256.245     2799.447      976.308        1.405        0.252      150.760       29.411        0.038      340.249       14.137      867.608
01/25/2015  17:05:00       12.440      174.187      -16.470       39.319       87.946       30.496     1545.958     7734.429      930.017        2.049        0.511      174.631       35.950        0.042      340.318       14.254      867.581
01/25/2015  17:06:00       15.861      219.906      -32.494       36.599       43.353       23.925     1339.462     1879.443      572.404        2.673        0.190      220.478       17.826        0.007      340.320       14.256      867.565
01/25/2015  17:07:00        3.495      222.322      -31.365       35.326       32.288       21.329     1247.939     1042.492      454.913        2.658        0.137      222.349       17.843        0.006      340.312       14.242      867.575
01/25/2015  17:08:00       61.798      160.895      -13.939       91.746      100.963       52.501     8417.371    10193.511     2756.324        2.563        1.068      172.354       56.701        0.108      340.245       14.130      867.593
01/25/2015  17:09:00       79.950      116.006        2.000       79.748       65.386       54.154     6359.768     4275.313     2932.665        1.671        0.678      140.888       45.114        0.103      340.303       14.229      867.602
01/25/2015  17:10:00       31.955      116.747      -19.220       53.692       81.796       40.104     2882.871     6690.555     1608.355        1.310        0.559      121.041       45.271        0.140      340.243       14.128      867.627
01/25/2015  17:11:00       45.554      202.647      -26.687       50.511       67.309       31.336     2551.382     4530.550      981.927        2.596        0.403      207.704       35.572        0.029      340.308       14.235      867.658
01/25/2015  17:12:00       18.652      147.041      -20.263       54.977       51.963       32.991     3022.488     2700.188     1088.422        1.459        0.341      148.219       31.841        0.046      340.227       14.101      867.659
01/25/2015  17:13:00        9.326      123.698       -9.099       31.227       56.268       32.921      975.096     3166.087     1083.765        1.035        0.261      124.049       34.647        0.078      340.167       13.999      867.656
01/25/2015  17:14:00       26.676       78.694        3.428       45.962       69.680       39.448     2112.542     4855.289     1556.120        0.772        0.426       83.093       35.226        0.180      340.073       13.841      867.634
01/25/2015  17:15:00       57.476       84.900        7.124       55.887       53.308       43.313     3123.318     2841.766     1875.997        0.920        0.392      102.525       35.436        0.119      340.095       13.879      867.598
01/25/2015  17:16:00       29.375      129.092       -0.400       49.013       80.472       39.858     2402.257     6475.734     1588.667        1.400        0.523      132.392       39.033        0.087      340.085       13.861      867.584
01/25/2015  17:17:00       81.335       78.870       -4.376       55.047       39.084       28.753     3030.203     1527.596      826.739        0.912        0.269      113.295       19.013        0.028      340.053       13.808      867.553
01/25/2015  17:18:00       69.674       99.518       -5.089       53.843       56.205       35.736     2899.084     3159.004     1277.094        1.106        0.367      121.484       30.671        0.064      340.020       13.752      867.549
01/25/2015  17:19:00       59.342       96.636      -10.745       51.308       60.417       43.556     2632.543     3650.197     1897.088        1.058        0.409      113.402       34.971        0.095      340.031       13.770      867.546
01/25/2015  17:20:00      112.004       79.322        2.100       76.150       56.173       45.559     5798.816     3155.427     2075.665        1.493        0.551      137.247       27.140        0.039      340.013       13.740      867.550
01/25/2015  17:21:00      153.529       87.102       24.977       66.866       49.648       46.113     4471.022     2464.933     2126.440        2.042        0.453      176.516       32.504        0.034      340.093       13.875      867.570
01/25/2015  17:22:00      192.276      118.297       32.327       62.587       70.163       51.268     3917.126     4922.811     2628.378        3.174        0.573      225.752       21.800        0.009      340.097       13.878      867.606
01/25/2015  17:23:00       98.821       70.328       27.516       64.161       53.150       47.532     4116.691     2824.897     2259.288        1.233        0.460      121.291       24.290        0.040      339.986       13.693      867.639
01/25/2015  17:24:00       93.767       87.637       12.796       77.083       46.150       36.758     5941.792     2129.867     1351.147        1.303        0.471      128.345       23.439        0.033      340.095       13.878      867.657
01/25/2015  17:25:00      155.253      114.253       26.351       57.971       42.016       44.844     3360.634     1765.321     2010.978        2.249        0.357      192.762       28.667        0.022      340.073       13.841      867.643
01/25/2015  17:26:00      144.255       98.344       16.865       80.179       45.234       47.408     6428.684     2046.149     2247.508        2.074        0.536      174.588       29.984        0.029      340.125       13.927      867.644
01/25/2015  17:27:00      147.014       93.972       23.374       61.265       35.364       45.486     3753.427     1250.627     2068.947        1.903        0.354      174.482       28.652        0.027      340.117       13.915      867.642
01/25/2015  17:28:00      163.476       92.448       25.871       66.401       52.377       42.988     4409.066     2743.340     1848.006        2.247        0.450      187.806       13.320        0.005      340.044       13.792      867.657
01/25/2015  17:29:00      138.435       87.918        3.072       71.199       51.431       39.770     5069.321     2645.187     1581.683        1.810        0.465      163.994       31.720        0.037      340.058       13.815      867.660
01/25/2015  17:30:00      105.378       70.015       12.925       59.566       42.187       38.929     3548.101     1779.719     1515.458        1.151        0.342      126.518       23.627        0.035      339.997       13.715      867.666
01/25/2015  17:31:00      118.152       69.983       14.750       46.031       39.134       35.708     2118.835     1531.456     1275.074        1.200        0.246      137.323       18.043        0.017      339.971       13.671      867.678
01/25/2015  17:32:00      109.423       77.463       21.024       51.367       36.588       29.109     2638.575     1338.682      847.322        1.162        0.241      134.067       17.983        0.018      339.971       13.670      867.665
01/25/2015  17:33:00       90.286       63.793       19.872       40.383       35.706       41.050     1630.761     1274.898     1685.135        0.860        0.230      110.549       18.395        0.028      339.931       13.603      867.663
01/25/2015  17:34:00      120.785       80.537       19.885       49.972       45.687       36.732     2497.234     2087.312     1349.235        1.370        0.297      145.173       24.520        0.029      339.969       13.667      867.678
01/25/2015  17:35:00      105.742       78.191       13.097       59.749       32.999       23.886     3569.961     1088.904      570.545        1.135        0.261      131.511       17.442        0.018      339.847       13.460      867.697
01/25/2015  17:36:00      114.234       68.066       24.157       54.086       31.929       33.415     2925.258     1019.439     1116.557        1.166        0.253      132.975       19.194        0.021      339.831       13.433      867.706
01/25/2015  17:37:00      101.188       70.388        6.982       47.690       36.932       41.110     2274.337     1363.993     1690.028        1.028        0.266      123.262       32.706        0.070      339.869       13.499      867.693
01/25/2015  17:38:00       45.295       60.278        7.834       45.860       38.458       34.191     2103.165     1478.995     1169.020        0.525        0.238       75.399       23.104        0.094      339.793       13.371      867.682
01/25/2015  17:39:00      115.878       78.735       18.979       47.071       31.839       29.283     2215.680     1013.703      857.468        1.204        0.204      140.096       13.912        0.010      339.848       13.462      867.666
01/25/2015  17:40:00       95.350       76.185        8.553       58.363       36.100       35.656     3406.184     1303.185     1271.375        1.047        0.299      122.048       22.874        0.035      339.807       13.393      867.655
01/25/2015  17:41:00      105.818       74.160       11.337       39.350       30.837       29.798     1548.435      950.928      887.919        1.011        0.169      129.218       19.079        0.022      339.744       13.286      867.650
01/25/2015  17:42:00       74.077       60.912       15.574       50.312       32.534       33.049     2531.249     1058.472     1092.259        0.706        0.234       95.904       21.820        0.052      339.741       13.281      867.627
01/25/2015  17:43:00       99.311       85.289       16.619       63.166       44.986       44.975     3989.998     2023.767     2022.725        1.272        0.402      130.907       23.110        0.031      339.809       13.396      867.620
01/25/2015  17:44:00       82.179       70.025        9.765       57.666       38.963       41.333     3325.313     1518.139     1708.450        0.915        0.328      107.967       28.466        0.070      339.718       13.244      867.612
01/25/2015  17:45:00       92.624       60.648       11.157       47.164       41.544       36.099     2224.475     1725.872     1303.160        0.882        0.263      110.713       26.926        0.059      339.657       13.139      867.609
01/25/2015  17:46:00      106.150       84.327        4.756       52.270       43.936       36.655     2732.121     1930.333     1343.569        1.220        0.300      135.569       29.031        0.046      339.671       13.164      867.606
01/25/2015  17:47:00       76.541       63.436        2.644       75.775       43.286       46.288     5741.903     1873.640     2142.536        0.982        0.488       99.411       27.578        0.077      339.670       13.162      867.608
01/25/2015  17:48:00       68.838       71.714        8.829       58.079       42.231       42.777     3373.132     1783.496     1829.889        0.847        0.349       99.406       28.333        0.081      339.627       13.090      867.629
01/25/2015  17:49:00      190.305      133.423        8.575      100.854       67.847       34.027    10171.556     4603.190     1157.867        3.501        0.797      232.417       26.992        0.013      339.722       13.247      867.642
01/25/2015  17:50:00      151.460       94.312       21.548       47.476       44.381       35.674     2253.942     1969.686     1272.621        1.890        0.275      178.423       13.683        0.006      339.594       13.033      867.651
01/25/2015  17:51:00       97.846       79.892       15.317       57.909       38.775       33.640     3353.453     1503.485     1131.628        1.109        0.299      126.320       25.797        0.042      339.567       12.988      867.646
01/25/2015  17:52:00      125.419       83.191       20.818       46.796       41.795       37.363     2189.880     1746.830     1395.996        1.421        0.267      150.501       24.902        0.027      339.583       13.015      867.619
01/25/2015  17:53:00      122.639       85.000        5.520       45.210       43.947       38.702     2043.959     1931.334     1497.818        1.388        0.274      149.216       24.410        0.027      339.564       12.984      867.600
01/25/2015  17:54:00      115.007       84.722       14.645       61.925       33.774       32.509     3834.671     1140.717     1056.864        1.332        0.302      142.844       22.161        0.024      339.536       12.935      867.591
01/25/2015  17:55:00      114.869       86.207       17.991       45.601       31.568       34.330     2079.410      996.526     1178.571        1.260        0.213      143.620       19.676        0.019      339.571       12.994      867.605
01/25/2015  17:56:00      111.015       92.386        3.283       55.171       36.324       44.125     3043.873     1319.435     1947.022        1.359        0.316      144.428       32.410        0.050      339.561       12.978      867.606
01/25/2015  17:57:00       85.881       69.074        9.512       55.197       43.193       32.399     3046.687     1865.677     1049.682        0.910        0.298      110.213       24.171        0.048      339.540       12.943      867.627
01/25/2015  17:58:00       40.834       46.025       -1.889       31.541       45.187       24.638      994.865     2041.837      607.010        0.372        0.182       61.528       25.350        0.170      339.446       12.784      867.644
01/25/2015  17:59:00       50.741       85.909       -6.798       47.775       58.800       35.785     2282.416     3457.431     1280.543        0.851        0.351       99.774       32.916        0.109      339.492       12.861      867.657
01/25/2015  18:00:00       39.695       74.104        2.092       50.511       38.483       32.325     2551.387     1480.970     1044.888        0.607        0.254       84.066       25.774        0.094      339.477       12.837      867.654
01/25/2015  18:01:00       49.091      103.360       -0.015       49.520       68.888       42.817     2452.185     4745.612     1833.331        1.106        0.452      114.425       39.679        0.120      339.556       12.969      867.637
01/25/2015  18:02:00       78.378       80.782       14.683       61.940       59.525       53.956     3836.502     3543.221     2911.223        1.159        0.515      112.556       45.035        0.160      339.531       12.928      867.631
01/25/2015  18:03:00       95.254       64.860       16.176       59.780       42.834       37.592     3573.664     1834.718     1413.174        1.018        0.341      115.239       29.660        0.066      339.479       12.839      867.637
01/25/2015  18:04:00       81.709       69.913        4.361       45.104       40.273       38.056     2034.391     1621.875     1448.245        0.834        0.255      107.536       30.783        0.082      339.467       12.820      867.650
01/25/2015  18:05:00       57.625       79.385      -13.519       42.927       29.444       22.968     1842.719      866.948      527.529        0.652        0.162       98.095       16.654        0.029      339.422       12.745      867.644
01/25/2015  18:06:00       62.905       65.520       -3.458       41.783       42.176       36.056     1745.820     1778.825     1300.009        0.654        0.241       90.829       23.927        0.069      339.398       12.704      867.637
01/25/2015  18:07:00       36.669      105.639      -12.658       36.666       46.723       29.635     1344.361     2183.002      878.261        0.853        0.220      111.822       27.023        0.058      339.386       12.683      867.607
01/25/2015  18:08:00       27.959      111.018       -5.955       44.176       68.931       40.681     1951.551     4751.438     1654.932        1.075        0.418      114.484       43.900        0.147      339.365       12.647      867.586
01/25/2015  18:09:00       22.133      121.281      -13.429       39.350       45.804       34.410     1548.406     2097.979     1184.076        1.010        0.242      123.284       34.270        0.077      339.287       12.516      867.573
01/25/2015  18:10:00       34.562      153.589      -25.440       27.690       35.274       23.631      766.728     1244.274      558.412        1.400        0.128      157.429       21.264        0.018      339.305       12.548      867.578
01/25/2015  18:11:00       25.375      101.352       -7.864       35.368       59.866       29.562     1250.908     3583.964      873.931        0.834        0.285      104.480       34.558        0.109      339.180       12.335      867.578
01/25/2015  18:12:00       48.366       97.227       -1.779       44.658       52.451       35.116     1994.379     2751.096     1233.112        0.889        0.299      108.593       32.499        0.090      339.226       12.415      867.599
01/25/2015  18:13:00       60.760       83.256        0.347       42.321       45.475       34.869     1791.104     2067.954     1215.820        0.785        0.254      103.069       29.480        0.082      339.208       12.383      867.596
01/25/2015  18:14:00       53.276       60.417       -4.475       37.141       34.435       25.154     1379.452     1185.760      632.743        0.485        0.160       80.552       21.235        0.069      339.225       12.412      867.591
01/25/2015  18:15:00       57.744       61.408        1.588       42.246       38.785       34.625     1784.727     1504.238     1198.911        0.580        0.224       84.292       27.405        0.106      339.173       12.325      867.568
01/25/2015  18:16:00       48.641       36.092        7.357       21.356       24.651       20.374      456.084      607.664      415.113        0.260        0.074       60.568       15.326        0.064      339.094       12.192      867.565
01/25/2015  18:17:00       89.546       62.902       10.183       32.742       21.931       22.691     1072.060      480.969      514.899        0.707        0.103      109.430        9.692        0.008      339.212       12.391      867.580
01/25/2015  18:18:00       57.616       57.963       15.013       31.443       40.117       29.797      988.657     1609.383      887.887        0.519        0.174       81.727       28.429        0.121      339.081       12.170      867.593
01/25/2015  18:19:00       50.460       41.016        1.055       27.743       23.149       16.489      769.659      535.853      271.871        0.290        0.079       65.027       14.866        0.052      339.034       12.091      867.578
01/25/2015  18:20:00       55.329       47.923        8.967       36.820       20.314       18.881     1355.695      412.678      356.476        0.378        0.106       73.197       10.906        0.022      339.095       12.195      867.578
01/25/2015  18:21:00       59.720       38.880        8.772       27.837       22.800       20.883      774.922      519.849      436.083        0.344        0.087       71.261       14.252        0.040      339.051       12.120      867.589
01/25/2015  18:22:00       89.054       72.455        8.758       51.504       35.452       37.920     2652.656     1256.831     1437.938        0.930        0.267      114.806       27.054        0.056      339.178       12.333      867.600
01/25/2015  18:23:00      101.905       77.856       25.754       42.565       28.131       30.711     1811.802      791.328      943.146        1.033        0.177      128.242       17.520        0.019      339.202       12.373      867.597
01/25/2015  18:24:00       92.977       68.128        6.640       32.283       35.906       32.152     1042.184     1289.268     1033.730        0.835        0.168      115.265       24.422        0.045      339.169       12.318      867.585
01/25/2015  18:25:00      102.729       66.459       15.789       30.702       24.979       29.311      942.594      623.969      859.108        0.882        0.121      122.352       23.824        0.038      339.132       12.256      867.580
01/25/2015  18:26:00      111.740       69.658       23.722       31.695       21.865       23.598     1004.560      478.080      556.858        0.997        0.102      131.674       15.399        0.014      339.217       12.399      867.582
01/25/2015  18:27:00      129.569       66.980       23.107       21.474       24.206       21.861      461.153      585.944      477.892        1.167        0.076      145.857        7.482        0.003      339.254       12.462      867.602
01/25/2015  18:28:00       84.300       47.237       14.700       31.137       19.801       19.318      969.487      392.094      373.192        0.564        0.087       96.633       10.215        0.011      339.101       12.205      867.597
01/25/2015  18:29:00      100.757       57.442       23.991       23.240       18.548       21.382      540.080      344.019      457.186        0.768        0.067      115.981       12.552        0.012      339.118       12.232      867.590
01/25/2015  18:30:00       85.395       45.180       12.453       34.077       23.025       20.512     1161.211      530.161      420.751        0.580        0.106       96.610       15.237        0.025      339.077       12.164      867.562
01/25/2015  18:31:00       74.894       52.894       11.786       34.606       32.494       24.602     1197.609     1055.878      605.279        0.570        0.143       91.690       19.388        0.045      339.030       12.084      867.549
01/25/2015  18:32:00       86.631       45.350       10.766       29.664       22.909       17.019      879.969      524.842      289.658        0.569        0.085       97.783       13.890        0.020      339.057       12.130      867.542
01/25/2015  18:33:00       69.746       39.668       15.084       28.819       22.720       16.852      830.506      516.177      283.977        0.415        0.082       80.238       10.090        0.016      338.977       11.994      867.540
01/25/2015  18:34:00       62.675       43.654       17.312       14.376       16.781       17.863      206.661      281.612      319.098        0.347        0.040       76.379       12.313        0.026      339.018       12.064      867.546
01/25/2015  18:35:00       63.568       50.376        6.906       23.025       18.852       15.671      530.163      355.382      245.592        0.388        0.057       81.109        7.647        0.009      339.029       12.082      867.536
01/25/2015  18:36:00       43.902       36.912        8.433       23.846       18.795       19.964      568.610      353.254      398.569        0.234        0.066       57.358       15.012        0.069      338.993       12.020      867.546
01/25/2015  18:37:00       15.572       37.819       -9.687       20.367       24.376       15.272      414.835      594.171      233.220        0.150        0.062       40.899       12.575        0.095      338.935       11.923      867.562
01/25/2015  18:38:00       -0.316       55.215       -7.317       13.024       13.524        7.164      169.620      182.885       51.327        0.175        0.020       55.216        6.855        0.015      338.968       11.979      867.582
01/25/2015  18:39:00       -2.655       38.940       -8.851        4.949       15.300        5.043       24.497      234.083       25.432        0.094        0.014       39.030        5.157        0.017      339.071       12.153      867.602
01/25/2015  18:40:00      -10.768       26.773       -6.644       11.078       16.931        7.751      122.730      286.666       60.076        0.067        0.023       28.857        7.476        0.067      339.123       12.239      867.603
01/25/2015  18:41:00       -3.697       27.688       -3.857       12.263       13.641        8.415      150.384      186.077       70.806        0.060        0.020       27.933        7.187        0.066      339.137       12.260      867.611
01/25/2015  18:42:00       -0.215       -1.125       -0.658       10.455       11.952        6.696      109.300      142.862       44.840        0.015        0.015        1.145        6.080       28.202      339.122       12.239      867.628
01/25/2015  18:43:00      -43.942      -15.918       -7.102       13.358       12.798        7.006      178.441      163.797       49.086        0.131        0.020       46.736        9.178        0.039      338.866       11.808      867.624
01/25/2015  18:44:00      -56.961      -14.218      -13.846       10.099        7.800        4.957      101.991       60.844       24.571        0.191        0.009       58.709        3.699        0.004      338.864       11.805      867.607
01/25/2015  18:45:00      -81.180       -9.009      -13.142       10.474       15.844        9.757      109.695      251.028       95.199        0.365        0.023       81.678        9.403        0.013      338.876       11.824      867.601
01/25/2015  18:46:00      -66.245       23.914       -9.723       15.252       19.879       14.724      232.622      395.158      216.792        0.295        0.042       70.429        9.443        0.018      338.870       11.816      867.608
01/25/2015  18:47:00      -91.340       -1.137      -11.633       29.683       18.250       12.036      881.083      333.071      144.869        0.492        0.068       91.347       11.581        0.016      338.779       11.662      867.645
01/25/2015  18:48:00     -148.456      -50.773      -12.338       21.691       24.175       15.520      470.500      584.440      240.866        1.303        0.065      156.898       12.008        0.006      338.642       11.433      867.676
01/25/2015  18:49:00     -127.547      -63.486       -9.652       39.018       33.406       20.477     1522.415     1115.974      419.311        1.172        0.153      142.474       14.245        0.010      338.603       11.367      867.680
01/25/2015  18:50:00     -114.662      -41.061      -15.597       34.043       26.367       23.209     1158.950      695.219      538.652        0.873        0.120      121.792       15.418        0.016      338.501       11.194      867.666
01/25/2015  18:51:00     -112.714      -11.797       -8.683       37.025       29.642       19.884     1370.819      878.673      395.379        0.778        0.132      113.329       20.783        0.034      338.504       11.200      867.656
01/25/2015  18:52:00     -144.750       -7.519      -13.801       34.874       23.914       17.391     1216.170      571.862      302.449        1.164        0.105      144.945       16.679        0.013      338.646       11.439      867.656
01/25/2015  18:53:00     -122.279      -28.219       -3.450       42.077       22.364       18.669     1770.479      500.147      348.545        0.919        0.131      125.493       16.011        0.016      338.538       11.258      867.682
01/25/2015  18:54:00      -81.322      -14.617        0.935       34.874       22.100       18.114     1216.183      488.406      328.123        0.443        0.102       82.625       20.414        0.061      338.437       11.089      867.704
01/25/2015  18:55:00      -87.159      -12.559       -9.861       38.328       21.891       14.940     1469.070      479.217      223.202        0.501        0.109       88.059       18.202        0.043      338.393       11.014      867.719
01/25/2015  18:56:00     -111.209      -13.050       -7.307       29.354       16.888       14.893      861.643      285.190      221.794        0.698        0.068      111.972       14.163        0.016      338.330       10.908      867.740
01/25/2015  18:57:00     -107.904      -22.564       -8.402       31.647       21.930       16.378     1001.560      480.914      268.233        0.699        0.088      110.238       18.566        0.028      338.247       10.769      867.745
01/25/2015  18:58:00     -103.308       -6.091       -3.205       30.676       24.013       15.246      941.027      576.632      232.431        0.623        0.088      103.488       15.818        0.023      338.085       10.496      867.762
01/25/2015  18:59:00      -59.288       -2.119       -1.071       32.924       29.674       19.624     1083.961      880.536      385.109        0.293        0.117       59.326       17.631        0.088      338.008       10.367      867.794
01/25/2015  19:00:00      -95.836       34.380       -8.813       49.327       33.446       20.884     2433.164     1118.627      436.139        0.722        0.199      101.816       20.604        0.041      338.157       10.618      867.799
01/25/2015  19:01:00     -109.371       39.281      -20.401       22.742       25.843       16.162      517.198      667.847      261.197        0.768        0.072      116.211       10.351        0.008      338.245       10.767      867.822
01/25/2015  19:02:00      -83.581       24.146      -10.749       20.275       19.718       17.865      411.085      388.808      319.164        0.440        0.056       86.999       11.225        0.017      338.269       10.806      867.827
01/25/2015  19:03:00     -102.810       35.108      -11.629       34.230       28.692       18.377     1171.661      823.225      337.712        0.713        0.117      108.639       16.193        0.022      338.299       10.857      867.823
01/25/2015  19:04:00     -109.003       24.832      -10.911       36.410       28.030       15.623     1325.710      785.696      244.088        0.749        0.118      111.796       16.053        0.021      338.227       10.734      867.817
01/25/2015  19:05:00     -100.328       25.990      -14.507       30.082       24.532       18.987      904.949      601.808      360.495        0.641        0.093      103.640       20.590        0.039      338.319       10.890      867.798
01/25/2015  19:06:00      -73.749       10.499      -11.854       17.923       24.025       15.592      321.231      577.209      243.110        0.342        0.057       74.493       11.679        0.025      338.342       10.929      867.781
01/25/2015  19:07:00      -64.313       41.396       -9.931       22.949       42.278       16.052      526.638     1787.466      257.676        0.426        0.129       76.484       15.856        0.043      338.395       11.018      867.769
01/25/2015  19:08:00      -62.531       58.196      -12.073       19.087       29.309       14.346      364.313      859.040      205.797        0.444        0.071       85.422       13.694        0.026      338.488       11.174      867.764
01/25/2015  19:09:00      -51.608      111.156      -18.547       31.697       34.912       15.694     1004.710     1218.872      246.288        0.892        0.123      122.553       11.454        0.009      339.000       12.034      867.768
01/25/2015  19:10:00      -51.050       54.466      -11.175       21.910       37.921       14.917      480.060     1438.020      222.514        0.392        0.107       74.650       15.586        0.044      338.775       11.657      867.766
01/25/2015  19:11:00       -5.351       50.160       -4.920       30.311       22.094        8.810      918.729      488.159       77.618        0.203        0.074       50.444        9.849        0.038      338.778       11.660      867.771
01/25/2015  19:12:00      -31.874       32.626       -5.816       20.971       27.314       11.913      439.765      746.052      141.923        0.172        0.066       45.612       12.690        0.077      338.621       11.395      867.756
01/25/2015  19:13:00      -51.504       87.275      -16.755       25.399       21.976       14.974      645.085      482.949      224.224        0.595        0.068      101.339       12.933        0.016      338.704       11.535      867.746
01/25/2015  19:14:00      -88.152      103.445      -23.036       13.849       20.432       12.042      191.794      417.461      145.016        0.988        0.038      135.911        8.246        0.004      338.772       11.650      867.736
01/25/2015  19:15:00      -66.665       93.595      -17.426       28.566       25.470       14.441      815.999      648.721      208.529        0.759        0.084      114.910       10.733        0.009      338.776       11.657      867.733
01/25/2015  19:16:00      -66.903       87.218      -14.787       25.758       22.606       12.324      663.477      511.030      151.874        0.681        0.066      109.922       13.413        0.015      338.679       11.494      867.734
01/25/2015  19:17:00      -54.322      100.626      -12.588       26.993       20.650       18.969      728.601      426.409      359.814        0.737        0.076      114.352       17.082        0.022      338.630       11.412      867.742
01/25/2015  19:18:00      -20.253      104.155       -8.367       19.907       34.645       12.657      396.278     1200.310      160.191        0.654        0.088      106.106       15.862        0.022      338.630       11.412      867.780
01/25/2015  19:19:00      -28.411      119.332      -14.285       21.517       29.079       15.300      462.971      845.607      234.084        0.840        0.077      122.667       12.261        0.010      338.700       11.530      867.804
01/25/2015  19:20:00      -24.444      121.111      -13.280       18.110       28.834       16.988      327.964      831.402      288.575        0.844        0.072      123.553       16.520        0.018      338.801       11.700      867.836
01/25/2015  19:21:00      -23.591      120.575      -16.981       21.184       27.932       13.538      448.779      780.210      183.278        0.840        0.071      122.861        9.335        0.006      338.641       11.432      867.858
01/25/2015  19:22:00      -28.762      119.582      -18.453       20.852       21.871       13.744      434.823      478.350      188.911        0.828        0.055      122.992       11.623        0.009      338.661       11.464      867.857
01/25/2015  19:23:00      -27.626      135.993      -23.646       16.215       25.695       13.539      262.940      660.226      183.294        1.046        0.055      138.771        9.393        0.005      338.604       11.369      867.857
01/25/2015  19:24:00      -30.353      146.290      -21.671       21.315       29.020       14.786      454.333      842.149      218.632        1.215        0.076      149.405       13.524        0.008      338.596       11.354      867.850
01/25/2015  19:25:00      -24.513      155.560      -21.174       28.073       25.780       18.048      788.070      664.597      325.736        1.351        0.089      157.480       11.665        0.005      338.596       11.355      867.861
01/25/2015  19:26:00       -7.783      142.445      -17.221       30.972       28.832       15.559      959.293      831.260      242.069        1.134        0.102      142.657        7.744        0.003      338.554       11.286      867.881
01/25/2015  19:27:00      -21.204      149.718      -21.755       26.783       27.321       15.467      717.311      746.463      239.223        1.252        0.085      151.212       10.962        0.005      338.535       11.252      867.900
01/25/2015  19:28:00      -34.682      102.354      -16.781       34.172       49.636       20.664     1167.749     2463.690      426.993        0.801        0.203      108.071       19.464        0.032      338.455       11.117      867.914
01/25/2015  19:29:00      -61.158       39.237      -10.000       22.715       39.466       17.500      515.980     1557.575      306.256        0.388        0.119       72.663       12.867        0.031      338.072       10.477      867.929
01/25/2015  19:30:00      -43.839       24.418       -7.370       27.006       36.801       18.272      729.330     1354.292      333.856        0.249        0.121       50.180       15.780        0.099      337.928       10.232      867.949
01/25/2015  19:31:00      -52.300       10.751      -14.148       29.058       26.561       10.361      844.391      705.509      107.344        0.235        0.083       53.393        8.701        0.027      337.744        9.924      867.973
01/25/2015  19:32:00      -62.795       10.424       -7.755       14.299       25.276       13.339      204.457      638.855      177.923        0.257        0.051       63.654        8.033        0.016      337.793       10.006      868.002
01/25/2015  19:33:00      -60.700       22.223      -14.025       26.369       40.414       15.177      695.330     1633.330      230.328        0.347        0.128       64.640       13.827        0.046      337.867       10.132      868.029
01/25/2015  19:34:00      -64.254       -0.935      -10.330       14.899       16.525       12.149      221.990      273.089      147.601        0.244        0.032       64.261        8.479        0.017      337.594        9.673      868.033
01/25/2015  19:35:00      -75.066        1.096      -13.601       15.984       15.321       12.720      255.476      234.726      161.786        0.324        0.033       75.074        8.629        0.013      337.469        9.464      868.031
01/25/2015  19:36:00      -83.590      -21.587      -10.645       19.031       15.512       13.427      362.170      240.631      180.275        0.417        0.039       86.332        5.840        0.005      337.288        9.161      868.046
01/25/2015  19:37:00      -89.508      -20.602      -18.561       19.866       21.912       19.359      394.648      480.132      374.756        0.501        0.062       91.848       15.514        0.029      337.529        9.564      868.064
01/25/2015  19:38:00      -60.626      -37.096      -14.464       26.155       22.473       24.387      684.068      505.048      594.715        0.352        0.089       71.075       11.166        0.025      337.421        9.382      868.095
01/25/2015  19:39:00     -124.427      -29.027      -16.493       43.484       23.527       15.826     1890.874      553.524      250.457        0.965        0.135      127.768       10.341        0.007      337.130        8.895      868.129
01/25/2015  19:40:00     -137.612      -23.997       -8.595       42.983       28.978       22.061     1847.568      839.740      486.705        1.138        0.159      139.688       22.094        0.025      337.149        8.930      868.143
01/25/2015  19:41:00     -119.126       -1.837      -11.654       40.371       39.330       24.405     1629.803     1546.871      595.611        0.905        0.189      119.140       21.828        0.034      337.139        8.911      868.163
01/25/2015  19:42:00     -106.753      -13.538       -9.433       42.341       36.356       21.423     1792.761     1321.777      458.955        0.762        0.179      107.608       21.635        0.040      337.108        8.858      868.187
01/25/2015  19:43:00     -115.562      -30.458      -12.192       34.027       20.105       17.532     1157.835      404.226      307.362        0.815        0.093      119.509       18.323        0.024      337.079        8.809      868.192
01/25/2015  19:44:00     -134.587       -5.263      -10.436       35.976       26.275       20.759     1294.273      690.393      430.942        1.033        0.121      134.690       19.354        0.021      337.085        8.821      868.200
01/25/2015  19:45:00     -121.155      -15.099       -5.659       40.742       24.127       22.092     1659.903      582.123      488.061        0.883        0.137      122.093       20.590        0.028      337.048        8.758      868.189
01/25/2015  19:46:00     -138.828       15.556      -14.768       43.235       29.390       24.538     1869.261      863.764      602.093        1.153        0.167      139.697       22.331        0.026      337.072        8.798      868.198
01/25/2015  19:47:00     -101.927      -19.328       -9.119       43.198       34.319       23.250     1866.052     1177.815      540.541        0.721        0.179      103.744       19.393        0.035      337.048        8.759      868.238
01/25/2015  19:48:00     -112.593       -6.497      -14.080       39.044       37.660       18.637     1524.463     1418.278      347.353        0.810        0.165      112.781       17.643        0.024      337.075        8.803      868.281
01/25/2015  19:49:00     -128.058        2.075      -14.859       31.323       27.476       20.651      981.149      754.950      426.468        0.939        0.108      128.075       14.080        0.012      337.122        8.883      868.312
01/25/2015  19:50:00      -99.117      -12.270       -9.913       37.964       30.184       20.176     1441.244      911.046      407.057        0.642        0.138       99.874       14.256        0.020      337.160        8.946      868.322
01/25/2015  19:51:00     -137.791       31.644      -15.404       50.245       21.411       19.131     2524.562      458.421      365.991        1.179        0.167      141.378       17.487        0.015      337.241        9.082      868.324
01/25/2015  19:52:00     -120.848       18.698      -24.806       37.454       28.019       18.957     1402.797      785.042      359.373        0.906        0.127      122.286       14.552        0.014      337.378        9.312      868.326
01/25/2015  19:53:00     -108.053       -4.505       -9.034       35.004       25.087       19.610     1225.262      629.350      384.544        0.701        0.112      108.147       15.899        0.022      337.220        9.047      868.332
01/25/2015  19:54:00      -96.254       -5.436      -18.961       29.507       25.674       20.014      870.669      659.178      400.568        0.579        0.097       96.408       14.708        0.023      337.178        8.977      868.348
01/25/2015  19:55:00      -50.900       -1.736      -12.602       28.403       33.003       18.250      806.744     1089.209      333.057        0.249        0.111       50.929       14.356        0.079      337.149        8.927      868.369
01/25/2015  19:56:00      -74.070      -10.924      -17.267       31.739       23.813       14.553     1007.376      567.065      211.792        0.384        0.089       74.871       14.376        0.037      337.150        8.931      868.382
01/25/2015  19:57:00      -69.926      -15.222       -6.887       39.637       19.838        9.719     1571.092      393.561       94.468        0.361        0.103       71.564        7.214        0.010      337.102        8.848      868.414
01/25/2015  19:58:00      -44.212      -19.294       -2.231       38.485       18.828       15.372     1481.110      354.496      236.300        0.220        0.104       48.239       17.547        0.132      337.157        8.940      868.412
01/25/2015  19:59:00      -57.403       -2.151       -1.136       36.378       29.859       14.922     1323.347      891.589      222.655        0.287        0.122       57.443       13.651        0.056      337.179        8.979      868.412
01/25/2015  20:00:00      -52.809       11.924       -2.135       36.279       22.928       18.626     1316.137      525.694      346.931        0.256        0.109       54.138       18.971        0.123      337.203        9.020      868.405
01/25/2015  20:01:00      -68.043       25.021      -19.496       19.224       23.178       13.538      369.568      537.234      183.279        0.336        0.055       72.498        6.579        0.008      337.619        9.715      868.414
01/25/2015  20:02:00      -41.677      -12.911       -3.469       15.636       15.190        8.216      244.485      230.747       67.498        0.123        0.027       43.631        6.516        0.022      337.371        9.300      868.439
01/25/2015  20:03:00      -24.679      -19.004       -4.454       16.252       12.054        8.509      264.113      145.290       72.398        0.074        0.024       31.148        5.386        0.030      337.276        9.142      868.446
01/25/2015  20:04:00        2.158       -4.207        3.522        9.715       12.786        8.830       94.378      163.489       77.974        0.019        0.017        4.728        7.031        2.211      337.312        9.201      868.446
01/25/2015  20:05:00       -9.910       19.024       -3.030       18.014       23.032       12.607      324.508      530.459      158.927        0.074        0.051       21.450        7.848        0.134      337.611        9.701      868.435
01/25/2015  20:06:00       -2.352       56.421       -1.367       18.458       23.894        9.519      340.696      570.934       90.609        0.210        0.050       56.470        6.684        0.014      337.800       10.019      868.417
01/25/2015  20:07:00       22.142       26.917        1.326        9.437       10.206       11.394       89.066      104.158      129.814        0.077        0.016       34.854        9.186        0.069      337.474        9.474      868.426
01/25/2015  20:08:00        8.395      103.956      -18.800        7.306       24.388        5.587       53.384      594.770       31.211        0.595        0.034      104.294        8.704        0.007      337.730        9.902      868.423
01/25/2015  20:09:00       -5.355      155.603      -22.969       12.899       29.064        6.602      166.397      844.693       43.581        1.291        0.053      155.695        5.317        0.001      338.089       10.505      868.401
01/25/2015  20:10:00        3.260      193.403      -32.342       11.958       18.230        7.393      142.997      332.324       54.657        1.950        0.026      193.430        6.180        0.001      338.017       10.382      868.391
01/25/2015  20:11:00       -5.035      188.955      -25.189       12.403       20.191        6.591      153.839      407.683       43.445        1.848        0.030      189.022        6.519        0.001      337.880       10.154      868.398
01/25/2015  20:12:00      -17.789      173.063      -22.796       16.697       24.337       12.839      278.790      592.309      164.843        1.591        0.052      173.975       11.024        0.004      337.746        9.929      868.416
01/25/2015  20:13:00      -14.114      183.583      -27.805       21.876       20.156       10.814      478.550      406.257      116.946        1.784        0.050      184.124        6.429        0.001      337.899       10.186      868.419
01/25/2015  20:14:00      -25.423      169.138      -23.509       21.143       31.978       15.249      447.017     1022.586      232.526        1.575        0.085      171.038       12.605        0.005      337.826       10.062      868.408
01/25/2015  20:15:00      -28.235      164.104      -22.894       15.066       28.426       12.053      226.979      808.039      145.271        1.472        0.059      166.515       10.100        0.004      337.873       10.142      868.391
01/25/2015  20:16:00      -13.537      143.252      -21.059       11.873       18.363       10.256      140.959      337.192      105.189        1.087        0.029      143.890        3.188        0.000      337.911       10.205      868.385
01/25/2015  20:17:00       -8.976      131.611      -15.837       10.723       17.139        8.948      114.974      293.748       80.075        0.907        0.024      131.917        4.699        0.001      337.885       10.161      868.388
01/25/2015  20:18:00      -10.827      130.171      -17.461       15.300       20.904        7.911      234.086      436.993       62.591        0.905        0.037      130.620        9.357        0.005      337.953       10.276      868.390
01/25/2015  20:19:00      -10.459      111.304      -13.952       16.077       15.356        7.198      258.484      235.812       51.805        0.662        0.027      111.794        5.669        0.003      337.960       10.287      868.388
01/25/2015  20:20:00      -20.482      116.382      -18.519       14.518       12.217        7.217      210.770      149.253       52.086        0.736        0.021      118.170        2.490        0.000      337.947       10.266      868.385
01/25/2015  20:21:00      -41.758       90.500      -20.610       12.421       22.014       10.203      154.285      484.633      104.097        0.555        0.037       99.670        5.635        0.003      337.873       10.141      868.400
01/25/2015  20:22:00      -52.953       16.660       -7.481       15.033       23.551       11.432      225.981      554.637      130.693        0.202        0.046       55.512        9.002        0.026      337.360        9.281      868.431
01/25/2015  20:23:00      -77.055       -0.235      -13.849       13.989       10.330        8.486      195.691      106.710       72.011        0.325        0.019       77.056        4.034        0.003      337.027        8.723      868.444
01/25/2015  20:24:00      -89.156       25.126      -10.827       20.067       13.708       13.898      402.698      187.918      193.157        0.474        0.039       92.629        8.916        0.009      337.264        9.120      868.450
01/25/2015  20:25:00      -76.252       -2.384      -12.438       16.584       12.324       12.006      275.030      151.872      144.135        0.327        0.029       76.290        9.863        0.017      337.012        8.698      868.448
01/25/2015  20:26:00      -56.566       14.268       -8.962       18.212       22.906       13.254      331.695      524.671      175.676        0.226        0.052       58.338        8.703        0.022      337.232        9.066      868.449
01/25/2015  20:27:00      -69.263       20.157      -20.199       17.857       20.014       13.122      318.875      400.548      172.197        0.325        0.045       72.137       12.413        0.030      337.401        9.349      868.453
01/25/2015  20:28:00      -81.807       37.824      -23.150       19.755       20.548       16.840      390.244      422.239      283.595        0.488        0.055       90.128       10.910        0.015      337.603        9.689      868.459
01/25/2015  20:29:00      -73.114        4.552      -20.220       16.659       16.112       10.156      277.521      259.611      103.142        0.321        0.032       73.255        9.005        0.015      337.422        9.385      868.463
01/25/2015  20:30:00      -80.162       -4.062      -13.275       21.906       11.214       11.806      479.862      125.762      139.377        0.368        0.037       80.265        8.220        0.010      337.218        9.042      868.460
01/25/2015  20:31:00     -104.107       13.268      -15.643       27.660       22.846       15.399      765.097      521.961      237.131        0.639        0.076      104.949        5.787        0.003      337.249        9.096      868.463
01/25/2015  20:32:00      -88.134       12.586      -17.809       30.397       27.960       20.557      924.001      781.746      422.598        0.519        0.106       89.028       18.864        0.045      337.123        8.883      868.460
01/25/2015  20:33:00     -101.227       31.579      -15.194       36.776       30.092       19.724     1352.496      905.549      389.048        0.706        0.132      106.038       18.788        0.031      337.049        8.761      868.442
01/25/2015  20:34:00      -96.168       44.826      -14.446       36.790       28.076       16.798     1353.501      788.258      282.168        0.694        0.121      106.102       13.628        0.016      337.081        8.815      868.422
01/25/2015  20:35:00      -93.273       37.716      -24.569       17.903       16.431       11.116      320.524      269.982      123.565        0.572        0.036      100.610        6.724        0.004      337.097        8.840      868.420
01/25/2015  20:36:00      -90.779       44.135      -23.793       23.179       16.529       12.056      537.272      273.197      145.351        0.586        0.048      100.939        5.524        0.003      337.306        9.192      868.414
01/25/2015  20:37:00      -91.141       82.446      -20.219       24.146       22.995       16.649      583.026      528.784      277.185        0.845        0.069      122.898       16.248        0.017      337.561        9.619      868.402
01/25/2015  20:38:00      -67.512       66.703      -12.645       22.553       33.523       19.797      508.657     1123.815      391.909        0.560        0.101       94.906       15.711        0.027      337.514        9.540      868.402
01/25/2015  20:39:00      -40.398       26.815      -10.978       19.342       41.011       14.973      374.126     1681.935      224.200        0.238        0.114       48.487       20.488        0.179      337.372        9.302      868.430
01/25/2015  20:40:00      -35.910       40.952       -7.507       24.515       22.351        9.444      600.983      499.568       89.196        0.211        0.059       54.467        5.297        0.009      337.408        9.363      868.460
01/25/2015  20:41:00      -27.973       19.148        0.497       22.613       24.410       15.416      511.346      595.852      237.642        0.125        0.067       33.899       13.234        0.152      337.337        9.243      868.487
01/25/2015  20:42:00       -5.607       72.680       -3.465       21.527       18.204       10.852      463.431      331.383      117.762        0.312        0.046       72.896        6.422        0.008      337.634        9.740      868.504
01/25/2015  20:43:00       -3.494       72.747       -4.089       15.059       16.185       10.679      226.775      261.952      114.035        0.296        0.030       72.831        6.445        0.008      337.628        9.730      868.522
01/25/2015  20:44:00       11.914       28.627        7.608       11.527       18.267        8.890      132.881      333.692       79.034        0.078        0.027       31.007        8.440        0.074      337.368        9.295      868.542
01/25/2015  20:45:00       12.728        9.860        2.547        9.486       13.069        5.617       89.986      170.803       31.552        0.028        0.015       16.100        6.023        0.140      337.460        9.449      868.554
01/25/2015  20:46:00       13.988        6.976        6.744        6.205        6.704        5.984       38.501       44.939       35.806        0.020        0.006       15.631        3.315        0.045      337.342        9.249      868.572
01/25/2015  20:47:00        3.375      -15.539       -1.789        6.919       11.660        5.599       47.877      135.949       31.350        0.024        0.011       15.901        7.382        0.216      337.251        9.099      868.588
01/25/2015  20:48:00      -19.341      -29.059       -4.321       10.958        8.009        5.877      120.076       64.149       34.541        0.073        0.011       34.907        3.125        0.008      337.033        8.733      868.599
01/25/2015  20:49:00       -3.109      -22.957       -2.016       15.338        6.877        4.801      235.264       47.291       23.047        0.042        0.015       23.166        4.714        0.041      337.060        8.780      868.602
01/25/2015  20:50:00        6.202      -28.649        3.539       14.044       16.436       11.658      197.225      270.129      135.912        0.074        0.030       29.313        4.783        0.027      336.993        8.666      868.596
01/25/2015  20:51:00        9.031      -26.838       -2.312       16.270       13.340       13.639      264.728      177.950      186.026        0.072        0.031       28.317        5.283        0.035      336.968        8.624      868.591
01/25/2015  20:52:00        9.389      -17.533        3.002       16.537       19.767       12.097      273.474      390.727      146.327        0.061        0.041       19.888       14.824        0.556      336.831        8.396      868.597
01/25/2015  20:53:00      -27.239      -16.377       -0.540       10.799        8.486       10.576      116.617       72.010      111.862        0.066        0.015       31.783        3.860        0.015      336.872        8.466      868.621
01/25/2015  20:54:00      -20.408       -6.647       14.078       10.046       12.151        8.015      100.919      147.637       64.238        0.049        0.016       21.464        6.446        0.090      336.789        8.328      868.648
01/25/2015  20:55:00        2.183       -3.016        7.779       14.980       13.486       13.979      224.388      181.878      195.416        0.034        0.030        3.723        8.434        5.131      336.729        8.227      868.669
01/25/2015  20:56:00      -23.569        1.451       -2.095       16.757        8.475        9.679      280.802       71.828       93.690        0.050        0.022       23.614        6.422        0.074      336.758        8.276      868.678
01/25/2015  20:57:00      -33.037      -14.044       -6.706        8.846       10.712        8.575       78.246      114.755       73.535        0.080        0.013       35.898        8.782        0.060      336.653        8.100      868.683
01/25/2015  20:58:00      -12.005      -15.491       -5.093       11.376        6.138        6.033      129.409       37.669       36.399        0.031        0.010       19.599        6.323        0.104      336.654        8.100      868.680
01/25/2015  20:59:00        1.274      -12.354       -3.281        7.002        8.023        8.217       49.027       64.368       67.524        0.017        0.009       12.419        6.188        0.248      336.803        8.351      868.686
01/25/2015  21:00:00       13.417       11.542       12.436        9.176       10.757        8.262       84.206      115.710       68.269        0.037        0.013       17.698        6.663        0.142      336.660        8.112      868.713
01/25/2015  21:01:00        1.890        8.029        8.680        9.488        6.257        7.766       90.019       39.149       60.303        0.017        0.009        8.248        3.489        0.179      336.584        7.985      868.734
01/25/2015  21:02:00        1.288       -2.040        1.872        3.795        3.580        4.006       14.398       12.818       16.045        0.003        0.002        2.413        2.496        1.070      336.719        8.210      868.749
01/25/2015  21:03:00      -11.152       -5.329       -1.316        5.965        4.263        3.266       35.586       18.173       10.667        0.011        0.003       12.360        2.048        0.027      336.707        8.192      868.737
01/25/2015  21:04:00       -1.750       -8.749        1.076        7.403        7.893        6.778       54.798       62.297       45.937        0.012        0.008        8.922        5.343        0.359      336.740        8.245      868.717
01/25/2015  21:05:00       12.619      -10.683       -1.224       10.000        5.902        3.501       99.991       34.832       12.254        0.021        0.007       16.534        1.767        0.011      336.873        8.468      868.679
01/25/2015  21:06:00       -9.313        1.426        0.815        9.257        5.954        3.321       85.693       35.448       11.026        0.011        0.007        9.421        2.836        0.091      336.800        8.345      868.650
01/25/2015  21:07:00        0.261       21.917        0.297       10.436       10.972        4.281      108.902      120.393       18.330        0.036        0.012       21.919        2.698        0.015      337.026        8.724      868.643
01/25/2015  21:08:00        6.522       11.632       -1.463        8.155       10.169        4.592       66.502      103.409       21.091        0.019        0.010       13.336        4.201        0.099      337.127        8.893      868.664
01/25/2015  21:09:00       13.968        5.305        5.679       13.469        6.123        3.900      181.422       37.488       15.211        0.024        0.012       14.941        3.193        0.046      336.998        8.673      868.707
01/25/2015  21:10:00        0.238      -10.595       -0.010        5.070       10.620        6.385       25.708      112.784       40.763        0.015        0.009       10.598        6.007        0.321      336.836        8.405      868.745
01/25/2015  21:11:00       -8.559      -17.003       -1.805       10.087        7.789        6.755      101.738       60.663       45.626        0.029        0.010       19.035        3.046        0.026      336.718        8.208      868.774
01/25/2015  21:12:00      -37.838      -36.020       -9.271       12.008       10.989        7.790      144.191      120.758       60.681        0.157        0.016       52.241        4.243        0.007      336.499        7.841      868.782
01/25/2015  21:13:00      -59.684      -23.252      -11.288       12.300       11.492        5.791      151.289      132.072       33.538        0.227        0.016       64.053        4.702        0.005      336.426        7.719      868.783
01/25/2015  21:14:00      -91.313      -18.330      -12.415       15.463       12.372        9.605      239.104      153.062       92.260        0.466        0.024       93.135        2.681        0.001      336.227        7.387      868.784
01/25/2015  21:15:00     -123.697       -6.433      -19.915       10.751       11.441        9.564      115.590      130.902       91.471        0.804        0.017      123.864        5.146        0.002      336.220        7.375      868.785
01/25/2015  21:16:00     -117.866       -6.789      -13.994       37.934       22.870       20.208     1438.960      523.014      408.381        0.825        0.119      118.061       19.453        0.027      336.167        7.287      868.795
01/25/2015  21:17:00     -150.944        1.400      -17.758       30.928       13.335       15.765      956.534      177.818      248.549        1.224        0.069      150.951       16.037        0.011      336.231        7.395      868.799
01/25/2015  21:18:00     -114.370        7.767      -14.500       27.560       15.606       13.140      759.571      243.553      172.652        0.726        0.059      114.634       13.352        0.014      336.144        7.249      868.786
01/25/2015  21:19:00      -71.177       13.850      -10.136       18.859       20.479       11.193      355.670      419.408      125.292        0.313        0.045       72.512        4.528        0.004      336.251        7.425      868.766
01/25/2015  21:20:00      -79.717       -4.057      -12.971       23.344       17.638       10.733      544.920      311.106      115.187        0.376        0.049       79.820       10.860        0.019      336.333        7.565      868.752
01/25/2015  21:21:00      -67.090      -23.174       -4.167       19.596       17.287       10.538      384.012      298.845      111.058        0.292        0.040       70.980        8.940        0.016      336.131        7.228      868.746
01/25/2015  21:22:00      -86.065      -20.491       -4.595       23.934       22.493       14.735      572.845      505.920      217.108        0.457        0.065       88.471       11.638        0.017      336.069        7.123      868.750
01/25/2015  21:23:00     -104.286       -2.124       -7.492       37.387       33.973       25.921     1397.805     1154.154      671.874        0.708        0.161      104.308       25.392        0.059      336.080        7.142      868.771
01/25/2015  21:24:00     -162.693       33.976      -10.012       52.756       31.750       23.284     2783.174     1008.053      542.147        1.603        0.217      166.203       25.734        0.024      336.162        7.279      868.775
01/25/2015  21:25:00     -163.086       12.068      -18.578       44.263       25.937       23.059     1959.217      672.749      531.711        1.513        0.158      163.532       23.792        0.021      336.124        7.214      868.775
01/25/2015  21:26:00     -122.120        2.314       -7.325       46.375       43.727       27.810     2150.630     1912.088      773.412        0.990        0.242      122.142       27.026        0.049      336.051        7.092      868.767
01/25/2015  21:27:00     -138.549       -0.527       -9.467       48.147       35.255       26.992     2318.149     1242.897      728.588        1.179        0.214      138.550       21.865        0.025      335.991        6.992      868.764
01/25/2015  21:28:00     -122.057        0.595       -1.036       63.517       35.206       33.037     4034.415     1239.486     1091.439        1.063        0.318      122.058       30.916        0.064      335.998        7.004      868.755
01/25/2015  21:29:00     -139.573       -1.880      -11.518       51.480       36.254       29.361     2650.187     1314.388      862.088        1.222        0.241      139.586       30.395        0.047      336.055        7.100      868.746
01/25/2015  21:30:00     -150.527       -1.995      -15.944       43.051       29.925       24.251     1853.392      895.483      588.126        1.313        0.167      150.540       24.093        0.026      336.025        7.050      868.739
01/25/2015  21:31:00     -121.841       -1.450       -6.033       45.922       35.604       25.868     2108.859     1267.618      669.137        0.946        0.202      121.849       22.367        0.034      336.072        7.129      868.738
01/25/2015  21:32:00     -121.323        9.733       -8.700       39.798       41.083       24.144     1583.866     1687.819      582.929        0.937        0.193      121.713       21.276        0.031      336.101        7.175      868.725
01/25/2015  21:33:00     -178.305       44.252      -16.764       54.100       39.662       27.798     2926.761     1573.042      772.701        1.965        0.264      183.715       17.595        0.009      336.149        7.255      868.722
01/25/2015  21:34:00     -161.810       46.253      -14.426       46.564       41.138       27.996     2168.163     1692.353      783.757        1.659        0.232      168.291       21.081        0.016      336.165        7.282      868.707
01/25/2015  21:35:00     -103.291       42.207       -3.836       70.061       35.294       26.915     4908.585     1245.696      724.442        0.967        0.344      111.582       27.691        0.062      336.130        7.225      868.690
01/25/2015  21:36:00      -41.296       35.253      -11.335       27.010       29.875       14.113      729.537      892.487      199.190        0.245        0.091       54.297       12.614        0.054      336.253        7.430      868.695
01/25/2015  21:37:00      -34.782       38.252       -5.203       45.864       30.266       15.479     2103.491      916.009      239.603        0.298        0.163       51.701       16.761        0.105      336.327        7.553      868.685
01/25/2015  21:38:00      -89.087       -2.060      -11.485       16.676       26.015       10.241      278.074      676.800      104.875        0.457        0.053       89.111        4.896        0.003      336.125        7.215      868.663
01/25/2015  21:39:00     -106.335      -28.395      -16.856       21.200       23.105       16.838      449.432      533.826      283.515        0.683        0.063      110.061       12.286        0.012      335.893        6.831      868.646
01/25/2015  21:40:00      -73.162      -10.950        1.269       40.929       30.956       21.039     1675.152      958.290      442.657        0.427        0.154       73.976       19.984        0.073      335.771        6.627      868.633
01/25/2015  21:41:00     -130.227      -18.753      -15.795       38.212       28.431       22.784     1460.184      808.341      519.105        1.017        0.139      131.571       19.854        0.023      335.725        6.550      868.640
01/25/2015  21:42:00     -132.335       -8.429      -19.851       31.993       24.965       22.067     1023.571      623.248      486.939        1.006        0.107      132.604       18.342        0.019      335.682        6.479      868.657
01/25/2015  21:43:00     -121.777       -2.917      -11.719       42.870       36.480       24.687     1837.842     1330.796      609.462        0.938        0.189      121.812       23.946        0.039      335.729        6.557      868.658
01/25/2015  21:44:00     -151.982        2.700      -10.801       52.106       41.835       30.253     2715.019     1750.178      915.240        1.430        0.269      152.006       30.861        0.041      335.712        6.530      868.647
01/25/2015  21:45:00     -121.328        3.276       -3.942       61.222       40.109       25.490     3748.121     1608.758      649.718        1.038        0.300      121.372       29.510        0.059      335.677        6.469      868.656
01/25/2015  21:46:00     -133.757       15.713       -8.067       57.273       36.494       28.771     3280.199     1331.835      827.775        1.182        0.272      134.677       30.948        0.053      335.786        6.653      868.653
01/25/2015  21:47:00     -155.882       12.984      -14.084       29.135       35.048       19.476      848.867     1228.338      379.324        1.356        0.123      156.422       11.161        0.005      335.832        6.728      868.643
01/25/2015  21:48:00     -120.177        0.372       -4.806       46.435       36.829       28.884     2156.179     1356.360      834.304        0.941        0.217      120.178       25.632        0.045      335.785        6.650      868.642
01/25/2015  21:49:00     -121.651      -18.707      -17.461       33.342       24.187       21.693     1111.687      584.999      470.576        0.881        0.108      123.081       13.203        0.012      335.901        6.842      868.662
01/25/2015  21:50:00      -54.692      -33.035       -4.538       40.949       22.981       21.457     1676.860      528.122      460.412        0.338        0.133       63.895       15.545        0.059      335.854        6.766      868.671
01/25/2015  21:51:00      -62.621      -28.511        1.408       26.952       25.711       17.251      726.391      661.043      297.594        0.321        0.084       68.806       10.836        0.025      335.828        6.723      868.685
01/25/2015  21:52:00      -62.937      -35.005       -4.659       26.828       19.135       16.354      719.766      366.157      267.462        0.328        0.068       72.017        9.592        0.018      335.875        6.800      868.711
01/25/2015  21:53:00     -102.529        1.461       -7.007       37.306       30.803       22.567     1391.734      948.827      509.271        0.671        0.142      102.539       14.751        0.021      335.946        6.917      868.727
01/25/2015  21:54:00      -97.243      -19.401       -4.788       50.579       34.109       21.366     2558.273     1163.425      456.502        0.702        0.209       99.160       23.604        0.057      335.910        6.858      868.732
01/25/2015  21:55:00      -37.837      -17.649        1.670       40.515       38.560       19.015     1641.470     1486.855      361.553        0.262        0.174       41.751       22.763        0.297      335.838        6.739      868.738
01/25/2015  21:56:00     -132.701      -44.035       -9.164       22.364       21.470       15.896      500.146      460.970      252.676        1.042        0.061      139.816       11.144        0.006      335.890        6.824      868.729
01/25/2015  21:57:00     -101.325      -43.925       -4.427       29.858       19.939       15.104      891.524      397.577      228.116        0.687        0.076      110.436       13.778        0.016      335.966        6.952      868.713
01/25/2015  21:58:00      -45.072      -41.655        3.310       28.998       27.150       16.732      840.903      737.110      279.947        0.282        0.093       61.373       12.384        0.041      335.949        6.924      868.719
01/25/2015  21:59:00      -71.525      -47.159        1.744       37.576       18.659       17.737     1411.928      348.147      314.597        0.471        0.104       85.673       22.116        0.067      336.008        7.020      868.742
01/25/2015  22:00:00      -98.599      -62.201      -11.004       14.576       15.977       12.125      212.447      255.252      147.010        0.716        0.031      116.579        6.180        0.003      336.043        7.078      868.749
01/25/2015  22:01:00     -109.355      -49.514      -10.589       13.817       14.959        8.969      190.903      223.770       80.435        0.751        0.025      120.042        3.579        0.001      336.022        7.044      868.749
01/25/2015  22:02:00     -123.733      -62.316      -14.766       11.948       10.011       10.626      142.746      100.224      112.904        0.988        0.018      138.540        5.605        0.002      335.991        6.993      868.755
01/25/2015  22:03:00     -126.537      -59.963       -8.645       18.891       17.718       12.666      356.866      313.930      160.436        1.026        0.042      140.026        8.380        0.004      335.948        6.920      868.766
01/25/2015  22:04:00     -118.240      -53.103      -12.264       11.819       18.148        9.607      139.690      329.354       92.298        0.876        0.028      129.618        3.947        0.001      335.930        6.890      868.785
01/25/2015  22:05:00     -111.081      -68.298       -5.677       18.477       16.650       12.895      341.414      277.229      166.282        0.891        0.039      130.398        9.070        0.005      335.916        6.867      868.807
01/25/2015  22:06:00     -106.856      -70.127        0.246       48.073       28.032       18.668     2310.969      785.784      348.494        0.989        0.172      127.812       16.878        0.017      335.939        6.908      868.820
01/25/2015  22:07:00      -88.989      -71.086        3.698       69.250       43.780       35.199     4795.572     1916.694     1238.976        1.047        0.398      113.896       27.657        0.059      335.819        6.705      868.825
01/25/2015  22:08:00     -156.168     -120.765      -11.679       63.224       57.340       39.166     3997.234     3287.856     1534.011        2.396        0.441      197.415       28.409        0.021      335.790        6.655      868.837
01/25/2015  22:09:00     -163.817      -85.260        3.409       53.265       47.935       30.365     2837.205     2297.745      922.045        2.009        0.303      184.677       30.848        0.028      335.748        6.586      868.841
01/25/2015  22:10:00     -117.270      -76.512       -5.309       47.879       36.982       31.750     2292.367     1367.664     1008.061        1.215        0.233      140.023       25.825        0.034      335.673        6.464      868.849
01/25/2015  22:11:00      -57.611      -61.969        9.220       67.191       48.084       33.208     4514.607     2312.054     1102.756        0.759        0.396       84.612       32.876        0.151      335.641        6.409      868.863
01/25/2015  22:12:00     -149.010      -94.529       -2.157       52.467       47.876       30.498     2752.745     2292.104      930.107        1.856        0.299      176.464       31.716        0.032      335.707        6.520      868.868
01/25/2015  22:13:00     -154.810      -82.101       -2.720       45.019       41.521       21.721     2026.669     1724.027      471.781        1.747        0.211      175.234       23.619        0.018      335.716        6.535      868.862
01/25/2015  22:14:00     -133.462      -24.758       -6.067       33.512       23.239       20.452     1123.057      540.067      418.296        1.027        0.104      135.739       21.229        0.024      335.637        6.404      868.853
01/25/2015  22:15:00     -116.273      -32.150      -10.039       16.610       15.150       11.365      275.880      229.530      129.173        0.764        0.032      120.636        6.692        0.003      335.607        6.353      868.844
01/25/2015  22:16:00      -93.090      -26.592      -12.876       17.646       17.561       11.214      311.392      308.390      125.759        0.514        0.037       96.814        7.323        0.006      335.618        6.371      868.833
01/25/2015  22:17:00     -100.631      -25.937      -12.132       22.873       18.859       15.889      523.181      355.655      252.466        0.604        0.057      103.920       13.325        0.016      335.643        6.414      868.804
01/25/2015  22:18:00      -78.269       -4.950      -12.725       14.776       26.378       13.305      218.332      695.776      177.023        0.370        0.055       78.425       11.801        0.023      335.800        6.675      868.800
01/25/2015  22:19:00      -75.575        2.989      -14.505       16.824       18.624       15.618      283.047      346.849      243.913        0.340        0.044       75.635       12.445        0.027      335.867        6.787      868.806
01/25/2015  22:20:00      -59.271       -6.957      -15.882       21.234       11.205       12.057      450.867      125.553      145.374        0.227        0.036       59.678        5.608        0.009      335.842        6.745      868.813
01/25/2015  22:21:00      -76.655      -10.484      -16.076       16.781       13.442       12.456      281.601      180.685      155.141        0.343        0.031       77.369       10.629        0.019      335.829        6.724      868.815
01/25/2015  22:22:00      -62.248      -11.156       -8.058       11.346       10.508        9.939      128.731      110.415       98.775        0.220        0.017       63.240        5.315        0.007      335.770        6.625      868.811
01/25/2015  22:23:00      -75.205      -24.887      -12.602       15.880       12.557        9.470      252.186      157.686       89.675        0.347        0.025       79.215        6.673        0.007      335.731        6.560      868.814
01/25/2015  22:24:00     -100.412      -38.180      -15.063       12.690       18.086       10.119      161.040      327.114      102.386        0.618        0.030      107.426        7.172        0.004      335.571        6.296      868.820
01/25/2015  22:25:00     -115.051      -31.269      -18.525       19.538       21.946       14.293      381.731      481.608      204.291        0.781        0.053      119.225        8.349        0.005      335.639        6.407      868.815
01/25/2015  22:26:00     -110.477      -44.828      -21.244       16.866       18.685       11.455      284.453      349.118      131.206        0.772        0.038      119.226        7.857        0.004      335.628        6.388      868.804
01/25/2015  22:27:00     -142.503      -72.912      -12.678       36.410       22.874       19.043     1325.723      523.198      362.628        1.400        0.111      160.073       10.230        0.004      335.558        6.273      868.803
01/25/2015  22:28:00     -116.434      -96.685       -5.591       51.479       41.529       30.165     2650.090     1724.684      909.931        1.411        0.264      151.344       26.247        0.030      335.640        6.409      868.814
01/25/2015  22:29:00     -142.896      -84.173       -7.445       31.771       42.645       18.131     1009.375     1818.555      328.733        1.536        0.158      165.844       14.661        0.008      335.663        6.447      868.825
01/25/2015  22:30:00      -87.993      -63.409       -5.545       37.884       32.937       26.832     1435.172     1084.839      719.956        0.752        0.162      108.460       24.618        0.052      335.547        6.254      868.828
01/25/2015  22:31:00     -111.501      -63.118      -14.706       27.413       24.615       20.632      751.499      605.880      425.678        0.921        0.089      128.126       14.051        0.012      335.564        6.282      868.830
01/25/2015  22:32:00     -102.724      -72.844       -6.350       38.369       37.808       28.681     1472.176     1429.476      822.628        0.981        0.186      125.930       18.627        0.022      335.544        6.249      868.825
01/25/2015  22:33:00     -125.001      -90.428       -1.110       41.613       30.169       25.117     1731.616      910.182      630.868        1.354        0.164      154.280       22.483        0.021      335.498        6.172      868.821
01/25/2015  22:34:00     -128.163      -91.374        4.983       49.259       26.660       23.107     2426.466      710.737      533.923        1.423        0.184      157.401       24.985        0.025      335.469        6.125      868.825
01/25/2015  22:35:00      -98.461      -77.489        6.839       57.354       44.559       32.656     3289.501     1985.501     1066.426        1.104        0.317      125.296       29.398        0.055      335.482        6.145      868.827
01/25/2015  22:36:00     -130.232      -91.990        2.712       64.249       43.730       35.215     4127.965     1912.311     1240.068        1.635        0.364      159.444       35.521        0.050      335.412        6.028      868.828
01/25/2015  22:37:00     -119.926      -72.550        3.610       60.147       50.035       29.489     3617.623     2503.508      869.598        1.332        0.350      140.163       23.295        0.028      335.423        6.047      868.816
01/25/2015  22:38:00     -167.393     -102.644      -11.920       32.092       38.909       24.395     1029.867     1513.906      595.110        2.092        0.157      196.357       15.331        0.006      335.475        6.133      868.789
01/25/2015  22:39:00     -153.829      -65.354       -2.147       50.952       53.540       32.597     2596.130     2866.574     1062.577        1.723        0.326      167.137       29.599        0.031      335.479        6.141      868.773
01/25/2015  22:40:00     -179.589      -65.889       -4.750       55.570       42.544       28.465     3087.973     1809.992      810.229        2.116        0.285      191.295       24.090        0.016      335.452        6.093      868.755
01/25/2015  22:41:00     -157.087      -41.497       -6.955       79.991       54.283       36.862     6398.528     2946.611     1358.810        1.857        0.535      162.475       40.620        0.063      335.416        6.034      868.742
01/25/2015  22:42:00     -154.399      -66.670       -6.829       71.365       54.187       29.870     5092.898     2936.205      892.219        1.862        0.446      168.178       33.876        0.041      335.454        6.097      868.746
01/25/2015  22:43:00     -179.282      -44.680       -1.969       54.359       47.633       28.662     2954.950     2268.872      821.487        2.009        0.302      184.765       25.995        0.020      335.523        6.213      868.765
01/25/2015  22:44:00     -148.869      -69.494       -2.131       42.297       34.552       26.109     1789.065     1193.849      681.688        1.533        0.183      164.290       20.833        0.016      335.515        6.202      868.766
01/25/2015  22:45:00     -176.325      -10.069      -16.815       49.794       37.977       24.846     2479.393     1442.254      617.305        1.801        0.227      176.612       25.353        0.021      335.561        6.277      868.757
01/25/2015  22:46:00     -208.214       37.026      -19.826       42.609       43.107       23.186     1815.529     1858.194      537.582        2.466        0.211      211.480       16.356        0.006      335.607        6.350      868.751
01/25/2015  22:47:00     -180.556       53.173       -6.978       39.723       29.569       23.976     1577.919      874.343      574.845        1.925        0.151      188.223       15.631        0.007      335.707        6.518      868.735
01/25/2015  22:48:00     -196.980       40.832      -17.034       47.622       42.279       24.408     2267.836     1787.499      595.762        2.270        0.233      201.168       22.557        0.013      335.754        6.597      868.720
01/25/2015  22:49:00     -161.444       42.512      -16.829       43.311       36.258       24.134     1875.802     1314.614      582.445        1.596        0.189      166.947       16.869        0.010      335.682        6.479      868.710
01/25/2015  22:50:00     -119.356        3.181      -15.011       43.950       43.407       22.934     1931.640     1884.144      525.966        0.941        0.217      119.398       22.477        0.035      335.572        6.295      868.715
01/25/2015  22:51:00      -97.508       10.547       -2.089       45.544       29.385       22.039     2074.218      863.477      485.727        0.652        0.171       98.076       21.255        0.047      335.543        6.247      868.709
01/25/2015  22:52:00      -72.262      -25.033       -5.260       48.481       31.697       18.546     2350.441     1004.678      343.936        0.479        0.185       76.475       17.686        0.053      335.488        6.154      868.716
01/25/2015  22:53:00      -15.581      -12.892        3.186       17.600       21.947       13.736      309.750      481.658      188.691        0.070        0.049       20.223       12.992        0.413      335.456        6.103      868.721
01/25/2015  22:54:00      -11.948       33.745       -7.328       25.514       22.807       12.311      650.980      520.148      151.557        0.133        0.066       35.798       10.909        0.093      335.644        6.416      868.724
01/25/2015  22:55:00      -14.144       29.517       -2.835       16.583       22.925       14.026      275.005      525.564      196.728        0.104        0.050       32.731       13.801        0.178      335.568        6.288      868.730
01/25/2015  22:56:00      -50.597       23.153       -9.784       24.562       20.817       17.750      603.274      433.334      315.063        0.227        0.068       55.643       14.677        0.070      335.550        6.259      868.719
01/25/2015  22:57:00      -46.466      -19.816       -8.468       16.885       13.591       12.366      285.114      184.717      152.915        0.162        0.031       50.515       10.623        0.044      335.445        6.083      868.703
01/25/2015  22:58:00      -73.804      -38.931      -15.095       11.764       17.371        6.094      138.392      301.738       37.141        0.383        0.024       83.442        1.749        0.000      335.385        5.982      868.699
01/25/2015  22:59:00     -104.081      -65.370      -14.842       30.599       21.873       14.278      936.270      478.431      203.870        0.847        0.081      122.907       10.604        0.007      335.363        5.947      868.702
01/25/2015  23:00:00     -120.524      -52.204      -19.823       17.448       16.989       12.016      304.446      288.622      144.380        0.919        0.037      131.344        6.204        0.002      335.213        5.696      868.728
01/25/2015  23:01:00     -137.822      -58.253       -9.147       22.242       23.326       16.962      494.689      544.105      287.708        1.190        0.066      149.628       11.012        0.005      335.157        5.604      868.743
01/25/2015  23:02:00     -136.265      -58.429       -2.136       40.788       33.184       21.087     1663.645     1101.205      444.672        1.260        0.160      148.264       22.293        0.023      335.151        5.595      868.740
01/25/2015  23:03:00      -89.106      -43.930       -2.564       46.106       33.179       18.862     2125.759     1100.833      355.791        0.673        0.179       99.347       15.399        0.024      335.216        5.702      868.734
01/25/2015  23:04:00     -126.461      -51.407       -2.363       35.150       21.257       16.750     1235.489      451.862      280.560        1.030        0.098      136.511       13.022        0.009      335.263        5.780      868.733
01/25/2015  23:05:00      -93.996      -42.948        2.447       35.069       26.213       18.216     1229.801      687.122      331.828        0.647        0.112      103.343       19.126        0.034      335.180        5.642      868.739
01/25/2015  23:06:00      -41.855      -24.802        6.233       39.089       27.674       17.702     1527.914      765.823      313.374        0.251        0.130       48.652       18.251        0.141      335.251        5.759      868.731
01/25/2015  23:07:00      -43.193      -34.123       -3.039       19.752       21.160       13.592      390.141      447.743      184.748        0.203        0.051       55.046        9.051        0.027      335.208        5.687      868.715
01/25/2015  23:08:00      -54.532      -32.219       -2.988       11.311       15.103        8.457      127.933      228.099       71.526        0.222        0.021       63.339        4.414        0.005      335.254        5.764      868.715
01/25/2015  23:09:00      -29.508       14.820       -1.372       19.295       29.065       12.033      372.309      844.782      144.799        0.123        0.068       33.020        9.456        0.082      335.208        5.688      868.725
01/25/2015  23:10:00      -56.681       22.326      -13.443        9.548       25.430       12.596       91.172      646.666      158.669        0.239        0.045       60.920       12.593        0.043      335.218        5.704      868.734
01/25/2015  23:11:00      -45.089       -5.406       -6.559        9.790       14.068        7.624       95.839      197.919       58.120        0.123        0.018       45.412        4.279        0.009      335.313        5.863      868.735
01/25/2015  23:12:00      -58.886       -4.870      -13.590       10.348       13.498        8.583      107.078      182.199       73.673        0.202        0.018       59.087        4.596        0.006      335.303        5.847      868.716
01/25/2015  23:13:00      -58.401      -20.729      -13.558       11.734       10.729        9.171      137.681      115.105       84.112        0.218        0.017       61.971        6.355        0.011      335.186        5.653      868.698
01/25/2015  23:14:00      -48.402      -32.240       -8.944       16.856       10.156       11.055      284.117      103.154      122.218        0.199        0.025       58.157        8.659        0.022      335.090        5.495      868.697
01/25/2015  23:15:00      -11.755      -12.019        0.359       11.774       10.897       10.592      138.633      118.741      112.196        0.033        0.018       16.812        7.179        0.182      335.022        5.383      868.692
01/25/2015  23:16:00       -8.325       -7.356        2.664        9.864       11.877        6.184       97.303      141.061       38.237        0.020        0.014       11.109        6.127        0.304      335.126        5.553      868.690
01/25/2015  23:17:00       35.915       25.004        4.607       16.964        9.540        8.281      287.763       91.013       68.571        0.119        0.022       43.762        2.308        0.003      335.289        5.825      868.690
01/25/2015  23:18:00       55.790       31.895        4.038       12.931        8.646       10.345      167.208       74.755      107.028        0.225        0.017       64.264        6.972        0.012      335.228        5.722      868.685
01/25/2015  23:19:00       36.446       25.088       -0.606       18.528       15.448       13.265      343.304      238.640      175.972        0.136        0.038       44.247       10.894        0.061      335.036        5.404      868.684
01/25/2015  23:20:00       27.649       26.175        1.489       14.810       15.807       12.320      219.321      249.875      151.786        0.104        0.031       38.074       10.135        0.071      334.967        5.289      868.679
01/25/2015  23:21:00       10.810       24.412        1.163       12.865       22.935       11.998      165.497      526.006      143.960        0.077        0.042       26.698       13.106        0.241      334.995        5.335      868.676
01/25/2015  23:22:00       22.885       77.914      -10.799       12.354       21.946        8.813      152.610      481.607       77.672        0.371        0.036       81.206        8.617        0.011      335.286        5.816      868.673
01/25/2015  23:23:00       25.371       66.553      -12.265       11.969       12.657        8.670      143.249      160.188       75.175        0.280        0.019       71.225        7.234        0.010      335.338        5.905      868.673
01/25/2015  23:24:00       11.119       56.062       -8.595        9.958        8.543        6.549       99.165       72.975       42.887        0.178        0.011       57.154        5.714        0.010      335.459        6.106      868.664
01/25/2015  23:25:00       -0.527       31.005       -5.693        9.357       14.227        5.204       87.551      202.402       27.086        0.066        0.016       31.010        3.779        0.015      335.455        6.098      868.650
01/25/2015  23:26:00      -40.867      -34.363       -1.181       24.516       11.792        8.713      601.027      139.041       75.921        0.183        0.041       53.394       10.129        0.036      334.999        5.344      868.641
01/25/2015  23:27:00      -63.268      -38.128       -8.782        9.687        9.473        7.274       93.843       89.747       52.911        0.289        0.012       73.868        3.204        0.002      334.786        4.989      868.632
01/25/2015  23:28:00      -76.870      -43.448       -6.098       21.245       19.959       15.776      451.338      398.347      248.897        0.447        0.055       88.299       12.903        0.021      334.880        5.142      868.627
01/25/2015  23:29:00      -82.390      -33.055      -11.774       13.583       12.609        8.399      184.510      158.998       70.549        0.422        0.021       88.774        6.480        0.005      334.866        5.120      868.616
01/25/2015  23:30:00      -69.814       -0.597      -14.270       16.281       13.695       10.285      265.071      187.563      105.787        0.282        0.028       69.817        7.272        0.011      334.872        5.131      868.586
01/25/2015  23:31:00      -77.483      -21.480      -12.285       11.119       13.422        9.400      123.642      180.138       88.353        0.350        0.020       80.405        3.065        0.001      334.952        5.264      868.552
01/25/2015  23:32:00      -80.995      -35.090       -8.760       19.816       16.495       10.056      392.660      272.089      101.121        0.432        0.038       88.269        9.720        0.012      334.969        5.293      868.542
01/25/2015  23:33:00     -104.899      -40.814      -11.205       17.574       14.892        9.934      308.849      221.760       98.687        0.671        0.031      112.559        5.934        0.003      334.881        5.145      868.548
01/25/2015  23:34:00     -117.153      -42.936      -18.826       11.496       12.301        7.635      132.165      151.318       58.299        0.813        0.017      124.773        7.258        0.003      334.745        4.919      868.552
01/25/2015  23:35:00     -101.949      -35.601      -12.432       10.733       16.020        9.551      115.200      256.625       91.228        0.614        0.023      107.986        5.674        0.003      334.697        4.841      868.545
01/25/2015  23:36:00      -94.321      -18.224      -12.276       11.261       16.270        7.973      126.812      264.720       63.562        0.492        0.023       96.066        6.183        0.004      334.764        4.952      868.529
01/25/2015  23:37:00      -91.916      -39.079       -7.584       14.200        9.184        8.009      201.638       84.341       64.138        0.519        0.018       99.878        6.868        0.005      334.761        4.947      868.513
01/25/2015  23:38:00     -111.839      -47.522       -5.786       23.331       17.919       11.884      544.351      321.102      141.235        0.790        0.050      121.517       14.066        0.013      334.727        4.890      868.499
01/25/2015  23:39:00     -124.212      -41.410      -14.000        8.868       10.233        8.113       78.639      104.722       65.813        0.879        0.012      130.933        4.088        0.001      334.757        4.939      868.475
01/25/2015  23:40:00     -114.533      -32.101      -11.789        6.475       10.533        7.705       41.925      110.939       59.363        0.725        0.011      118.946        5.745        0.002      334.752        4.931      868.459
01/25/2015  23:41:00     -106.049      -50.725      -11.061       11.007       13.322        9.831      121.147      177.474       96.643        0.717        0.020      117.556        3.954        0.001      334.778        4.976      868.454
01/25/2015  23:42:00      -99.579      -48.849       -6.426       11.138       11.961        9.423      124.060      143.055       88.793        0.635        0.018      110.915        5.433        0.002      334.802        5.016      868.450
01/25/2015  23:43:00     -101.722      -43.980       -8.866       10.409        8.871        6.748      108.344       78.701       45.539        0.630        0.012      110.822        2.815        0.001      334.854        5.101      868.428
01/25/2015  23:44:00     -114.470      -39.263       -7.680       12.290       14.128       10.875      151.040      199.591      118.265        0.759        0.023      121.016        8.503        0.005      334.955        5.268      868.396
01/25/2015  23:45:00     -119.658      -48.291       -1.801       17.210       16.507       11.456      296.180      272.483      131.234        0.868        0.035      129.035       12.387        0.009      334.874        5.135      868.379
01/25/2015  23:46:00      -81.122      -45.762        0.935       38.732       24.382       17.045     1500.198      594.470      290.527        0.553        0.119       93.139       16.785        0.032      334.719        4.876      868.384
01/25/2015  23:47:00      -74.080      -62.473        5.774       38.403       35.838       23.179     1474.808     1284.374      537.251        0.636        0.165       96.906       21.638        0.050      334.650        4.763      868.396
01/25/2015  23:48:00     -138.760     -101.993       -6.629       47.410       40.494       25.496     2247.749     1639.735      650.056        1.712        0.227      172.212       18.170        0.011      334.728        4.891      868.395
01/25/2015  23:49:00     -123.969     -108.973       -2.021       73.523       59.937       37.598     5405.650     3592.397     1413.580        1.883        0.521      165.056       36.241        0.048      334.677        4.805      868.369
01/25/2015  23:50:00     -133.348     -128.993      -12.865       72.929       72.721       45.939     5318.689     5288.296     2110.415        2.365        0.636      185.529       40.045        0.047      334.461        4.445      868.342
01/25/2015  23:51:00     -154.369     -124.893      -14.969       55.345       58.458       34.166     3063.071     3417.335     1167.296        2.365        0.382      198.565       26.831        0.018      334.395        4.338      868.334
01/25/2015  23:52:00     -171.306     -133.357      -16.272       52.288       46.724       31.440     2734.068     2183.088      988.458        2.665        0.295      217.094       31.957        0.022      334.385        4.319      868.332
01/25/2015  23:53:00     -114.210      -76.332        1.405       50.440       41.674       32.372     2544.224     1736.731     1047.962        1.210        0.266      137.370       24.502        0.032      334.398        4.344      868.339
01/25/2015  23:54:00     -112.612      -88.170       -7.324       60.093       38.919       28.907     3611.182     1514.717      835.637        1.323        0.298      143.022       30.708        0.046      334.392        4.334      868.366
01/25/2015  23:55:00     -128.892      -88.774       -3.664       65.131       44.121       28.831     4242.094     1946.662      831.211        1.576        0.351      156.505       33.779        0.047      334.538        4.574      868.392
01/25/2015  23:56:00     -144.622     -105.499       -2.861       47.543       41.086       32.192     2260.347     1688.072     1036.342        1.852        0.249      179.013       29.790        0.028      334.577        4.640      868.372
01/25/2015  23:57:00     -122.890      -91.219       -1.426       50.071       37.689       26.325     2507.072     1420.439      693.022        1.402        0.231      153.045       22.235        0.021      334.644        4.752      868.333
01/25/2015  23:58:00     -107.790      -57.091        7.327       61.999       41.094       26.955     3843.878     1688.756      726.567        1.059        0.313      121.976       27.972        0.053      334.531        4.565      868.315
01/25/2015  23:59:00     -141.023      -77.627       -3.466       44.743       32.476       21.054     2001.967     1054.706      443.251        1.471        0.175      160.976       21.310        0.018      334.524        4.553      868.306
